[[{"header":{"parameterUnit":"m.s-1","parameterCategory":1,"la1":31.0,"la2":29.5877,"lo1":-88.7671,"lo2":-86.6584,"dy":0.0162,"dx":0.0185,"nx":115,"ny":88,"refTime":"2024-08-23T06:00:00:Z","depth":0,"parameterNumber":2,"parameterNumberName":"U-component_of_WINDS"},"data":[0.0,0.0,0.0,0.0,0.0,0.0,0.0,0.0,0.0,0.0,0.0,0.0,0.0,0.0,0.0,0.0,0.0,0.0,0.0,0.0,0.0,0.0,0.0,0.0,0.0,0.0,0.0,0.0,0.0,0.0,0.0,0.0,0.0,0.0,0.0,0.0,0.0,0.0,0.0,0.0,0.0,0.0,0.0,0.0,0.0,0.0,0.0,0.0,0.0,0.0,0.0,0.0,0.0,0.0,0.0,0.0,0.0,0.0,0.0,0.0,0.0,0.0,0.0,0.0,0.0,0.0,0.0,0.0,0.0,0.0,0.0,0.0,0.0,0.0,0.0,0.0,0.0,0.0,0.0,0.0,0.0,0.0,0.0,0.0,0.0,0.0,0.0,0.0,0.0,0.0,0.0,0.0,0.0,0.0,0.0,0.0,0.0,0.0,0.0,0.0,0.0,0.0,0.0,0.0,0.0,0.0,0.0,0.0,0.0,0.0,0.0,0.0,0.0,0.0,0.0,0.0,0.0,0.0,0.0,0.0,0.0,0.0,0.0,0.0,0.0,0.0,0.0,0.0,0.0,0.0,0.0,0.0,0.0,0.0,0.0,0.0,0.0,0.0,0.0,0.0,0.0,0.0,0.0,0.0,0.0,0.0,0.0,0.0,0.0,0.0,0.0,0.0,0.0,0.0,0.0,0.0,0.0,0.0,0.0,0.0,0.0,0.0,0.0,0.0,0.0,0.0,0.0,0.0,0.0,0.0,0.0,0.0,0.0,0.0,0.0,0.0,0.0,0.0,0.0,0.0,0.0,0.0,0.0,0.0,0.0,0.0,0.0,0.0,0.0,0.0,0.0,0.0,0.0,0.0,0.0,0.0,0.0,0.0,0.0,0.0,0.0,0.0,0.0,0.0,0.0,0.0,0.0,0.0,0.0,0.0,0.0,0.0,0.0,0.0,0.0,0.0,0.0,0.0,0.0,0.0,0.0,0.0,0.0,0.0,0.0,0.0,0.0,0.0,0.0,0.0,0.0,0.0,0.0,0.0,0.0,0.0,0.0,0.0,0.0,0.0,0.0,0.0,0.0,0.0,0.0,0.0,0.0,0.0,0.0,0.0,0.0,0.0,0.0,0.0,0.0,0.0,0.0,0.0,0.0,0.0,0.0,0.0,0.0,0.0,0.0,0.0,0.0,0.0,0.0,0.0,0.0,0.0,0.0,0.0,0.0,0.0,0.0,0.0,0.0,0.0,0.0,0.0,0.0,0.0,0.0,0.0,0.0,0.0,0.0,0.0,0.0,0.0,0.0,0.0,0.0,0.0,0.0,0.0,0.0,0.0,0.0,0.0,0.0,0.0,0.0,0.0,0.0,0.0,0.0,0.0,0.0,0.0,0.0,0.0,0.0,0.0,0.0,0.0,0.0,0.0,0.0,0.0,0.0,0.0,0.0,0.0,0.0,0.0,0.0,0.0,0.0,0.0,0.0,0.0,0.0,0.0,0.0,0.0,0.0,0.0,0.0,0.0,0.0,0.0,0.0,0.0,0.0,0.0,0.0,0.0,0.0,0.0,0.0,0.0,0.0,0.0,0.0,0.0,0.0,0.0,0.0,0.0,0.0,0.0,0.0,0.0,0.0,0.0,0.0,0.0,0.0,0.0,0.0,0.0,0.0,0.0,0.0,0.0,0.0,0.0,0.0,0.0,0.0,0.0,0.0,0.0,0.0,0.0,0.0,0.0,0.0,0.0,0.0,0.0,0.0,0.0,0.0,0.0,0.0,0.0,0.0,0.0,0.0,0.0,0.0,0.0,0.0,0.0,0.0,0.0,0.0,0.0,0.0,0.0,0.0,0.0,0.0,0.0,0.0,0.0,0.0,0.0,0.0,0.0,0.0,0.0,0.0,0.0,0.0,0.0,0.0,0.0,0.0,0.0,0.0,0.0,0.0,0.0,0.0,0.0,0.0,0.0,0.0,0.0,0.0,0.0,0.0,0.0,0.0,0.0,0.0,0.0,0.0,0.0,0.0,0.0,0.0,0.0,0.0,0.0,0.0,0.0,0.0,0.0,0.0,0.0,0.0,0.0,0.0,0.0,0.0,0.0,0.0,0.0,0.0,0.0,0.0,0.0,0.0,0.0,0.0,0.0,0.0,0.0,0.0,0.0,0.0,0.0,0.0,0.0,0.0,0.0,0.0,0.0,0.0,0.0,0.0,0.0,0.0,0.0,0.0,0.0,0.0,0.0,0.0,0.0,0.0,0.0,0.0,0.0,0.0,0.0,0.0,0.0,0.0,0.0,0.0,0.0,0.0,0.0,0.0,0.0,0.0,0.0,0.0,0.0,0.0,0.0,0.0,0.0,0.0,0.0,0.0,0.0,0.0,0.0,0.0,0.0,0.0,0.0,0.0,0.0,0.0,0.0,0.0,0.0,0.0,0.0,0.0,0.0,0.0,0.0,0.0,0.0,0.0,0.0,0.0,0.0,0.0,0.0,0.0,0.0,0.0,0.0,0.0,0.0,0.0,0.0,0.0,0.0,0.0,0.0,0.0,0.0,0.0,0.0,0.0,0.0,0.0,0.0,0.0,0.0,0.0,0.0,0.0,0.0,0.0,0.0,0.0,0.0,0.0,0.0,0.0,0.0,0.0,0.0,0.0,0.0,0.0,0.0,0.0,0.0,0.0,0.0,0.0,0.0,0.0,0.0,0.0,0.0,0.0,0.0,0.0,0.0,0.0,0.0,0.0,0.0,0.0,0.0,0.0,0.0,0.0,0.0,0.0,0.0,0.0,0.0,0.0,0.0,0.0,0.0,0.0,0.0,0.0,0.0,0.0,0.0,0.0,0.0,0.0,0.0,0.0,0.0,0.0,0.0,0.0,0.0,0.0,0.0,0.0,0.0,0.0,0.0,0.0,0.0,0.0,0.0,0.0,0.0,0.0,0.0,0.0,0.0,0.0,0.0,0.0,0.0,0.0,0.0,0.0,0.0,0.0,0.0,0.0,0.0,0.0,0.0,0.0,0.0,0.0,0.0,0.0,0.0,0.0,0.0,0.0,0.0,0.0,0.0,0.0,0.0,0.0,0.0,0.0,0.0,0.0,0.0,0.0,0.0,0.0,0.0,0.0,0.0,0.0,0.0,0.0,0.0,0.0,0.0,0.0,0.0,0.0,0.0,0.0,0.0,0.0,0.0,0.0,0.0,0.0,0.0,0.0,0.0,0.0,0.0,0.0,0.0,0.0,0.0,0.0,0.0,0.0,0.0,0.0,0.0,0.0,0.0,0.0,0.0,0.0,0.0,0.0,0.0,0.0,0.0,0.0,0.0,0.0,0.0,0.0,0.0,0.0,0.0,0.0,0.0,0.0,0.0,0.0,0.0,0.0,0.0,0.0,0.0,0.0,0.0,0.0,0.0,0.0,0.0,0.0,0.0,0.0,0.0,0.0,0.0,0.0,0.0,0.0,0.0,0.0,0.0,0.0,0.0,0.0,0.0,0.0,0.0,0.0,0.0,0.0,0.0,0.0,0.0,0.0,0.0,0.0,0.0,0.0,0.0,0.0,0.0,0.0,0.0,0.0,0.0,0.0,0.0,0.0,0.0,0.0,0.0,0.0,0.0,0.0,0.0,0.0,0.0,0.0,0.0,0.0,0.0,0.0,0.0,0.0,0.0,0.0,0.0,0.0,0.0,0.0,0.0,0.0,0.0,0.0,0.0,0.0,0.0,0.0,0.0,0.0,0.0,0.0,0.0,0.0,0.0,0.0,0.0,0.0,0.0,0.0,0.0,0.0,0.0,0.0,0.0,0.0,0.0,0.0,0.0,0.0,0.0,0.0,0.0,0.0,0.0,0.0,0.0,0.0,0.0,0.0,0.0,0.0,0.0,0.0,0.0,0.0,0.0,0.0,0.0,0.0,0.0,0.0,0.0,0.0,0.0,0.0,0.0,0.0,0.0,0.0,0.0,0.0,0.0,0.0,0.0,0.0,0.0,0.0,0.0,0.0,0.0,0.0,0.0,0.0,0.0,0.0,0.0,0.0,0.0,0.0,0.0,0.0,0.0,0.0,0.0,0.0,0.0,0.0,0.0,0.0,0.0,0.0,0.0,0.0,0.0,0.0,0.0,0.0,0.0,0.0,0.0,0.0,0.0,0.0,0.0,0.0,0.0,0.0,0.0,0.0,0.0,0.0,0.0,0.0,0.0,0.0,0.0,0.0,0.0,0.0,0.0,0.0,0.0,0.0,0.0,0.0,0.0,0.0,0.0,0.0,0.0,0.0,0.0,0.0,0.0,1.2557,0.0,0.0,0.0,0.0,0.0,0.0,0.0,0.0,0.0,0.0,0.0,0.0,0.0,0.0,0.0,0.0,0.0,0.0,0.0,0.0,0.0,0.0,0.0,0.0,0.0,0.0,0.0,0.0,0.0,0.0,0.0,0.0,0.0,0.0,0.0,0.0,0.0,0.0,0.0,0.0,0.0,0.0,0.0,0.0,0.0,0.0,0.0,0.0,0.0,0.0,0.0,0.0,0.0,0.0,0.0,0.0,0.0,0.0,0.0,0.0,0.0,0.0,0.0,0.0,0.0,0.0,0.0,0.0,0.0,0.0,0.0,0.0,0.0,0.0,0.0,0.0,0.0,0.0,0.0,0.0,0.0,0.0,0.0,0.0,0.0,0.0,0.0,0.0,0.0,0.0,0.0,0.0,0.0,0.0,0.0,0.0,0.0,0.0,0.0,0.0,0.0,0.0,0.0,0.0,0.0,0.0,0.0,0.0,0.0,0.0,1.3388,1.3244,1.3228,1.3132,1.2877,0.0,0.0,0.0,0.0,0.0,0.0,0.0,0.0,0.0,0.0,0.0,0.0,0.0,0.0,0.0,0.0,0.0,0.0,0.0,0.0,0.0,0.0,0.0,0.0,0.0,0.0,0.0,0.0,0.0,0.0,0.0,0.0,0.0,0.0,0.0,0.0,0.0,0.0,0.0,0.0,0.0,0.0,0.0,0.0,0.0,0.0,0.0,0.0,0.0,0.0,0.0,0.0,0.0,0.0,0.0,0.0,0.0,0.0,0.0,0.0,0.0,0.0,0.0,0.0,0.0,0.0,0.0,0.0,0.0,0.0,0.0,0.0,0.0,0.0,0.0,0.0,0.0,0.0,0.0,0.0,0.0,0.0,0.0,0.0,0.0,0.0,0.0,0.0,0.0,0.0,0.0,0.0,0.0,0.0,0.0,0.0,0.0,0.0,0.0,0.0,0.0,0.0,0.0,0.0,0.0,0.0,0.0,0.0,0.0,0.0,0.0,0.0,1.361,1.3362,1.2861,0.0,0.0,0.0,0.0,0.0,0.0,0.0,0.0,0.0,0.0,0.0,0.0,0.0,0.0,0.0,0.0,0.0,0.0,0.0,0.0,0.0,0.0,0.0,0.0,0.0,0.0,0.0,0.0,0.0,0.0,0.0,0.0,0.0,0.0,0.0,0.0,0.0,0.0,0.0,0.0,0.0,0.0,0.0,0.0,0.0,0.0,0.0,0.0,0.0,0.0,0.0,0.0,0.0,0.0,0.0,0.0,0.0,0.0,0.0,0.0,0.0,0.0,0.0,0.0,0.0,0.0,0.0,0.0,0.0,0.0,0.0,0.0,0.0,0.0,0.0,0.0,0.0,0.0,0.0,0.0,0.0,0.0,0.0,0.0,0.0,0.0,0.0,0.0,0.0,0.0,0.0,0.0,0.0,0.0,0.0,0.0,0.0,0.0,0.0,0.0,0.0,0.0,0.0,0.0,0.0,0.0,0.0,0.0,0.0,0.0,1.3618,1.361,1.3618,0.0,1.2179,0.0,0.0,0.0,0.0,0.0,0.0,0.0,0.0,0.0,0.0,0.0,0.0,0.0,0.0,0.0,0.0,0.0,0.0,0.0,0.0,0.0,0.0,0.0,0.0,0.0,0.0,0.0,0.0,0.0,0.0,0.0,0.0,0.0,0.0,0.0,0.0,0.0,0.0,0.0,0.0,0.0,0.0,0.0,0.0,0.0,0.0,0.0,0.0,0.0,0.0,0.0,0.0,0.0,0.0,0.0,0.0,0.0,0.0,0.0,0.0,0.0,0.0,0.0,0.0,0.0,0.0,0.0,0.0,0.0,0.0,0.0,0.0,0.0,0.0,0.0,0.0,0.0,0.0,0.0,0.0,0.0,0.0,0.0,0.0,0.0,0.0,0.0,0.0,0.0,0.0,0.0,0.0,0.0,0.0,0.0,0.0,0.0,0.0,0.0,0.0,0.0,0.0,0.0,0.0,0.0,0.0,0.0,0.0,0.0,0.0,1.4195,1.4195,1.3807,1.3402,0.0,0.0,0.0,0.0,0.0,0.0,0.0,0.0,0.0,0.0,0.0,0.0,0.0,0.0,0.0,0.0,0.0,0.0,0.0,0.0,0.0,0.0,0.0,0.0,0.0,0.0,0.0,0.0,0.0,0.0,0.0,0.0,0.0,0.0,0.0,0.0,0.0,0.0,0.0,0.0,0.0,0.0,0.0,0.0,0.0,0.0,0.0,0.0,0.0,0.0,0.0,0.0,0.0,0.0,0.0,0.0,0.0,0.0,0.0,0.0,0.0,0.0,0.0,0.0,0.0,0.0,0.0,0.0,0.0,0.0,0.0,0.0,0.0,0.0,0.0,0.0,0.0,0.0,0.0,0.0,0.0,0.0,0.0,0.0,0.0,0.0,0.0,0.0,0.0,0.0,0.0,0.0,0.0,0.0,0.0,0.0,0.0,0.0,0.0,0.0,0.0,0.0,0.0,0.0,0.0,0.0,0.0,0.0,0.0,0.0,1.4472,0.0,1.4565,1.395,1.353,1.3331,0.0,0.0,0.0,0.0,0.0,0.0,0.0,0.0,0.0,0.0,0.0,0.0,0.0,0.0,0.0,0.0,0.0,0.0,0.0,0.0,0.0,0.0,0.0,0.0,0.0,0.0,0.0,0.0,0.0,0.0,0.0,0.0,0.0,0.0,0.0,0.0,0.0,0.0,0.0,0.0,0.0,0.0,0.0,0.0,0.0,0.0,0.0,0.0,0.0,0.0,0.0,0.0,0.0,0.0,0.0,0.0,0.0,0.0,0.0,0.0,0.0,0.0,0.0,0.0,0.0,0.0,0.0,0.0,0.0,0.0,0.0,0.0,0.0,0.0,0.0,0.0,0.0,0.0,0.0,0.0,0.0,0.0,0.0,0.0,0.0,0.0,0.0,0.0,0.0,0.0,0.0,0.0,0.0,0.0,0.0,0.0,0.0,0.0,0.0,0.0,0.0,0.0,0.0,0.0,0.0,0.0,0.0,0.0,0.0,1.4107,1.4256,1.4573,1.395,1.3307,0.0,0.0,0.0,0.0,0.0,0.0,0.0,0.0,0.0,0.0,0.0,0.0,0.0,0.0,0.0,0.0,0.0,0.0,0.0,0.0,0.0,0.0,0.0,0.0,0.0,0.0,0.0,0.0,0.0,0.0,0.0,0.0,0.0,0.0,0.0,0.0,0.0,0.0,0.0,0.0,0.0,0.0,0.0,0.0,0.0,0.0,0.0,0.0,0.0,0.0,0.0,0.0,0.0,0.0,0.0,0.0,0.0,0.0,0.0,0.0,0.0,0.0,0.0,0.0,0.0,0.0,0.0,0.0,0.0,0.0,0.0,0.0,0.0,0.0,0.0,0.0,0.0,0.0,0.0,0.0,0.0,0.0,0.0,0.0,0.0,0.0,0.0,0.0,0.0,0.0,0.0,0.0,0.0,0.0,0.0,0.0,0.0,0.0,0.0,0.0,0.0,0.0,0.0,0.0,0.0,0.0,0.0,0.0,0.0,1.3465,1.3664,1.3942,1.4234,1.3426,1.2837,0.0,0.0,0.0,0.0,0.0,0.0,0.0,0.0,0.0,0.0,0.0,0.0,0.0,0.0,0.0,0.0,0.0,0.0,0.0,0.0,0.0,0.0,0.0,0.0,0.0,0.0,0.0,0.0,0.0,0.0,0.0,0.0,0.0,0.0,0.0,0.0,0.0,0.0,0.0,0.0,0.0,0.0,0.0,0.0,0.0,0.0,0.0,0.0,0.0,0.0,0.0,0.0,0.0,0.0,0.0,0.0,0.0,0.0,0.0,0.0,0.0,0.0,0.0,0.0,0.0,0.0,0.0,0.0,0.0,0.0,0.0,0.0,0.0,0.0,0.0,0.0,0.0,0.0,0.0,0.0,0.0,0.0,0.0,0.0,0.0,0.0,0.0,0.0,0.0,0.0,0.0,0.0,0.0,0.0,0.0,0.0,0.0,0.0,0.0,0.0,0.0,0.0,0.0,0.0,0.0,0.0,0.0,0.0,0.0,1.3267,0.0,1.3853,0.0,1.3355,1.275,0.0,0.0,0.0,0.0,0.0,0.0,0.0,0.0,0.0,0.0,0.0,0.0,0.0,0.0,0.0,0.0,0.0,0.0,0.0,0.0,0.0,0.0,0.0,0.0,0.0,0.0,0.0,0.0,0.0,0.0,0.0,0.0,0.0,0.0,0.0,0.0,0.0,0.0,0.0,0.0,0.0,0.0,0.0,0.0,0.0,0.0,0.0,0.0,0.0,0.0,0.0,0.0,0.0,0.0,0.0,0.0,0.0,0.0,0.0,0.0,0.0,0.0,0.0,0.0,0.0,0.0,0.0,0.0,0.0,0.0,0.0,0.0,0.0,0.0,0.0,0.0,0.0,0.0,0.0,0.0,0.0,0.0,0.0,0.0,0.0,0.0,0.0,0.0,0.0,0.0,0.0,0.0,0.0,0.0,0.0,0.0,0.0,0.0,0.0,0.0,0.0,0.0,0.0,0.0,0.0,0.0,0.0,0.0,1.2544,1.3553,1.3894,1.4036,1.4093,1.3728,1.306,0.0,0.0,0.0,0.0,0.0,0.0,0.0,0.0,0.0,0.0,0.0,0.0,0.0,0.0,0.0,0.0,0.0,0.0,0.0,0.0,0.0,0.0,0.0,0.0,0.0,0.0,0.0,0.0,0.0,0.0,0.0,0.0,0.0,0.0,0.0,0.0,0.0,0.0,0.0,0.0,0.0,0.0,0.0,0.0,0.0,0.0,0.0,0.0,0.0,0.0,0.0,0.0,0.0,0.0,0.0,0.0,0.0,0.0,0.0,0.0,0.0,0.0,0.0,0.0,0.0,0.0,0.0,0.0,0.0,0.0,0.0,0.0,0.0,0.0,0.0,0.0,0.0,0.0,0.0,0.0,0.0,0.0,0.0,0.0,0.0,0.0,0.0,0.0,0.0,0.0,0.0,0.0,0.0,0.0,0.0,0.0,0.0,0.0,0.0,0.0,0.0,0.0,0.0,0.0,0.0,0.0,0.0,0.0,0.0,1.3561,1.3465,1.3521,1.3719,1.3211,1.2527,0.0,0.0,0.0,0.0,0.0,0.0,0.0,0.0,0.0,0.0,0.0,0.0,0.0,0.0,0.0,0.0,0.0,0.0,0.0,0.0,0.0,0.0,0.0,0.0,0.0,0.0,0.0,0.0,0.0,0.0,0.0,0.0,0.0,0.0,0.0,0.0,0.0,0.0,0.0,0.0,0.0,0.0,0.0,0.0,0.0,0.0,0.0,0.0,0.0,0.0,0.0,0.0,0.0,0.0,0.0,0.0,0.0,0.0,0.0,0.0,0.0,0.0,0.0,0.0,0.0,0.0,0.0,0.0,0.0,0.0,0.0,0.0,0.0,0.0,0.0,0.0,0.0,0.0,0.0,0.0,0.0,0.0,0.0,0.0,0.0,0.0,0.0,0.0,0.0,0.0,0.0,0.0,0.0,0.0,0.0,0.0,0.0,0.0,0.0,0.0,0.0,0.0,0.0,0.0,0.0,0.0,0.0,0.0,0.0,1.3735,1.3576,1.3593,1.3792,1.3267,1.2631,1.1945,0.0,0.0,0.0,0.0,0.0,0.0,0.0,0.0,0.0,0.0,0.0,0.0,0.0,0.0,0.0,0.0,0.0,0.0,0.0,0.0,0.0,0.0,0.0,0.0,0.0,0.0,0.0,0.0,0.0,0.0,0.0,0.0,0.0,0.0,0.0,0.0,0.0,0.0,0.0,0.0,0.0,0.0,0.0,0.0,0.0,0.0,0.0,0.0,0.0,0.0,0.0,0.0,0.0,0.0,0.0,0.0,0.0,0.0,0.0,0.0,0.0,0.0,0.0,0.0,0.0,0.0,0.0,0.0,0.0,0.0,0.0,0.0,0.0,0.0,0.0,0.0,0.0,0.0,0.0,0.0,0.0,0.0,0.0,0.0,0.0,0.0,0.0,0.0,0.0,0.0,0.0,0.0,0.0,0.0,0.0,0.0,0.0,0.0,0.0,0.0,0.0,0.0,0.0,0.0,0.0,0.0,0.0,0.0,1.4083,1.4098,1.4107,1.4093,1.3775,1.3315,0.0,0.0,0.0,0.0,0.0,0.0,0.0,0.0,0.0,0.0,0.0,0.0,0.0,0.0,0.0,0.0,0.0,0.0,0.0,0.0,0.0,0.0,0.0,0.0,0.0,0.0,0.0,0.0,0.0,0.0,0.0,0.0,0.0,0.0,0.0,0.0,0.0,0.0,0.0,0.0,0.0,0.0,0.0,0.0,0.0,0.0,0.0,0.0,0.0,0.0,0.0,0.0,0.0,0.0,0.0,0.0,0.0,0.0,0.0,0.0,0.0,0.0,0.0,0.0,0.0,0.0,0.0,0.0,0.0,0.0,0.0,0.0,0.0,0.0,0.0,0.0,0.0,0.0,0.0,0.0,0.0,0.0,0.0,0.0,0.0,0.0,0.0,0.0,0.0,0.0,0.0,0.0,0.0,0.0,0.0,0.0,0.0,0.0,0.0,0.0,0.0,0.0,0.0,0.0,0.0,0.0,0.0,0.0,0.0,1.386,1.4169,1.4238,1.4107,1.4004,1.3545,0.0,0.0,0.0,0.0,0.0,0.0,0.0,0.0,0.0,0.0,0.0,0.0,0.0,0.0,0.0,0.0,0.0,0.0,0.0,0.0,0.0,0.0,0.0,0.0,0.0,0.0,0.0,0.0,0.0,0.0,0.0,0.0,0.0,0.0,0.0,0.0,0.0,0.0,0.0,0.0,0.0,0.0,0.0,0.0,0.0,0.0,0.0,0.0,0.0,0.0,0.0,0.0,0.0,0.0,0.0,0.0,0.0,0.0,0.0,0.0,0.0,0.0,0.0,0.0,0.0,0.0,0.0,0.0,0.0,0.0,0.0,0.0,0.0,0.0,0.0,0.0,0.0,0.0,0.0,0.0,0.0,0.0,0.0,0.0,0.0,0.0,0.0,0.0,0.0,0.0,0.0,0.0,0.0,0.0,0.0,0.0,0.0,0.0,0.0,0.0,0.0,0.0,0.0,0.0,0.0,0.0,0.0,0.0,1.3688,1.4127,1.4426,1.4595,1.4639,1.4277,1.3759,0.0,0.0,0.0,0.0,0.0,0.0,0.0,0.0,0.0,0.0,0.0,0.0,0.0,0.0,0.0,0.0,0.0,0.0,0.0,0.0,0.0,0.0,0.0,0.0,0.0,0.0,0.0,0.0,0.0,0.0,0.0,0.0,0.0,0.0,0.0,0.0,0.0,0.0,0.0,0.0,0.0,0.0,0.0,0.0,0.0,0.0,0.0,0.0,0.0,0.0,0.0,0.0,0.0,0.0,0.0,0.0,0.0,0.0,0.0,0.0,0.0,0.0,0.0,0.0,0.0,0.0,0.0,0.0,0.0,0.0,0.0,0.0,0.0,0.0,0.0,0.0,0.0,0.0,0.0,0.0,0.0,0.0,0.0,0.0,0.0,0.0,0.0,0.0,0.0,0.0,0.0,0.0,0.0,0.0,0.0,0.0,0.0,0.0,0.0,0.0,0.0,0.0,0.0,0.0,0.0,0.0,0.0,0.0,1.4156,1.4588,1.4707,1.4959,1.5296,1.4581,1.3997,0.0,0.0,0.0,0.0,0.0,0.0,0.0,0.0,0.0,0.0,0.0,0.0,0.0,0.0,0.0,0.0,0.0,0.0,0.0,0.0,0.0,0.0,0.0,0.0,0.0,0.0,0.0,0.0,0.0,0.0,0.0,0.0,0.0,0.0,0.0,0.0,0.0,0.0,0.0,0.0,0.0,0.0,0.0,0.0,0.0,0.0,0.0,0.0,0.0,0.0,0.0,0.0,0.0,0.0,0.0,0.0,0.0,0.0,0.0,0.0,0.0,0.0,0.0,0.0,0.0,0.0,0.0,0.0,0.0,0.0,0.0,0.0,0.0,0.0,0.0,0.0,0.0,0.0,0.0,0.0,0.0,0.0,0.0,0.0,0.0,0.0,0.0,0.0,0.0,0.0,0.0,0.0,0.0,0.0,0.0,0.0,0.0,0.0,0.0,0.0,0.0,0.0,0.0,0.0,0.0,0.0,0.0,0.0,1.3955,1.4661,1.4649,1.473,1.4905,1.4647,1.432,0.0,0.0,0.0,0.0,0.0,0.0,0.0,0.0,0.0,0.0,0.0,0.0,0.0,0.0,0.0,0.0,0.0,0.0,0.0,0.0,0.0,0.0,0.0,0.0,0.0,0.0,0.0,0.0,0.0,0.0,0.0,0.0,0.0,0.0,0.0,0.0,0.0,0.0,0.0,0.0,0.0,0.0,0.0,0.0,0.0,0.0,0.0,0.0,1.23,0.0,0.0,0.0,0.0,0.0,0.0,0.0,0.0,0.0,0.0,0.0,0.0,0.0,0.0,0.0,0.0,0.0,0.0,0.0,0.0,0.0,0.0,0.0,0.0,0.0,0.0,0.0,0.0,0.0,0.0,0.0,0.0,0.0,0.0,0.0,0.0,0.0,0.0,0.0,0.0,0.0,0.0,0.0,0.0,0.0,0.0,0.0,0.0,0.0,0.0,0.0,0.0,0.0,0.0,0.0,0.0,0.0,0.0,0.0,1.4225,1.4781,1.4807,1.4912,1.5146,1.4814,1.4359,0.0,0.0,0.0,0.0,0.0,0.0,0.0,0.0,0.0,0.0,0.0,0.0,0.0,0.0,0.0,0.0,0.0,0.0,0.0,0.0,0.0,0.0,0.0,0.0,0.0,0.0,0.0,0.0,0.0,0.0,0.0,0.0,0.0,0.0,0.0,0.0,0.0,0.0,0.0,0.0,0.0,0.0,0.0,0.0,0.0,0.0,0.0,0.0,0.0,0.0,0.0,0.0,0.0,0.0,0.0,0.0,0.0,0.0,0.0,0.0,0.0,0.0,0.0,0.0,0.0,0.0,0.0,0.0,0.0,0.0,0.0,0.0,0.0,0.0,0.0,0.0,0.0,0.0,0.0,0.0,0.0,0.0,0.0,0.0,0.0,0.0,0.0,0.0,0.0,0.0,0.0,0.0,0.0,0.0,0.0,0.0,0.0,0.0,0.0,0.0,0.0,0.0,0.0,0.0,0.0,0.0,0.0,1.4015,1.4618,1.4871,1.4926,1.5101,1.542,1.4808,1.4199,1.3625,0.0,0.0,0.0,0.0,0.0,0.0,0.0,0.0,0.0,0.0,0.0,0.0,0.0,0.0,0.0,0.0,0.0,0.0,0.0,0.0,0.0,0.0,0.0,0.0,0.0,0.0,0.0,0.0,0.0,0.0,0.0,0.0,0.0,0.0,0.0,0.0,0.0,0.0,1.0166,1.0517,0.0,0.0,0.0,0.0,0.0,0.0,0.0,0.0,1.1569,0.0,0.0,0.0,0.0,0.0,0.0,0.0,0.0,0.0,0.0,0.0,0.0,0.0,0.0,0.0,0.0,0.0,0.0,0.0,0.0,0.0,0.0,0.0,0.0,0.0,0.0,0.0,0.0,0.0,0.0,0.0,0.0,0.0,0.0,0.0,0.0,0.0,0.0,0.0,0.0,0.0,0.0,0.0,0.0,0.0,0.0,0.0,0.0,0.0,0.0,0.0,0.0,0.0,0.0,0.0,0.0,1.3404,1.4133,1.4645,1.4885,1.4803,1.4734,1.4748,1.4227,1.3826,1.3617,0.0,0.0,0.0,0.0,0.0,0.0,0.0,0.0,0.0,0.0,0.0,0.0,0.0,0.0,0.0,0.0,0.0,0.0,0.0,0.0,0.0,0.0,0.0,0.0,0.0,0.0,0.0,0.0,0.0,0.0,0.0,0.0,0.0,0.0,0.0,0.0,0.0,0.0,0.0,1.0341,1.05,0.0,0.0,0.0,0.0,0.0,0.0,0.0,0.0,1.0939,0.0,0.0,0.0,0.0,0.0,0.0,0.0,0.0,0.0,0.0,0.0,0.0,0.0,0.0,0.0,0.0,0.0,0.0,0.0,0.0,0.0,0.0,0.0,0.0,0.0,0.0,0.0,0.0,0.0,0.0,0.0,0.0,0.0,0.0,0.0,0.0,0.0,0.0,0.0,0.0,0.0,0.0,0.0,0.0,0.0,0.0,0.0,0.0,0.0,0.0,0.0,0.0,0.0,0.0,0.0,1.3514,1.4296,1.4767,1.4885,1.4875,1.4778,1.4606,1.419,1.3839,0.0,0.0,0.0,0.0,0.0,0.0,0.0,0.0,0.0,0.0,0.0,0.0,0.0,0.0,0.0,0.0,0.0,0.0,0.0,0.0,0.0,0.0,0.0,0.0,0.0,0.0,0.0,0.0,0.0,0.0,0.0,0.0,0.0,0.0,0.0,0.0,0.0,0.0,0.0,0.0,1.0205,1.0299,1.0328,0.0,0.0,0.0,0.0,0.0,0.0,1.0489,1.0506,0.0,0.0,0.0,0.0,0.0,0.0,0.0,0.0,0.0,0.0,0.0,0.0,0.0,0.0,0.0,0.0,0.0,0.0,0.0,0.0,0.0,0.0,0.0,0.0,0.0,0.0,0.0,0.0,0.0,0.0,0.0,0.0,0.0,0.0,0.0,0.0,0.0,0.0,0.0,0.0,0.0,0.0,0.0,0.0,0.0,0.0,0.0,0.0,0.0,0.0,0.0,0.0,0.0,0.0,0.0,1.3627,1.4467,1.49,1.4885,1.4894,1.4808,1.4598,1.4145,1.3802,0.0,0.0,0.0,0.0,0.0,0.0,0.0,0.0,0.0,0.0,0.0,0.0,0.0,0.0,0.0,0.0,0.0,0.0,0.0,0.0,0.0,0.0,0.0,0.0,0.0,0.0,0.0,0.0,0.0,0.0,0.0,0.0,0.0,0.0,0.0,0.0,0.0,0.0,0.0,0.0,0.0,1.015,0.9986,1.0135,0.0,0.0,0.0,0.0,0.989,1.0116,0.0,0.0,0.0,0.0,0.0,0.0,0.0,0.0,0.0,0.0,0.0,0.0,0.0,0.0,0.0,0.0,0.0,0.0,0.0,0.0,0.0,0.0,0.0,0.0,0.0,0.0,0.0,0.0,0.0,0.0,0.0,0.0,0.0,0.0,0.0,0.0,0.0,0.0,0.0,0.0,0.0,0.0,0.0,0.0,0.0,0.0,0.0,0.0,0.0,0.0,0.0,0.0,0.0,0.0,0.0,0.0,1.3942,1.4577,1.49,1.4885,1.4673,1.4574,1.458,1.3647,1.328,0.0,0.0,0.0,0.0,0.0,0.0,0.0,0.0,0.0,0.0,0.0,0.0,0.0,0.0,0.0,0.0,0.0,0.0,0.0,0.0,0.0,0.0,0.0,0.0,0.0,0.0,0.0,0.0,0.0,0.0,0.0,0.0,0.0,0.0,0.0,0.0,0.0,0.0,0.0,0.0,0.0,0.9899,0.9837,1.0043,1.0117,0.0,0.0,0.9751,0.9592,0.9931,0.0,0.0,0.0,0.0,0.0,0.0,0.0,0.0,0.0,0.0,0.0,0.0,0.0,0.0,0.0,0.0,0.0,0.0,0.0,0.0,0.0,0.0,0.0,0.0,0.0,0.0,0.0,0.0,0.0,0.0,0.0,0.0,0.0,0.0,0.0,0.0,0.0,0.0,0.0,0.0,0.0,0.0,0.0,0.0,0.0,0.0,0.0,0.0,0.0,0.0,0.0,0.0,0.0,0.0,0.0,1.3426,1.3744,1.4679,1.511,1.49,1.4712,1.4562,1.4441,1.3599,1.3249,0.0,0.0,0.0,0.0,0.0,0.0,0.0,0.0,0.0,0.0,0.0,0.0,0.0,0.0,0.0,0.0,0.0,0.0,0.0,0.0,0.0,0.0,0.0,0.0,0.0,0.0,0.0,0.0,0.0,0.0,0.0,0.0,0.0,0.0,0.0,0.0,0.0,0.0,0.0,0.0,0.0,0.0,0.9818,1.0,0.0,0.0,0.0,0.976,0.9704,0.0,0.0,0.0,0.0,0.0,0.0,0.0,0.0,0.0,0.0,0.0,0.0,0.0,0.0,0.0,0.0,0.0,0.0,0.0,0.0,0.0,0.0,0.0,0.0,0.0,0.0,0.0,0.0,0.0,0.0,0.0,0.0,0.0,0.0,0.0,0.0,0.0,0.0,0.0,0.0,0.0,0.0,0.0,0.0,0.0,0.0,0.0,0.0,0.0,0.0,0.0,0.0,0.0,0.0,0.0,0.0,0.0,1.3755,1.4832,1.5272,1.5031,1.483,1.463,1.4391,1.3742,0.0,0.0,0.0,0.0,0.0,0.0,0.0,0.0,0.0,0.0,0.0,0.0,0.0,0.0,0.0,0.0,0.0,0.0,0.0,0.0,0.0,0.0,0.0,0.0,0.0,0.0,0.0,0.9867,0.0,0.0,0.0,0.0,0.0,0.0,0.0,0.0,0.0,0.0,0.0,0.0,0.0,0.0,0.9949,0.9778,0.9914,1.0005,0.0,0.0,0.9725,0.9729,0.9828,0.9897,0.0,0.0,0.0,0.0,0.0,0.0,0.0,0.0,0.0,0.0,0.0,0.0,0.0,0.0,0.0,0.0,0.0,0.0,0.0,0.0,0.0,0.0,0.0,0.0,0.0,0.0,0.0,0.0,0.0,0.0,0.0,0.0,0.0,0.0,0.0,0.0,0.0,0.0,0.0,0.0,0.0,0.0,0.0,0.0,0.0,0.0,0.0,0.0,0.0,0.0,0.0,0.0,0.0,0.0,0.0,1.4445,1.5079,1.5395,1.5366,1.5059,1.4817,1.4669,1.4026,1.3494,0.0,0.0,0.0,0.0,0.0,0.0,0.0,0.0,0.0,0.0,0.0,0.0,0.0,0.0,0.0,0.0,0.0,0.0,0.0,0.0,0.0,0.0,0.0,0.0,0.0,0.0,0.0,0.0,0.0,0.0,0.0,0.0,0.0,0.0,0.0,0.0,0.0,0.0,0.0,0.0,0.0,0.9771,0.9616,0.9821,0.9899,0.0,0.0,0.9555,0.9436,0.9757,0.9874,0.9499,0.0,0.0,0.0,0.0,0.0,0.0,0.0,0.0,0.0,0.0,0.0,0.0,0.0,0.0,0.0,0.0,0.0,0.0,0.0,0.0,0.0,0.0,0.0,0.0,0.0,0.0,0.0,0.0,0.0,0.0,0.0,0.0,0.0,0.0,0.0,0.0,0.0,0.0,0.0,0.0,0.0,0.0,0.0,0.0,0.0,0.0,0.0,0.0,0.0,0.0,0.0,0.0,0.0,1.3814,1.4504,1.5081,1.5497,1.568,1.5191,1.4862,1.4825,1.4081,1.3555,0.0,0.0,0.0,0.0,0.0,0.0,0.0,0.0,0.0,0.0,0.0,0.0,0.0,0.0,0.0,0.0,0.0,0.0,0.0,0.0,0.0,0.0,0.0,0.0,0.0,0.0,0.0,0.0,0.9805,0.9827,0.9729,0.0,0.0,0.0,0.0,0.0,0.0,0.0,0.0,0.0,0.0,0.9645,0.9616,0.9677,0.0,0.0,0.9599,0.9579,0.9535,0.9676,0.9771,0.9603,0.9766,0.0,0.0,0.0,0.0,0.0,0.0,0.0,0.0,0.0,0.0,0.0,0.0,0.0,0.0,0.0,0.0,0.0,0.0,0.0,0.0,0.0,0.0,0.0,0.0,0.0,0.0,0.0,0.0,0.0,0.0,0.0,0.0,0.0,0.0,0.0,0.0,0.0,0.0,0.0,0.0,0.0,0.0,0.0,0.0,0.0,0.0,0.0,0.0,0.0,0.0,0.0,0.0,1.4106,1.475,1.5292,1.5665,1.5892,1.533,1.4995,1.4885,1.434,1.383,0.0,0.0,0.0,0.0,0.0,0.0,0.0,0.0,0.0,0.0,0.0,0.0,0.0,0.0,0.0,0.0,0.0,0.0,0.0,0.0,0.0,0.0,0.0,0.0,0.0,0.0,0.0,0.0,1.0096,1.0156,1.0255,0.0,0.0,0.0,0.0,0.0,0.0,0.0,0.0,0.0,0.0,0.9664,0.9611,0.9599,0.9599,0.9599,0.9599,0.9599,0.9599,0.9706,0.9774,0.975,0.0,0.0,0.0,0.0,0.0,0.0,0.0,0.0,0.0,0.0,0.0,0.0,0.0,0.0,0.0,0.0,0.0,0.0,0.0,0.0,0.0,0.0,0.0,0.0,0.0,0.0,0.0,0.0,0.0,0.0,1.1601,0.0,0.0,0.0,0.0,0.0,0.0,0.0,0.0,0.0,0.0,0.0,0.0,0.0,0.0,0.0,0.0,0.0,0.0,0.0,0.0,0.0,0.0,1.4757,1.538,1.5709,1.5885,1.5892,1.557,1.5249,1.4922,1.4871,1.4438,1.3532,0.0,0.0,0.0,0.0,0.0,0.0,0.0,0.0,0.0,0.0,0.0,0.0,0.0,0.0,0.0,0.0,0.0,0.0,0.0,0.0,0.0,0.0,0.0,0.0,0.0,0.0,1.0588,1.0574,1.065,0.0,0.0,0.0,0.0,0.0,0.0,0.0,0.0,0.0,0.0,0.977,0.9823,0.9632,0.9607,0.962,0.9636,0.9611,0.9607,0.9616,0.977,0.9876,0.0,0.0,0.0,0.0,0.0,0.0,0.0,0.0,0.0,0.0,0.0,0.0,0.0,0.0,0.0,0.0,0.0,0.0,0.0,0.0,0.0,0.0,0.0,0.0,0.0,0.0,0.0,1.3323,1.2995,0.0,0.0,0.0,0.0,0.0,0.0,0.0,0.0,0.0,0.0,0.0,1.2555,1.2772,0.0,0.0,0.0,0.0,0.0,0.0,0.0,0.0,0.0,0.0,0.0,0.0,1.4958,1.5695,1.606,1.6243,1.6228,1.5913,1.5578,1.5236,1.5017,1.4569,1.3862,0.0,0.0,0.0,0.0,0.0,0.0,0.0,0.0,0.0,0.0,0.0,0.0,0.0,0.0,0.0,0.0,0.0,0.0,0.0,0.0,0.0,0.0,0.0,0.0,0.0,1.1029,0.0,0.0,0.0,0.0,0.0,0.0,0.0,0.0,0.0,0.0,0.0,1.0385,1.0041,1.006,1.0076,0.9989,1.0007,1.0011,0.0,0.0,0.0,0.0,0.0,0.0,0.0,0.0,0.0,0.0,0.0,0.0,0.0,0.0,1.1594,1.1008,1.09,1.0797,1.0466,0.0,0.0,0.0,0.0,0.0,0.0,0.0,0.0,0.0,0.0,0.0,0.0,0.0,0.0,1.2948,0.0,1.2187,0.0,0.0,0.0,0.0,0.0,0.0,0.0,0.0,1.3074,1.2955,1.2298,1.2444,1.2362,0.0,1.1896,1.1773,0.0,0.0,0.0,0.0,0.0,0.0,0.0,0.0,1.5468,1.6228,1.6455,1.6536,1.6382,1.6074,1.5739,1.5417,1.5075,1.4672,1.4191,1.3321,1.2632,0.0,0.0,0.0,0.0,0.0,0.0,0.0,0.0,0.0,0.0,0.0,0.0,0.0,0.0,0.0,0.0,0.0,0.0,0.0,0.0,0.0,0.0,0.0,1.1066,0.0,0.0,0.0,0.0,0.0,0.0,0.0,0.0,0.0,1.0505,1.0498,1.0464,1.0284,1.0257,1.0263,1.0224,0.0,0.0,0.0,0.0,0.0,0.0,0.0,1.0498,1.0471,1.059,1.0681,1.0681,1.1043,1.1358,1.1428,0.0,0.0,1.1298,1.1155,1.1011,1.0671,1.0612,1.0617,1.0664,1.0446,1.0296,0.0,0.0,0.0,0.0,0.0,0.0,0.0,0.0,1.221,1.1793,0.0,1.1292,0.0,0.0,0.0,0.0,0.0,0.0,0.0,0.0,1.3537,1.3374,1.1981,1.2643,1.2379,1.1263,1.1467,1.1494,1.1321,1.142,0.0,0.0,0.0,0.0,0.0,0.0,1.6304,1.6851,1.688,1.6763,1.6411,1.6104,1.5775,1.5461,1.5147,1.482,1.4479,1.3373,1.2488,1.192,1.0966,0.0,0.0,0.0,0.0,0.0,0.0,0.0,0.0,0.0,0.0,0.0,0.0,0.0,0.0,0.0,0.0,0.0,0.0,0.0,0.0,1.091,0.0,0.0,0.0,0.0,0.0,0.0,0.0,0.0,0.0,0.0,1.0901,1.0607,1.0434,1.0438,0.0,0.0,0.0,0.0,1.0438,1.0438,1.0603,1.0736,1.0708,1.0882,1.1,1.0996,0.0,0.0,1.1236,1.1207,1.1301,1.1501,1.1534,1.1574,1.1766,1.1584,1.1384,1.1197,1.0857,1.067,1.0752,1.0514,1.0294,1.3324,0.0,0.0,0.0,0.0,1.2289,1.2318,1.2527,1.2207,1.1898,1.1621,1.1351,0.0,0.0,0.0,0.0,0.0,0.0,1.1913,1.1802,1.2384,1.2202,1.14,1.1653,1.1551,1.1206,1.1279,1.1269,1.1231,1.1277,1.1755,1.2647,0.0,0.0,0.0,0.0,1.6188,1.6857,1.71,1.704,1.6763,1.6653,1.6455,1.6125,1.6009,1.5555,1.4739,1.4874,1.4066,1.2229,1.2053,0.0,0.0,0.0,0.0,0.0,0.0,0.0,0.0,0.0,0.0,0.0,0.0,0.0,0.0,0.0,0.0,0.0,0.0,0.0,1.1094,1.125,1.1395,0.0,0.0,0.0,0.0,0.0,0.0,0.0,0.0,0.0,1.1682,1.1248,1.0968,0.0,0.0,1.0952,1.0928,1.0936,1.0968,1.0968,0.0,0.0,0.0,1.1086,1.1147,1.1151,1.1301,1.1464,1.1623,1.1618,1.1634,1.1721,1.1725,1.1718,1.1769,1.1512,1.1247,1.1097,1.0859,1.0666,1.0707,1.0624,1.0581,1.2021,1.1987,1.2204,1.2248,1.2148,1.175,1.173,1.1959,1.1585,1.1339,1.1196,1.0975,1.0641,1.0314,1.029,0.0,0.0,0.0,1.1678,1.1683,1.1835,1.1739,1.1439,1.1444,1.1439,1.1444,1.1444,1.1444,1.1444,1.1444,1.186,1.2651,0.0,0.0,1.5146,1.5911,1.6332,1.6487,1.7014,1.7156,1.691,1.6771,1.6587,1.6396,1.6308,1.5762,1.4731,1.4646,1.3758,1.1884,1.1565,1.0952,0.0,0.0,0.0,0.0,0.0,0.0,0.0,0.0,0.0,0.0,0.0,1.0251,1.0517,0.0,0.0,0.0,1.1094,1.126,1.1543,1.1664,0.0,0.0,0.0,0.0,0.0,0.0,0.0,1.284,1.2802,1.2734,1.261,1.2307,1.1895,1.1391,1.124,1.1191,1.1191,0.0,1.13,1.1305,1.1395,1.1443,1.1443,1.1443,1.1439,1.1443,1.1529,1.1638,1.1778,1.1806,1.1806,1.1806,1.1806,1.1806,1.1806,1.1533,1.1305,1.1224,1.1,1.081,1.0829,1.0772,1.0719,1.0764,1.081,1.1676,1.2153,1.2279,1.1288,1.1154,1.1525,1.0624,1.0355,1.0551,1.0342,1.0369,1.0655,1.0889,0.0,1.1429,1.1636,1.1782,1.1817,1.1817,1.1817,1.1817,1.1813,1.1817,1.1813,1.1817,1.1817,1.1813,1.1813,1.2101,1.2684,1.3487,1.4262,1.5029,1.6305,1.6605,1.594,1.6826,1.7163,1.6939,1.6616,1.6448,1.6433,1.621,1.56,1.4572,1.3492,1.2374,1.132,1.0241,0.9539,0.9266,0.0,0.0,0.0,0.0,0.0,0.0,0.0,0.0,0.0,0.0,0.0,0.0,0.0,0.0,0.0,1.1458,0.0,1.2145,1.2202,0.0,0.0,0.0,1.315,1.3169,1.3515,1.3721,1.3736,0.0,0.0,1.3537,0.0,1.2978,1.1784,1.1453,1.1281,1.1269,1.1419,1.152,1.152,1.1663,1.1798,1.177,1.1774,1.177,1.177,1.1806,1.1798,1.1806,1.1806,1.1806,1.1806,1.1806,1.1806,1.1806,1.1664,1.152,1.1512,1.1232,1.1017,1.1008,1.0899,1.0761,1.1066,1.1086,1.1311,1.1309,1.1103,1.086,1.0727,1.069,1.0447,1.0343,1.0316,1.0447,1.0655,1.091,1.0962,1.1144,1.1403,1.1455,1.161,1.1817,1.1817,1.1817,1.1817,1.1817,1.1817,1.1817,1.1817,1.1817,1.1817,1.1817,1.2277,1.3192,1.3614,1.4215,1.5003,1.6123,1.6713,1.6706,1.7099,1.7266,1.7223,1.7135,1.7014,1.6859,1.6773,1.6209,1.5012,1.463,1.3637,1.1905,1.1365,1.0735,0.9921,0.9415,0.0,0.0,0.0,0.0,0.0,0.0,0.0,0.0,0.0,1.0858,1.1104,0.0,1.1453,0.0,1.198,1.2362,1.281,1.2994,0.0,0.0,1.348,1.3638,1.3769,1.3873,1.3991,1.4147,1.4146,1.4018,1.3769,1.3712,1.3452,1.2734,1.2417,1.2129,1.1731,1.1709,1.1741,1.1711,1.1774,1.1806,1.1806,1.1806,1.1806,1.1806,1.1806,1.1806,1.1806,1.1806,1.1806,1.1806,1.1806,1.1806,1.1837,1.1766,1.1741,1.1721,1.1419,1.1134,1.1159,1.1122,1.1029,1.1191,1.1191,1.1191,1.1078,1.0923,1.0846,1.0716,1.055,1.0523,1.0547,1.0609,1.0924,1.1194,1.146,1.1429,1.1588,1.1858,1.1858,1.1937,1.2043,1.207,1.207,1.207,1.207,1.207,1.207,1.2065,1.207,1.207,1.207,1.2382,1.2952,1.3481,1.3925,1.4295,1.5683,1.6337,1.6145,1.6824,1.72,1.7309,1.7309,1.7223,1.7003,1.6878,1.6109,1.4627,1.4304,1.3264,1.1385,1.1027,1.0616,1.0008,0.9657,0.9491,0.0,0.0,0.0,0.0,0.0,0.0,0.0,0.0,0.0,0.0,0.0,1.1933,1.2342,1.2753,1.3126,1.3457,1.3674,1.3844,1.3953,1.4021,1.4156,1.4248,1.4337,1.4463,1.4545,1.4554,1.449,1.4331,1.4294,1.4098,1.3555,1.3265,1.286,1.2124,1.1893,1.1806,1.1806,1.1806,1.1806,1.1806,1.1806,1.1806,1.1806,1.1806,1.1806,1.1806,1.1806,1.1837,1.1949,1.1975,1.2036,1.216,1.2066,1.1975,1.195,1.1784,1.1594,1.1358,1.1252,1.1187,1.1264,1.1293,1.1264,1.1281,1.1306,1.1155,1.1016,1.0816,1.0844,1.1009,1.1308,1.1615,1.1886,1.2137,1.2133,1.227,1.2494,1.2494,1.2494,1.2489,1.2466,1.2451,1.2456,1.2428,1.2382,1.2382,1.2382,1.2382,1.2382,1.2382,1.2382,1.2432,1.3214,1.3488,1.3388,1.5003,1.564,1.5159,1.6303,1.6982,1.7126,1.723,1.7145,1.6902,1.6643,1.573,1.4076,1.339,1.2296,1.0752,1.0265,0.9992,0.9902,0.9848,0.989,0.0,1.0137,0.0,0.0,0.0,0.0,0.0,0.0,0.0,0.0,1.2367,1.256,1.3207,1.3556,1.3868,1.4109,1.4253,1.4388,1.4392,1.4526,1.4639,1.4649,1.4795,1.4903,1.4903,1.4903,1.4903,1.4884,1.4903,1.4725,1.4217,1.392,1.3448,1.2569,1.2147,1.1953,1.1863,1.1806,1.1806,1.1806,1.1806,1.1837,1.1833,1.1837,1.1837,1.1863,1.1863,1.1919,1.2118,1.2238,1.2354,1.2629,1.2449,1.2264,1.2268,1.2247,1.2102,1.1735,1.1574,1.1376,1.1671,1.1701,1.1675,1.1734,1.1858,1.1825,1.1703,1.1522,1.1493,1.1806,1.2294,1.2379,1.2578,1.289,1.289,1.2918,1.2975,1.2947,1.298,1.297,1.2809,1.2706,1.2696,1.2494,1.2382,1.2382,1.2382,1.2382,1.2382,1.2382,1.2382,1.2414,1.2832,1.3141,1.3315,0.0,0.0,0.0,1.5928,1.6294,1.6353,1.6809,1.6831,1.6362,1.6109,0.0,1.4568,1.3414,1.2543,1.2029,1.0924,0.0,0.0,0.0,0.0,0.0,0.0,0.0,0.0,0.0,0.0,0.0,1.2571,1.2785,1.2752,1.3126,1.3584,1.4029,1.4147,1.4345,1.4691,1.4757,1.4781,1.4785,1.4818,1.4842,1.4842,1.488,1.4903,1.4903,1.4903,1.4903,1.4903,1.4903,1.4795,1.4547,1.4244,1.383,1.3334,1.2842,1.2427,1.2182,1.1979,1.1837,1.1806,1.1837,1.1923,1.2036,1.1919,1.1923,1.2062,1.2122,1.2122,1.2238,1.2414,1.2629,1.2724,1.2629,1.2599,1.2599,1.2599,1.2496,1.2162,1.2243,1.2387,1.1994,0.0,1.2047,1.2132,0.0,1.2341,1.2378,1.2416,1.2083,1.2201,1.2602,1.2779,1.295,1.3093,1.3093,1.3093,1.3093,1.3093,1.3093,1.3093,1.2989,1.2942,1.2937,1.2701,1.2602,1.2597,1.2466,1.2382,1.2382,1.2382,1.2382,1.2382,1.2577,1.2713,1.2849,1.3006,1.3935,1.5727,1.6012,1.6491,1.7162,1.7485,1.7182,1.6239,0.0,0.0,0.0,0.0,0.0,0.0,0.0,0.0,0.0,0.0,0.0,1.1265,1.1395,1.1583,1.1922,1.2358,1.2627,1.2744,1.3238,1.3447,1.3268,1.3887,1.4314,1.4427,1.4558,1.4672,1.487,1.4903,1.4903,1.4903,1.4903,1.4903,1.4903,1.4903,1.4903,1.4903,1.4903,1.4903,1.4903,1.4903,1.4861,1.4762,1.4529,1.4271,1.4022,1.3361,1.2751,1.25,1.2333,1.2251,1.2251,1.2251,1.2277,1.2389,1.2333,1.2307,1.2419,1.2449,1.2479,1.2659,1.284,1.299,1.3144,1.3084,1.2964,1.293,1.293,1.2904,1.2719,1.2719,1.2697,1.2417,1.2652,1.246,1.2608,1.2911,1.285,1.2995,1.3246,0.0,0.0,0.0,1.3092,1.3207,1.3202,1.3207,1.3207,1.3207,1.3207,1.3207,1.3202,1.3169,1.315,1.3141,1.2942,1.2847,1.2842,1.2607,1.2522,1.2522,1.2522,1.2522,1.2522,1.2522,1.2522,1.2522,1.2703,1.3917,1.6062,1.5929,1.6301,1.745,1.7576,1.7043,1.5853,1.5637,1.4834,1.3408,1.2917,1.2425,1.1911,1.1648,1.151,1.1541,1.1568,1.1788,1.218,1.2376,1.2611,1.289,1.306,1.3188,1.3254,1.3783,1.4043,1.3868,1.4484,1.4832,1.4667,1.4804,1.4898,1.4903,1.4903,1.4903,1.4903,1.4903,1.4903,1.4903,1.4903,1.4903,1.4903,1.4903,1.4903,1.4903,1.4903,1.4903,1.488,1.4729,1.463,1.4495,1.3716,1.3044,1.2916,1.2733,1.2659,1.2689,1.2659,1.2719,1.2754,1.2719,1.2719,1.2779,1.2779,1.2904,1.308,1.3234,1.3384,1.3599,1.3444,1.3294,1.3294,1.3264,1.3299,1.3269,1.3054,1.293,1.3228,1.326,1.3167,1.3345,1.3643,1.3449,1.349,1.3629,1.3533,1.3514,1.3544,1.3569,1.3628,1.3628,1.3633,1.3599,1.3603,1.3603,1.3603,0.0,1.3453,1.3343,1.3334,1.3155,1.3051,1.3051,1.3018,1.3008,1.3008,1.2999,1.3008,1.3003,1.3008,1.3003,1.3051,1.3795,1.4866,1.6145,1.4781,1.4147,1.4356,1.4789,1.4823,1.4437,1.4236,1.3773,1.308,1.2777,1.2453,1.2158,1.2045,1.2017,1.2021,1.2181,1.2396,1.2691,1.2733,1.2918,1.3268,1.3358,1.3499,1.3859,1.4262,1.4498,1.4484,1.4729,1.4889,1.4856,1.488,1.4903,1.4903,1.4903,1.4903,1.4903,1.4903,1.4903,1.4903,1.4903,1.4903,1.4903,1.4903,1.4913,1.4917,1.4913,1.4917,1.4908,1.4884,1.4804,1.4556,1.3931,1.3471,1.3333,1.2981,1.2733,1.2797,1.2724,1.2874,1.3084,1.2904,1.2874,1.3084,1.311,1.3144,1.3204,1.3419,1.3599,1.3688,1.3688,1.3599,1.3599,1.3599,1.3599,1.3599,1.3534,1.3504,1.3625,1.3766,1.3631,1.3775,1.4048,1.3959,1.3964,1.4019,1.3906,1.3797,1.3693,1.3688,1.3688,1.3688,1.3688,1.3688,1.3688,1.3688,1.3688,1.3693,1.3717,1.3726,1.3717,1.3627,1.358,1.3566,1.3373,1.3268,1.3264,1.3155,1.3093,1.3093,1.3093,1.3093,1.3117,1.3527,1.3979,1.4501,1.4775,1.5185,1.5771,1.5467,1.4975,1.4359,1.4117,1.3731,1.3088,1.2849,1.2682,1.2679,1.2643,1.2644,1.2644,1.2729,1.2876,1.3117,1.324,1.3434,1.3707,1.383,1.4019,1.429,1.4488,1.4649,1.4757,1.4847,1.4898,1.4903,1.4903,1.4903,1.4903,1.4903,1.4903,1.4903,1.4903,1.4903,1.4903,1.4903,1.4903,1.4913,1.4997,1.5059,1.5059,1.5063,1.5063,1.5063,1.5063,1.5021,1.4931,1.4576,1.4168,1.3955,1.3628,1.3422,1.3399,1.3303,1.3338,1.3479,1.3359,1.3329,1.3444,1.3474,1.3474,1.3474,1.3629,1.3688,1.3688,1.3688,1.3688,1.3688,1.3688,1.3688,1.3688,1.3688,1.3688,1.4051,1.4258,1.4107,1.4168,1.4352,1.4352,1.4323,1.4298,1.4142,1.3986,1.383,1.3736,1.3712,1.3759,1.3759,1.3788,1.3825,1.383,1.383,1.3849,1.4,1.4081,1.4081,1.4076,1.4081,1.4073,1.3895,1.3772,1.36,1.3557,1.3423,1.3269,1.3235,1.3235,1.3235,1.3442,1.3533,1.3651,1.4939,1.6096,1.6908,1.5881,1.5024,1.4612,1.4175,1.3679,1.3122,1.2946,1.2932,1.3084,1.3141,1.3169,1.3169,1.3259,1.3387,1.3528,1.3721,1.3901,1.4036,1.427,1.4422,1.4583,1.4644,1.4738,1.4875,1.4903,1.4903,1.4903,1.4903,1.4903,1.4903,1.4903,1.4917,1.496,1.4964,1.5007,1.5035,1.5073,1.5045,1.5059,1.5215,1.5309,1.5276,1.5276,1.5309,1.5309,1.5233,1.521,1.5271,1.5167,1.4903,1.4648,1.4281,1.4033,1.4066,1.3927,1.3833,1.383,1.3767,1.3762,1.3769,1.3736,1.3688,1.3688,1.3688,1.3688,1.3688,1.3688,1.3688,1.3688,1.3688,1.3688,1.3688,1.3688,1.3688,1.4772,1.4805,1.4767,1.4706,1.4578,1.4573,1.4465,1.4331,1.4257,1.4274,1.4182,1.3859,1.3811,1.3967,1.3951,1.404,1.4227,1.4251,1.4272,1.4268,1.4274,1.4284,1.4346,1.4315,1.4284,1.4409,1.4844,1.4804,1.4335,1.4638,1.445,1.374,1.3662,1.3682,1.3757,1.4483,1.4898,1.4921,1.4906,1.4968,1.5047,1.3958,1.3827,1.4821,1.3775,1.3169,1.3131,1.3079,1.3112,1.3107,1.3302,1.3367,1.34,1.3712,1.3929,1.3958,1.4137,1.4265,1.4298,1.4451,1.4583,1.4611,1.4771,1.487,1.4898,1.4903,1.4903,1.4903,1.4903,1.4903,1.4903,1.4903,1.4974,1.5125,1.5148,1.5281,1.5466,1.5537,1.5537,1.5537,1.5532,1.556,1.5565,1.5565,1.556,1.5527,1.549,1.5495,1.5658,1.5735,1.5702,1.5457,1.4887,1.4395,1.4334,1.4274,1.4199,1.4172,1.409,1.4005,1.3953,1.3844,1.3698,1.3755,1.3717,1.3721,1.3693,1.3688,1.3688,1.3688,1.3688,1.3688,1.3688,1.3688,1.3688,1.4903,1.4903,1.4903,1.4856,1.4781,1.4776,1.4729,1.4639,1.4553,1.4469,1.4432,1.4189,1.4109,1.4185,1.4158,1.4232,1.4307,1.4714,1.4901,1.4942,1.5443,1.573,1.5735,1.5831,1.5888,1.5904,1.6076,1.5977,1.5778,1.581,1.5642,1.5299,1.5145,1.5048,1.5093,1.5268,1.52,1.4812,1.4724,1.4882,1.5072,1.3874,1.338,1.3866,1.3543,1.3415,1.3594,1.3627,1.3679,1.3797,1.3887,1.3934,1.3934,1.4099,1.4189,1.4199,1.4356,1.4521,1.4639,1.4729,1.4781,1.4781,1.4851,1.4903,1.4903,1.4903,1.4903,1.4903,1.4903,1.4903,1.4903,1.4903,1.4979,1.5153,1.52,1.5323,1.557,1.5598,1.5598,1.5603,1.5702,1.5803,1.5769,1.5769,1.5721,1.5714,1.5929,1.6313,1.6441,1.6799,1.7073,1.7017,1.666,1.5856,1.5023,1.4444,1.4391,1.4312,1.4246,1.4189,1.4247,1.4137,1.4029,1.3967,1.4018,1.3926,1.3703,1.3693,1.3688,1.3758,1.3723,1.3688,1.3688,1.3688,1.3688,1.4903,1.4903,1.4903,1.4903,1.4903,1.4903,1.4996,1.5173,1.5034,1.51,1.5241,1.5116,1.5047,1.501,1.4804,1.4799,1.5074,1.5547,1.5767,1.5846,1.6488,1.6785,1.6812,1.692,1.7001,1.7012,1.7026,1.7039,1.6936,1.6615,1.6459,1.6373,1.6216,1.6104,1.6088,1.5926,1.5574,1.5143,1.5077,1.5323,1.5576,1.4444,1.3805,1.3967,1.371,1.3707,1.3996,1.4066,1.4161,1.4267,1.4312,1.4312,1.4317,1.4333,1.4426,1.4451,1.4592,1.4743,1.4894,1.4903,1.4996,1.516,1.5192,1.529,1.5421,1.5481,1.5481,1.5513,1.5481,1.55,1.5307,1.5307,1.5484,1.5893,1.6009,1.6098,1.6382,1.6373,1.6422,1.6387,1.6664,1.6604,1.6589,1.6585,1.657,1.6569,1.6938,1.7346,1.7417,1.7813,1.8124,1.8182,1.7959,1.7288,1.5985,1.5639,1.5285,1.5216,1.5327,1.5225,1.5064,1.5049,1.5011,1.5262,1.4902,1.473,1.4846,1.463,1.4364,1.43,1.423,1.409,1.4022,1.3873,1.3723,1.4903,1.4903,1.4903,1.4931,1.4903,1.4964,1.535,1.5936,1.5954,1.6273,1.6748,1.6759,1.6834,1.677,1.6031,1.6094,1.6749,1.684,1.6894,1.6899,1.7028,1.7017,1.699,1.7001,1.7034,1.7233,1.7716,1.7853,1.7633,1.7036,1.6585,1.6473,1.6513,1.6435,1.6491,1.6458,1.6376,1.6277,1.6241,1.6298,1.6242,1.5561,1.5237,1.5317,1.4499,1.396,1.4052,1.4172,1.4312,1.4322,1.434,1.4331,1.4309,1.4511,1.4732,1.4893,1.4935,1.4945,1.4996,1.5034,1.5257,1.5811,1.5941,1.6196,1.665,1.6715,1.671,1.6839,1.6715,1.6627,1.645,1.6323,1.6701,1.7609,1.7831,1.7927,1.8151,1.7996,1.8234,1.8138,1.8033,1.7968,1.8159,1.8127,1.7954,1.7996,1.8087,1.8113,1.8309,1.8404,1.8543,1.854,1.8358,1.7999,1.7716,1.7153,1.7251,1.7133,1.6658,1.678,1.6867,1.6818,1.6684,1.6566,1.6403,1.6281,1.6288,1.6148,1.5929,1.5671,1.5197,1.4978,1.4726,1.4111,1.4031,1.4903,1.4931,1.5421,1.5616,1.5649,1.6066,1.6386,1.6618,1.665,1.6775,1.6974,1.7001,1.7233,1.7641,1.7306,1.7087,1.7066,1.7453,1.7653,1.7679,1.8136,1.8328,1.8328,1.8328,1.8328,1.8393,1.8585,1.8672,1.8595,1.8328,1.8218,1.8107,1.795,1.7875,1.7851,1.7717,1.7414,1.7002,1.6971,1.6786,1.6467,1.6141,1.605,1.6023,1.4862,1.4238,1.4407,1.4451,1.4545,1.4672,1.4677,1.4677,1.4714,1.52,1.5721,1.6181,1.6229,1.6261,1.6224,1.6256,1.6326,1.6586,1.6618,1.6748,1.6942,1.7001,1.7001,1.7001,1.7001,1.7163,1.7691,1.742,1.7317,1.7925,1.8107,1.8268,1.8342,1.8412,1.8412,1.8412,1.8412,1.8412,1.85,1.8336,1.832,1.8414,1.872,1.8998,1.9182,1.9506,1.9785,1.9843,1.9814,1.9726,1.9663,1.8422,1.7779,1.7752,1.7578,1.7514,1.7537,1.7642,1.7522,1.7456,1.7461,1.74,1.7239,1.6937,1.6838,1.6507,1.605,1.5805,1.5533,1.5145,1.512,1.5578,1.5644,1.6099,1.6326,1.6391,1.6807,1.7136,1.7292,1.733,1.7453,1.7647,1.7685,1.7937,1.8296,1.8361,1.8103,1.7749,1.8168,1.8361,1.8387,1.888,1.9104,1.9104,1.9104,1.9104,1.9104,1.9104,1.9104,1.9104,1.9104,1.9104,1.9048,1.8923,1.8813,1.8808,1.8632,1.8323,1.7931,1.79,1.765,1.728,1.703,1.6936,1.6742,1.5772,1.5206,1.5273,1.5332,1.5426,1.5559,1.5578,1.5578,1.5649,1.6034,1.6521,1.6942,1.6969,1.7001,1.7001,1.7001,1.7104,1.7292,1.7324,1.7394,1.762,1.7679,1.7685,1.769,1.7774,1.8249,1.8795,1.8646,1.853,1.8855,1.8945,1.9007,1.9118,1.9151,1.9181,1.9216,1.9256,1.9186,1.9151,1.9186,1.9216,1.9146,1.9605,1.9883,1.9994,2.0312,2.07,2.07,2.059,2.0537,2.042,1.9524,1.9061,1.8993,1.8744,1.8558,1.8451,1.8485,1.8468,1.8384,1.8339,1.8249,1.8079,1.7748,1.7485,1.7251,1.6967,1.6712,1.6504,1.6326,1.6176,1.6936,1.691,1.7001,1.7001,1.7034,1.7163,1.7453,1.7975,1.8001,1.8328,1.8784,1.8976,1.8912,1.904,1.8976,1.9008,1.8944,1.8944,1.8976,1.9008,1.9072,1.9104,1.9104,1.9104,1.9104,1.9104,1.9104,1.9104,1.9104,1.9104,1.9104,1.9104,1.9086,1.9056,1.906,1.9038,1.9024,1.8942,1.8924,1.896,1.9002,1.8302,1.7965,1.7886,1.7307,1.6893,1.6726,1.6813,1.6791,1.6866,1.6872,1.6969,1.6904,1.7001,1.7034,1.7168,1.7098,1.7066,1.7104,1.7163,1.7491,1.7878,1.8007,1.8264,1.872,1.888,1.8898,1.8925,1.9145,1.9507,1.9769,1.9939,2.0139,2.0605,2.0375,2.0393,2.0515,2.0631,2.0631,2.0527,2.0457,2.0631,2.0631,2.0457,2.0347,2.0388,2.0492,2.0527,2.0492,2.0631,2.0665,2.07,2.07,2.07,2.07,2.0653,2.0607,2.0495,2.0154,1.9864,1.9762,1.9728,1.966,1.9577,1.9537,1.9471,1.9209,1.8937,1.8777,1.8506,1.8114,1.7648,1.7437,1.7216,1.6931,1.7001,1.7066,1.7486,1.7679,1.7781,1.8232,1.8591,1.8752,1.8746,1.8912,1.9072,1.9104,1.9104,1.9104,1.9104,1.9104,1.9104,1.9104,1.9104,1.9104,1.9104,1.9104,1.9104,1.9104,1.9104,1.9104,1.9104,1.9104,1.9104,1.9104,1.9104,1.9104,1.9104,1.9104,1.9104,1.9104,1.9104,1.9104,1.9104,1.9104,1.9072,1.888,1.8746,1.8752,1.8527,1.8416,1.832,1.7517,1.7034,1.7034,1.7001,1.7195,1.7588,1.7679,1.7942,1.8366,1.8463,1.8457,1.8431,1.8431,1.8457,1.8688,1.8746,1.8842,1.904,1.911,1.9195,1.9334,1.9467,1.9672,2.0056,2.0219,2.0434,2.0676,2.07,2.07,2.07,2.07,2.07,2.07,2.07,2.07,2.07,2.07,2.07,2.07,2.07,2.07,2.07,2.07,2.07,2.07,2.07,2.07,2.07,2.07,2.07,2.07,2.0585,2.0495,2.0513,2.0525,2.0537,2.0543,2.0515,2.0424,2.0229,1.9993,1.9709,1.9473,1.8977,1.8619,1.8366,1.8089,1.7788,1.7781,1.7846,1.8232,1.8393,1.8457,1.8944,1.9104,1.9104,1.9104,1.9104,1.9104,1.9104,1.9104,1.9104,1.9104,1.9104,1.9104,1.9104,1.9104,1.9104,1.9104,1.9104,1.9104,1.9104,1.9104,1.9104,1.9104,1.9104,1.9104,1.9104,1.9104,1.9104,1.9104,1.9104,1.9104,1.9104,1.9104,1.9104,1.9104,1.9104,1.9104,1.9104,1.9104,1.9104,1.9104,1.9104,1.904,1.82,1.7781,1.7781,1.7781,1.8007,1.8361,1.8425,1.8617,1.8976,1.9104,1.9072,1.9104,1.904,1.9104,1.9104,1.9104,1.9104,1.9122,1.9171,1.9346,1.9461,1.9697,1.9938,2.0241,2.0416,2.0531,2.0676,2.07,2.07,2.07,2.07,2.07,2.07,2.07,2.07,2.07,2.07,2.07,2.07,2.07,2.07,2.07,2.07,2.07,2.07,2.07,2.07,2.07,2.07,2.07,2.07,2.0682,2.064,2.064,2.064,2.0646,2.064,2.064,2.0628,2.0434,2.0295,2.0071,1.9866,1.9588,1.9203,1.8812,1.882,1.8629,1.9072,1.9104,1.9104,1.904,1.904,1.9104,1.9104,1.9104,1.9104,1.9104,1.9104,1.9104,1.9104,1.9104,1.9104,1.9104,1.9104,1.9104,1.9104,1.9104,1.9104,1.9104,1.9104,1.9104,1.9104,1.9104,1.9104,1.9104,1.9104,1.9104,1.9104,1.9104,1.9104,1.9104,1.9104,1.9104,1.9104,1.9104,1.9104,1.9104,1.9104,1.9104,1.9104,1.9104,1.9104,1.9104,1.9072,1.8944,1.8976,1.9072,1.8912,1.8912,1.9072,1.911,1.904,1.9104,1.9104,1.9104,1.9104,1.9104,1.9104,1.9104,1.9146,1.9128,1.9189,1.9388,1.9564,1.9648,1.9993,2.0249,2.038,2.0537,2.067,2.0694,2.07,2.07,2.07,2.07,2.07,2.07,2.07,2.07,2.07,2.07,2.07,2.07,2.07,2.07,2.07,2.07,2.07,2.07,2.07,2.07,2.07,2.07,2.07,2.07,2.07,2.07,2.07,2.07,2.07,2.07,2.07,2.0694,2.0652,2.0495,2.0307,2.0053,1.9757,1.9455,1.9273,1.9201,1.9104,1.9104,1.9104,1.9104,1.9104,1.9104,1.9104,1.9104,1.9104,1.9104,1.9104,1.9104,1.9104,1.9104,1.9104,1.9104,1.9104,1.9104,1.9104,1.9104,1.9104,1.9104,1.9104,1.9104,1.9104,1.9104,1.9104,1.9104,1.9104,1.9104,1.9104,1.9104,1.9104,1.9104,1.9104,1.9104,1.9104,1.9104,1.9104,1.9104,1.9104,1.9104,1.9104,1.9104,1.9104,1.9104,1.9104,1.9104,1.9104,1.9104,1.9104,1.9104,1.9104,1.9104,1.9104,1.9104,1.9104,1.9104,1.9104,1.9104,1.9116,1.911,1.9128,1.9304,1.94,1.9406,1.9648,1.9878,2.0053,2.0259,2.0398,2.0561,2.0658,2.07,2.07,2.07,2.07,2.07,2.07,2.07,2.07,2.07,2.07,2.07,2.07,2.07,2.07,2.07,2.07,2.07,2.07,2.07,2.07,2.07,2.07,2.07,2.07,2.07,2.07,2.07,2.07,2.07,2.07,2.07,2.07,2.07,2.07,2.07,2.0628,2.0416,2.0165,1.9993,1.9721,1.9443,1.9298,1.9171,1.9104,1.9104,1.9104,1.9104,1.9104,1.9104,1.9104,1.9104,1.9104,1.9104,1.9104,1.9104,1.9104,1.9104,1.9104,1.9104,1.9104,1.9104,1.9104,1.9104,1.9104,1.9104,1.9104,1.9104,1.9104,1.9104,1.9104,1.9104,1.9104,1.9104,1.9104,1.9104,1.9104,1.9104,1.9104,1.9104,1.9104,1.9104,1.9104,1.9104,1.9104,1.9104,1.9104,1.9104,1.9104,1.9104,1.9104,1.9104,1.9104,1.9104,1.9104,1.9104,1.9104,1.9104,1.9104,1.9104,1.9104,1.9104,1.9128,1.9201,1.9273,1.9322,1.9521,1.9648,1.9694,1.9926,2.0174,2.0265,2.0404,2.0543,2.0658,2.07,2.07,2.07,2.07,2.07,2.07,2.07,2.07,2.07,2.07,2.07,2.07,2.07,2.07,2.07,2.07,2.07,2.07,2.07,2.07,2.07,2.07,2.07,2.07,2.07,2.07,2.07,2.07,2.07,2.07,2.07,2.07,2.07,2.07,2.07,2.07,2.067,2.0525,2.0331,2.0174,1.9944,1.9642,1.9455,1.9316,1.9104,1.9104,1.9104,1.9104,1.9104,1.9104,1.9104,1.9104,1.9104,1.9104,1.9104,1.9104,1.9104,1.9104,1.9104,1.9104,1.9104,1.9104,1.9104,1.9104,1.9104,1.9104,1.9104,1.9104,1.9104,1.9104,1.9104,1.9104,1.9104,1.9104,1.9104,1.9104,1.9104,1.9104,1.9104,1.9104,1.9104,1.9104,1.9104,1.9104,1.9104,1.9104,1.9104,1.9104,1.9104,1.9104,1.9104,1.9104,1.9104,1.9104,1.9104,1.9104,1.9104,1.9104,1.9104,1.9128,1.9152,1.9183,1.9201,1.9406,1.9539,1.9588,1.9805,1.9923,1.9977,2.0198,2.0368,2.0398,2.0573,2.0658,2.0694,2.07,2.07,2.07,2.07,2.07,2.07,2.07,2.07,2.07,2.07,2.07,2.07,2.07,2.07,2.07,2.07,2.07,2.07,2.07,2.07,2.07,2.07,2.07,2.07,2.07,2.07,2.07,2.07,2.07,2.07,2.07,2.07,2.07,2.07,2.07,2.07,2.064,2.0561,2.047,2.0319,2.0041,1.9763,1.9666,1.9545,1.9104,1.9104,1.9104,1.9104,1.9104,1.9104,1.9104,1.9104,1.9104,1.9104,1.9104,1.9104,1.9104,1.9104,1.9104,1.9104,1.9104,1.9104,1.9104,1.9104,1.9104,1.9104,1.9104,1.9104,1.9104,1.9104,1.9104,1.9104,1.9104,1.9104,1.9104,1.9104,1.9104,1.9104,1.9104,1.9104,1.9104,1.9104,1.9104,1.9104,1.9104,1.9104,1.9104,1.9104,1.9104,1.9104,1.9104,1.9104,1.9104,1.9104,1.9116,1.9134,1.911,1.9116,1.9134,1.9183,1.9322,1.9418,1.9461,1.9654,1.983,1.9854,2.0059,2.0195,2.0247,2.0458,2.0591,2.0622,2.0676,2.0706,2.0736,2.0712,2.0718,2.0724,2.0718,2.07,2.07,2.07,2.07,2.07,2.07,2.07,2.07,2.07,2.07,2.07,2.07,2.07,2.07,2.07,2.07,2.07,2.07,2.07,2.07,2.07,2.07,2.07,2.07,2.07,2.07,2.07,2.07,2.07,2.07,2.07,2.07,2.07,2.064,2.0549,2.0458,2.0247,2.0047,1.9926,1.9769,1.9219,1.9104,1.9104,1.9104,1.9104,1.9104,1.9104,1.9104,1.9104,1.9104,1.9104,1.9104,1.9104,1.9104,1.9104,1.9104,1.9104,1.9104,1.9104,1.9104,1.9104,1.9104,1.9104,1.9104,1.9104,1.9104,1.9104,1.9104,1.9104,1.9104,1.9104,1.9104,1.9104,1.9104,1.9104,1.9104,1.9104,1.9104,1.9104,1.9104,1.9104,1.9104,1.9104,1.9104,1.9104,1.9104,1.9104,1.9104,1.9104,1.9134,1.9213,1.9225,1.9165,1.9225,1.9285,1.9334,1.9545,1.9684,1.9724,1.9899,2.0102,2.0108,2.0343,2.0452,2.0507,2.0634,2.0688,2.07,2.0712,2.0736,2.0857,2.0742,2.0749,2.0839,2.0773,2.0712,2.0706,2.07,2.07,2.07,2.07,2.07,2.07,2.07,2.07,2.07,2.07,2.07,2.07,2.07,2.07,2.07,2.07,2.07,2.07,2.07,2.07,2.07,2.07,2.07,2.07,2.07,2.07,2.07,2.07,2.07,2.07,2.07,2.07,2.0646,2.0555,2.0418,2.0297,2.0162,1.9999,1.9346,1.9104,1.9104,1.9104,1.9104,1.9104,1.9104,1.9104,1.9104,1.9104,1.9104,1.9104,1.9104,1.9104,1.9104,1.9104,1.9104,1.9104,1.9104,1.9104,1.9104,1.9104,1.9104,1.9104,1.9104,1.9104,1.9104,1.9104,1.9104,1.9104,1.9104,1.9104,1.9104,1.9104,1.9104,1.9104,1.9104,1.9104,1.9104,1.9104,1.9104,1.9104,1.9104,1.9104,1.9104,1.9104,1.9104,1.911,1.9134,1.9177,1.9376,1.9382,1.9358,1.9412,1.9564,1.9576,1.9824,1.9957,2.0023,2.0204,2.0374,2.0386,2.0555,2.0676,2.0688,2.0694,2.0742,2.0803,2.0857,2.0972,2.1111,2.1027,2.1002,2.1057,2.0924,2.0785,2.0755,2.0736,2.07,2.07,2.07,2.07,2.07,2.07,2.07,2.0706,2.0706,2.07,2.07,2.07,2.07,2.07,2.07,2.07,2.07,2.07,2.07,2.07,2.07,2.07,2.07,2.07,2.07,2.07,2.07,2.07,2.07,2.07,2.07,2.07,2.0664,2.0573,2.0476,2.038,2.0253,1.9346,1.9104,1.9104,1.9104,1.9104,1.9104,1.9104,1.9104,1.9104,1.9104,1.9104,1.9104,1.9104,1.9104,1.9104,1.9104,1.9104,1.9104,1.9104,1.9104,1.9104,1.9104,1.9104,1.9104,1.9104,1.9104,1.9104,1.9104,1.9104,1.9104,1.9104,1.9104,1.9104,1.9104,1.9104,1.9104,1.9104,1.9104,1.9104,1.9104,1.9104,1.9104,1.9104,1.9104,1.9104,1.9104,1.9104,1.9116,1.9207,1.9406,1.9473,1.96,1.9733,1.9796,1.9866,1.9896,2.0096,2.0247,2.0283,2.047,2.0603,2.0646,2.0676,2.07,2.07,2.073,2.0845,2.1039,2.1214,2.1377,2.1438,2.1341,2.1377,2.1371,2.122,2.1039,2.0996,2.09,2.0791,2.0821,2.0779,2.0706,2.0712,2.073,2.0749,2.0767,2.0779,2.0736,2.07,2.07,2.07,2.07,2.07,2.07,2.07,2.07,2.07,2.07,2.07,2.07,2.07,2.07,2.07,2.07,2.07,2.07,2.07,2.07,2.07,2.07,2.0694,2.0688,2.0609,2.0531,2.0567,1.9684,1.9316,1.931,1.9231,1.9116,1.9104,1.9104,1.9104,1.9104,1.9104,1.9104,1.9104,1.9104,1.9104,1.9104,1.9104,1.9104,1.9104,1.9104,1.9104,1.9104,1.9104,1.9104,1.9104,1.9104,1.9104,1.9104,1.9104,1.9104,1.9104,1.9104,1.9104,1.9104,1.9104,1.9104,1.9104,1.9104,1.9104,1.9104,1.9104,1.9104,1.9104,1.9104,1.9104,1.9104,1.9104,1.9104,1.9104,1.9231,1.9467,1.9642,1.9854,2.0065,2.0229,2.0259,2.0198,2.0362,2.0507,2.0513,2.0646,2.0688,2.0694,2.0706,2.07,2.0742,2.0839,2.1033,2.1262,2.1389,2.1577,2.1661,2.1607,2.1589,2.1649,2.151,2.1371,2.1287,2.1184,2.1147,2.1091,2.0945,2.086,2.0736,2.0761,2.0797,2.0821,2.0839,2.0785,2.0712,2.0735,2.077,2.0735,2.077,2.0735,2.07,2.07,2.07,2.07,2.07,2.07,2.07,2.07,2.07,2.07,2.07,2.07,2.07,2.07,2.07,2.07,2.07,2.0694,2.07,2.07,2.07,2.0023,1.9582,1.9521,1.9376,1.9195,1.9128,1.9104,1.9104,1.9104,1.9104,1.9104,1.9104,1.9104,1.9104,1.9104,1.9104,1.9104,1.9104,1.9104,1.9104,1.9104,1.9104,1.9104,1.9104,1.9104,1.9104,1.9104,1.9104,1.9104,1.9104,1.9104,1.9104,1.9104,1.9104,1.9104,1.9104,1.9104,1.9104,1.9104,1.9104,1.9104,1.9104,1.9104,1.9104,1.9104,1.9104,1.9104,1.9104,1.9298,1.9564,1.9805,2.0059,2.0356,2.0585,2.0597,2.047,2.0603,2.0676,2.0694,2.0694,2.07,2.07,2.0761,2.0779,2.0888,2.1105,2.1365,2.151,2.1655,2.1782,2.1933,2.1886,2.1922,2.2044,2.1983,2.1836,2.1847,2.1816,2.1795,2.1612,2.1238,2.1058,2.0999,2.0736,2.0767,2.0767,2.0779,2.0779,2.0718,2.0873,2.0902,2.0873,2.0839,2.077,2.0735,2.07,2.07,2.07,2.07,2.07,2.07,2.07,2.07,2.07,2.07,2.07,2.07,2.07,2.07,2.07,2.07,2.07,2.07,2.07,2.07,2.0138,1.9814,1.9606,1.9479,1.9412,1.9213,1.911,1.9104,1.9104,1.9104,1.9104,1.9104,1.9104,1.9104,1.9104,1.9104,1.9104,1.9104,1.9104,1.9104,1.9104,1.9104,1.911,1.9104,1.9122,1.9152,1.9146,1.9104,1.9104,1.9104,1.9104,1.9104,1.9104,1.9104,1.9104,1.9104,1.9104,1.9104,1.9104,1.9104,1.9104,1.9104,1.9104,1.9104,1.9104,1.9104,1.9116,1.9146,1.9358,1.9754,1.9896,2.0174,2.0555,2.0676,2.0694,2.067,2.0688,2.07,2.07,2.07,2.0736,2.0779,2.09,2.1015,2.119,2.1468,2.1752,2.1849,2.203,2.2213,2.2367,2.2571,2.2701,2.2725,2.2693,2.2684,2.2713,2.2438,2.2423,2.2322,2.2038,2.1628,2.1359,2.1005,2.0724,2.0724,2.073,2.0789,2.0801,2.0953,2.1047,2.1012,2.0977,2.0943,2.0908,2.0839,2.0735,2.0735,2.07,2.07,2.07,2.07,2.07,2.07,2.07,2.07,2.07,2.07,2.07,2.07,2.07,2.07,2.07,2.07,2.07,2.0374,2.0132,2.0011,1.9775,1.9503,1.937,1.9243,1.9122,1.9104,1.9104,1.9104,1.9104,1.9104,1.9104,1.9104,1.9104,1.9104,1.9104,1.9104,1.9104,1.9104,1.9104,1.9146,1.9237,1.9285,1.9213,1.932,1.9358,1.9237,1.911,1.9104,1.9116,1.911,1.9104,1.9134,1.911,1.9104,1.9104,1.9104,1.9104,1.9104,1.9104,1.9104,1.9104,1.9104,1.9104,1.9134,1.9279,1.9503,1.9857,2.0035,2.0307,2.0597,2.07,2.07,2.07,2.07,2.07,2.07,2.0706,2.0779,2.0906,2.1063,2.1214,2.1492,2.1782,2.2147,2.246,2.2558,2.2694,2.285,2.3079,2.3154,2.3208,2.3268,2.3286,2.3259,2.3154,2.2998,2.2931,2.2815,2.2416,2.2122,2.1967,2.1587,2.1235,2.1289,2.1337,2.1242,2.1107,2.1159,2.1151,2.1151,2.111,2.1075,2.1041,2.0873,2.0804,2.07,2.07,2.07,2.07,2.07,2.07,2.07,2.07,2.07,2.07,2.07,2.07,2.07,2.07,2.07,2.07,2.0712,2.0591,2.0404,2.0303,2.0071,1.9691,1.9564,1.9394,1.9219,1.9134,1.9104,1.9104,1.9104,1.9104,1.9104,1.9104,1.9104,1.9104,1.9104,1.9104,1.9104,1.9104,1.9104,1.9146,1.9279,1.931,1.9201,1.9374,1.9449,1.933,1.9223,1.9263,1.9195,1.9249,1.9225,1.9245,1.9354,1.9412,1.943,1.9424,1.936,1.9296,1.9226,1.9168,1.9136,1.9104,1.9104,1.9146,1.9352,1.9624,1.9863,2.0156,2.0438,2.079,2.077,2.0873,2.0943,2.0971,2.0937,2.0973,2.0988,2.0935,2.1092,2.1441,2.1793,2.2258,2.2301,2.2381,2.2961,2.2986,2.3154,2.334,2.3445,2.3556,2.3637,2.3685,2.3667,2.3692,2.3645,2.371,2.3706,2.3587,2.3346,2.3108,2.3027,2.2624,2.1982,2.183,2.1882,2.1691,2.1391,2.1418,2.1427,2.1421,2.1421,2.1386,2.1283,2.111,2.0902,2.077,2.07,2.0706,2.07,2.07,2.07,2.07,2.07,2.07,2.07,2.07,2.07,2.07,2.07,2.07,2.0706,2.0779,2.0694,2.0652,2.0416,2.0289,2.0158,1.9709,1.9497,1.9418,1.9201,1.9104,1.9104,1.9104,1.9104,1.9104,1.9104,1.9104,1.9104,1.9104,1.9104,1.9104,1.9104,1.9104,1.9159,1.9219,1.9304,1.9427,1.9629,1.9617,1.948,1.9679,1.9587,1.9496,1.9514,1.949,1.9542,1.9696,1.9841,1.9857,1.9845,1.9717,1.9552,1.945,1.9354,1.9168,1.9104,1.911,1.9122,1.9498,1.981,2.009,2.0398,2.068,2.1067,2.0971,2.1116,2.1352,2.1373,2.1379,2.1486,2.1367,2.1169,2.1374,2.1847,2.255,2.2966,2.3202,2.3321,2.3327,2.337,2.3445,2.3556,2.3704,2.3927,2.4001,2.4119,2.4193,2.4223,2.429,2.4331,2.4462,2.4286,2.3895,2.3773,2.3622,2.3161,2.2468,2.2153,2.2191,2.1976,2.171,2.1754,2.1779,2.1766,2.1766,2.1731,2.1593,2.1386,2.1144,2.0937,2.0804,2.0706,2.0706,2.07,2.07,2.07,2.07,2.07,2.07,2.07,2.07,2.0706,2.073,2.0736,2.0742,2.0888,2.07,2.0694,2.0591,2.0458,2.0283,1.9914,1.9627,1.9467,1.9219,1.9104,1.9104,1.9104,1.9104,1.9104,1.9104,1.9104,1.9104,1.9104,1.9104,1.9104,1.9104,1.9104,1.9183,1.9435,1.9686,1.9856,2.01,2.0226,2.0149,2.0234,2.0247,2.0162,1.9998,1.9886,1.9944,2.002,2.0086,2.0061,1.9941,1.9711,1.9616,1.9392,1.9328,1.9424,1.9424,1.9657,1.9947,2.0202,2.0503,2.0772,2.104,2.1289,2.1499,2.1386,2.1537,2.1851,2.1808,2.1925,2.2033,2.1914,2.193,2.2348,2.2771,2.3182,2.3475,2.3445,2.3556,2.363,2.3779,2.3816,2.4149,2.4267,2.4377,2.4408,2.4482,2.4556,2.4592,2.4592,2.4592,2.4556,2.4389,2.4133,2.4136,2.4116,2.357,2.297,2.2677,2.2421,2.2175,2.2016,2.2015,2.1951,2.1938,2.2001,2.2007,2.1869,2.1691,2.1386,2.1075,2.0943,2.0776,2.0706,2.07,2.07,2.07,2.07,2.07,2.07,2.07,2.07,2.0736,2.0785,2.0785,2.0815,2.1008,2.07,2.07,2.07,2.0549,2.0295,1.9996,1.9763,1.9485,1.9219,1.9104,1.9104,1.9104,1.9104,1.9104,1.9104,1.9104,1.9104,1.9104,1.9104,1.9136,1.92,1.9232,1.9398,1.9674,2.0005,2.0241,2.0487,2.0592,2.0599,2.0833,2.0751,2.0618,2.0599,2.0509,2.0214,2.024,2.0265,2.0291,2.0189,1.996,1.9896,1.9743,1.9558,1.9775,1.9749,1.9977,2.0352,2.0617,2.0928,2.1274,2.1562,2.1797,2.1869,2.1917,2.199,2.2174,2.2338,2.2457,2.2618,2.2553,2.2722,2.3149,2.3377,2.3629,2.3704,2.3742,2.4007,2.4119,2.4193,2.4297,2.4592,2.4562,2.4525,2.4519,2.4519,2.4592,2.4592,2.4592,2.4592,2.4586,2.4432,2.4346,2.4322,2.4289,2.3919,2.3399,2.308,2.2695,2.2285,2.2186,2.2207,2.2149,2.207,2.2173,2.2242,2.1863,2.1518,2.1524,2.1248,2.1012,2.0873,2.0804,2.07,2.07,2.07,2.07,2.07,2.07,2.07,2.07,2.0736,2.0773,2.1051,2.1117,2.1238,2.07,2.07,2.07,2.0549,2.0271,2.0029,1.9769,1.9527,1.9261,1.9146,1.9152,1.9146,1.9122,1.9116,1.9104,1.9136,1.9168,1.9174,1.9206,1.9302,1.952,1.9584,1.9717,1.9951,2.0275,2.0372,2.0563,2.0749,2.0942,2.1103,2.1059,2.113,2.1253,2.1129,2.0579,2.0547,2.0742,2.0996,2.0977,2.0691,2.0475,2.0354,2.0164,2.0202,2.0176,2.0355,2.0836,2.108,2.139,2.1694,2.1872,2.2097,2.2242,2.207,2.233,2.3003,2.2881,2.3128,2.3647,2.3264,2.34,2.3827,2.3975,2.4075,2.4408,2.4525,2.4451,2.4414,2.4488,2.4519,2.4592,2.4592,2.4592,2.4592,2.4592,2.4592,2.4592,2.4592,2.4592,2.4592,2.4592,2.4559,2.4472,2.4382,2.4122,2.3765,2.3472,2.3051,2.2542,2.2382,2.2451,2.2431,2.2338,2.2276,2.2242,2.1691,2.1415,2.1455,2.1393,2.1185,2.1012,2.0908,2.0804,2.0735,2.07,2.07,2.07,2.07,2.07,2.07,2.07,2.0797,2.1129,2.1371,2.1432,2.07,2.07,2.07,2.0452,2.0038,1.9963,1.9827,1.9739,1.9509,1.937,1.937,1.937,1.9255,1.9159,1.9136,1.9238,1.9392,1.9456,1.9488,1.9756,1.9877,1.9909,2.0042,2.0253,2.0528,2.0779,2.0909,2.1117,2.1641,2.1542,2.1595,2.1746,2.1646,2.1633,2.1272,2.1104,2.1081,2.1266,2.1052,2.0697,2.0609,2.0463,2.0445,2.067,2.0683,2.1007,2.1555,2.1725,2.1908,2.2225,2.2394,2.251,2.2619,2.2454,2.2737,2.3272,2.3285,2.3747,2.4159,2.4132,2.4142,2.4308,2.4371,2.4414,2.4592,2.4592,2.4592,2.4592,2.4592,2.4592,2.4592,2.4592,2.4592,2.4592,2.4592,2.4592,2.4592,2.4592,2.4592,2.4592,2.4592,2.4592,2.4539,2.4412,2.4209,2.3955,2.3654,2.3287,2.2806,2.2713,2.2749,2.2749,2.2654,2.2482,2.2207,2.1725,2.1346,2.1317,2.1386,2.1386,2.1179,2.0977,2.0873,2.0735,2.07,2.07,2.07,2.07,2.07,2.07,2.07,2.0894,2.1268,2.1432,2.1462,2.07,2.0694,2.0603,2.038,2.0077,2.0053,1.9977,1.9908,1.9727,1.9642,1.963,1.9545,1.9484,1.939,1.9345,1.9462,1.9743,1.9775,1.9813,2.0113,2.0227,2.0259,2.0362,2.056,2.0804,2.1077,2.1214,2.1462,2.1738,2.183,2.1804,2.1784,2.1877,2.1777,2.1611,2.1538,2.1463,2.1484,2.1196,2.0968,2.0853,2.0777,2.085,2.1097,2.1352,2.1654,2.2165,2.2465,2.2552,2.2806,2.29,2.29,2.29,2.2934,2.3026,2.3307,2.3734,2.4128,2.4446,2.4566,2.4499,2.4556,2.4592,2.4592,2.4592,2.4592,2.4592,2.4592,2.4592,2.4592,2.4592,2.4592,2.4592,2.4592,2.4592,2.4592,2.4592,2.4592,2.4592,2.4592,2.4592,2.4592,2.4559,2.4432,2.4302,2.4048,2.3794,2.3414,2.3074,2.2967,2.29,2.2859,2.2722,2.2413,2.2138,2.176,2.1449,2.1242,2.1248,2.1283,2.1179,2.0937,2.0873,2.077,2.0735,2.07,2.07,2.07,2.07,2.07,2.07,2.0984,2.1401,2.1492,2.1498,2.07,2.0664,2.0388,2.0307,2.0283,2.0244,2.0123,1.9902,1.9902,1.9896,1.989,1.9714,1.9799,1.9974,1.9764,1.9857,2.01,2.0132,2.0202,2.0265,2.0513,2.057,2.0697,2.0889,2.0999,2.1067,2.1199,2.142,2.1628,2.1743,2.1729,2.1709,2.1776,2.1823,2.189,2.1857,2.179,2.1657,2.1411,2.1227,2.1142,2.1325,2.1427,2.1665,2.1858,2.2098,2.2412,2.2519,2.2639,2.2806,2.29,2.29,2.29,2.29,2.306,2.3374,2.3855,2.4215,2.4459,2.4512,2.4579,2.4579,2.4592,2.4592,2.4592,2.4592,2.4592,2.4592,2.4592,2.4592,2.4592,2.4592,2.4592,2.4592,2.4592,2.4592,2.4592,2.4592,2.4592,2.4592,2.4592,2.4572,2.4486,2.4416,2.4329,2.4135,2.3881,2.3581,2.3261,2.298,2.292,2.2859,2.2654,2.2276,2.1966,2.1725,2.1386,2.111,2.1041,2.1041,2.0971,2.0937,2.0873,2.0804,2.0735,2.07,2.07,2.07,2.07,2.07,2.07,2.0996,2.1389,2.1498,2.1571,2.07,2.0676,2.0422,2.0204,2.0044,2.0062,1.9888,1.9675,1.9784,2.0014,2.0281,2.0398,2.0493,2.0674,2.0402,2.0483,2.0535,2.0598,2.0666,2.0761,2.0824,2.0912,2.0976,2.1039,2.1071,2.1189,2.1303,2.1482,2.1629,2.1743,2.2004,2.2138,2.1917,2.1964,2.2004,2.2017,2.1937,2.1816,2.1555,2.1442,2.1455,2.1582,2.1816,2.2051,2.2205,2.2445,2.2653,2.2692,2.2827,2.2867,2.29,2.29,2.29,2.2907,2.3034,2.3278,2.3688,2.4051,2.4262,2.4335,2.4372,2.4532,2.4586,2.4592,2.4592,2.4592,2.4592,2.4592,2.4592,2.4592,2.4592,2.4592,2.4592,2.4592,2.4592,2.4592,2.4592,2.4592,2.4586,2.4506,2.4512,2.4419,2.4382,2.4409,2.4315,2.4162,2.3955,2.3661,2.3367,2.3094,2.2927,2.2866,2.2756,2.2413,2.2035,2.1766,2.1352,2.1006,2.0937,2.0867,2.0833,2.0839,2.0873,2.0804,2.0735,2.07,2.07,2.07,2.07,2.07,2.073,2.1045,2.1311,2.1401,2.1643,2.07,2.0686,2.0437,2.0212,2.0,2.0016,1.9909,1.9821,2.0213,2.0569,2.0749,2.096,2.1066,2.1073,2.083,2.0786,2.0964,2.0878,2.0894,2.0982,2.1102,2.1071,2.1071,2.1116,2.1203,2.1309,2.1482,2.1629,2.1756,2.1877,2.2097,2.1984,2.1944,2.2078,2.2071,2.1957,2.1917,2.1824,2.171,2.1582,2.1622,2.1796,2.2131,2.2352,2.2492,2.2726,2.286,2.2893,2.29,2.29,2.29,2.29,2.29,2.2907,2.3041,2.3287,2.3474,2.3748,2.3981,2.4175,2.4295,2.4399,2.4519,2.4592,2.4592,2.4592,2.4592,2.4592,2.4592,2.4592,2.4592,2.4592,2.4592,2.4592,2.4592,2.4592,2.4592,2.4592,2.4519,2.4412,2.4326,2.4269,2.4255,2.4302,2.4309,2.4168,2.3955,2.3661,2.336,2.3094,2.2954,2.29,2.2791,2.2619,2.2214,2.1731,2.1352,2.1012,2.0839,2.077,2.077,2.0735,2.077,2.0735,2.07,2.07,2.07,2.07,2.07,2.07,2.073,2.0942,2.1141,2.1244,2.1577,2.0792,2.0754,2.0499,2.0294,2.0125,2.0125,2.0157,2.0221,2.0922,2.1257,2.1225,2.1323,2.1384,2.1397,2.1195,2.1083,2.1136,2.1112,2.1014,2.1102,2.1102,2.1102,2.1102,2.1116,2.1196,2.1442,2.1629,2.1736,2.1957,2.199,2.1836,2.1656,2.189,2.2064,2.2158,2.193,2.187,2.1924,2.1944,2.1897,2.185,2.2058,2.2411,2.2512,2.2679,2.2893,2.2893,2.29,2.29,2.29,2.29,2.29,2.29,2.2907,2.3046,2.314,2.326,2.3454,2.3681,2.3888,2.4042,2.4209,2.4402,2.4432,2.4439,2.4559,2.4592,2.4592,2.4592,2.4592,2.4592,2.4592,2.4592,2.4592,2.4592,2.4592,2.4592,2.4512,2.4332,2.4249,2.4088,2.3995,2.3928,2.3961,2.3988,2.4001,2.3868,2.3567,2.3307,2.3006,2.2967,2.29,2.2825,2.2654,2.211,2.1697,2.1352,2.1081,2.0839,2.0735,2.0735,2.07,2.07,2.07,2.07,2.07,2.07,2.07,2.07,2.07,2.0749,2.0845,2.0966,2.1087,2.1377,2.1399,2.112,2.0652,2.0315,2.0157,2.0354,2.0482,2.0546,2.1233,2.1339,2.1143,2.1317,2.1555,2.1727,2.1514,2.1405,2.139,2.1176,2.1116,2.1102,2.1102,2.1102,2.1102,2.1109,2.1176,2.1256,2.1495,2.1823,2.2024,2.1931,2.1917,2.2118,2.2151,2.2118,2.2205,2.1964,2.199,2.2051,2.2158,2.2131,2.203,2.2198,2.2498,2.2665,2.2893,2.29,2.29,2.29,2.29,2.29,2.29,2.29,2.29,2.29,2.2934,2.2994,2.302,2.318,2.3367,2.3532,2.3694,2.3834,2.3995,2.4122,2.4275,2.4496,2.4586,2.4586,2.4592,2.4592,2.4592,2.4592,2.4592,2.4592,2.4592,2.4592,2.4592,2.4386,2.4209,2.4015,2.387,2.3777,2.3667,2.3647,2.3647,2.3607,2.3521,2.3327,2.3133,2.294,2.2947,2.29,2.2859,2.2619,2.2076,2.1628,2.1317,2.1012,2.077,2.07,2.07,2.07,2.07,2.07,2.07,2.07,2.07,2.07,2.07,2.07,2.0724,2.0803,2.0851,2.0954,2.1214,2.1486,2.1262,2.1014,2.0754,2.0584,2.0729,2.0824,2.0889,2.1226,2.126,2.114,2.1457,2.1713,2.1817,2.1649,2.1475,2.1402,2.1189,2.1116,2.1102,2.1102,2.1102,2.1102,2.1109,2.1249,2.1336,2.1622,2.1923,2.2011,2.1991,2.1984,2.2218,2.2138,2.2218,2.2325,2.2305,2.2178,2.2191,2.2365,2.2318,2.2205,2.2458,2.2659,2.288,2.29,2.29,2.29,2.29,2.29,2.29,2.29,2.29,2.29,2.29,2.29,2.2907,2.2934,2.2939,2.3106,2.3253,2.3374,2.3527,2.377,2.3921,2.4008,2.4229,2.4509,2.4499,2.4586,2.4592,2.4592,2.4592,2.4592,2.4592,2.4592,2.4592,2.4519,2.4359,2.4148,2.3924,2.3783,2.3661,2.3621,2.3674,2.3634,2.3432,2.3305,2.32,2.3027,2.29,2.29,2.2832,2.2756,2.2482,2.1973,2.1559,2.1248,2.0977,2.07,2.07,2.07,2.07,2.07,2.07,2.07,2.07,2.07,2.07,2.07,2.07,2.0718,2.0742,2.0791,2.0827,2.0984,2.1398,2.1334,2.1351,2.1253,2.1117,2.1071,2.1071,2.1077,2.1109,2.1116,2.1144,2.1598,2.1709,2.1602,2.1522,2.1335,2.1176,2.1136,2.1102,2.1102,2.1102,2.1102,2.1102,2.1116,2.1229,2.1396,2.1642,2.1669,2.1683,2.1756,2.191,2.2044,2.2291,2.2552,2.2726,2.2679,2.2472,2.2472,2.2532,2.2471,2.2585,2.2753,2.2847,2.2887,2.29,2.29,2.29,2.29,2.29,2.29,2.29,2.29,2.29,2.29,2.29,2.29,2.29,2.2914,2.2946,2.31,2.3193,2.3327,2.3554,2.3681,2.3748,2.3975,2.4255,2.4442,2.4486,2.4586,2.4586,2.4586,2.4586,2.4559,2.4566,2.4526,2.4406,2.4302,2.4028,2.379,2.3661,2.3567,2.3561,2.3649,2.35,2.3305,2.3213,2.308,2.2994,2.2934,2.29,2.2694,2.2489,2.2179,2.1835,2.149,2.1144,2.0908,2.07,2.07,2.07,2.07,2.07,2.07,2.07,2.07,2.07,2.07,2.07,2.07,2.0712,2.0718,2.0724,2.0755,2.073,2.1733,2.1528,2.1268,2.1146,2.1109,2.1102,2.1102,2.1102,2.1102,2.1102,2.1136,2.1169,2.1229,2.1203,2.1196,2.1136,2.1136,2.1102,2.1102,2.1102,2.1102,2.1102,2.1102,2.1102,2.1142,2.1243,2.1356,2.1408,2.1495,2.1636,2.1903,2.2231,2.2305,2.2539,2.28,2.274,2.2659,2.2646,2.2659,2.2672,2.2719,2.284,2.2873,2.29,2.29,2.29,2.29,2.29,2.29,2.29,2.29,2.29,2.29,2.29,2.29,2.29,2.29,2.29,2.296,2.3,2.304,2.3026,2.3235,2.3288,2.3442,2.3681,2.3948,2.4202,2.4335,2.4512,2.4546,2.4546,2.4539,2.4472,2.4446,2.4319,2.4229,2.4035,2.383,2.3634,2.3534,2.3434,2.334,2.33,2.3194,2.3046,2.3026,2.294,2.2947,2.292,2.2866,2.2592,2.2317,2.2042,2.1766,2.1386,2.1041,2.0839,2.07,2.07,2.07,2.07,2.07,2.07,2.07,2.07,2.07,2.07,2.07,2.07,2.07,2.0706,2.07,2.07,2.07]},{"header":{"parameterUnit":"m.s-1","parameterCategory":1,"la1":31.0,"la2":29.5877,"lo1":-88.7671,"lo2":-86.6584,"dy":0.0162,"dx":0.0185,"nx":115,"ny":88,"refTime":"2024-08-23T06:00:00:Z","depth":0,"parameterNumber":3,"parameterNumberName":"V-component_of_WINDS"},"data":[0.0,0.0,0.0,0.0,0.0,0.0,0.0,0.0,0.0,0.0,0.0,0.0,0.0,0.0,0.0,0.0,0.0,0.0,0.0,0.0,0.0,0.0,0.0,0.0,0.0,0.0,0.0,0.0,0.0,0.0,0.0,0.0,0.0,0.0,0.0,0.0,0.0,0.0,0.0,0.0,0.0,0.0,0.0,0.0,0.0,0.0,0.0,0.0,0.0,0.0,0.0,0.0,0.0,0.0,0.0,0.0,0.0,0.0,0.0,0.0,0.0,0.0,0.0,0.0,0.0,0.0,0.0,0.0,0.0,0.0,0.0,0.0,0.0,0.0,0.0,0.0,0.0,0.0,0.0,0.0,0.0,0.0,0.0,0.0,0.0,0.0,0.0,0.0,0.0,0.0,0.0,0.0,0.0,0.0,0.0,0.0,0.0,0.0,0.0,0.0,0.0,0.0,0.0,0.0,0.0,0.0,0.0,0.0,0.0,0.0,0.0,0.0,0.0,0.0,0.0,0.0,0.0,0.0,0.0,0.0,0.0,0.0,0.0,0.0,0.0,0.0,0.0,0.0,0.0,0.0,0.0,0.0,0.0,0.0,0.0,0.0,0.0,0.0,0.0,0.0,0.0,0.0,0.0,0.0,0.0,0.0,0.0,0.0,0.0,0.0,0.0,0.0,0.0,0.0,0.0,0.0,0.0,0.0,0.0,0.0,0.0,0.0,0.0,0.0,0.0,0.0,0.0,0.0,0.0,0.0,0.0,0.0,0.0,0.0,0.0,0.0,0.0,0.0,0.0,0.0,0.0,0.0,0.0,0.0,0.0,0.0,0.0,0.0,0.0,0.0,0.0,0.0,0.0,0.0,0.0,0.0,0.0,0.0,0.0,0.0,0.0,0.0,0.0,0.0,0.0,0.0,0.0,0.0,0.0,0.0,0.0,0.0,0.0,0.0,0.0,0.0,0.0,0.0,0.0,0.0,0.0,0.0,0.0,0.0,0.0,0.0,0.0,0.0,0.0,0.0,0.0,0.0,0.0,0.0,0.0,0.0,0.0,0.0,0.0,0.0,0.0,0.0,0.0,0.0,0.0,0.0,0.0,0.0,0.0,0.0,0.0,0.0,0.0,0.0,0.0,0.0,0.0,0.0,0.0,0.0,0.0,0.0,0.0,0.0,0.0,0.0,0.0,0.0,0.0,0.0,0.0,0.0,0.0,0.0,0.0,0.0,0.0,0.0,0.0,0.0,0.0,0.0,0.0,0.0,0.0,0.0,0.0,0.0,0.0,0.0,0.0,0.0,0.0,0.0,0.0,0.0,0.0,0.0,0.0,0.0,0.0,0.0,0.0,0.0,0.0,0.0,0.0,0.0,0.0,0.0,0.0,0.0,0.0,0.0,0.0,0.0,0.0,0.0,0.0,0.0,0.0,0.0,0.0,0.0,0.0,0.0,0.0,0.0,0.0,0.0,0.0,0.0,0.0,0.0,0.0,0.0,0.0,0.0,0.0,0.0,0.0,0.0,0.0,0.0,0.0,0.0,0.0,0.0,0.0,0.0,0.0,0.0,0.0,0.0,0.0,0.0,0.0,0.0,0.0,0.0,0.0,0.0,0.0,0.0,0.0,0.0,0.0,0.0,0.0,0.0,0.0,0.0,0.0,0.0,0.0,0.0,0.0,0.0,0.0,0.0,0.0,0.0,0.0,0.0,0.0,0.0,0.0,0.0,0.0,0.0,0.0,0.0,0.0,0.0,0.0,0.0,0.0,0.0,0.0,0.0,0.0,0.0,0.0,0.0,0.0,0.0,0.0,0.0,0.0,0.0,0.0,0.0,0.0,0.0,0.0,0.0,0.0,0.0,0.0,0.0,0.0,0.0,0.0,0.0,0.0,0.0,0.0,0.0,0.0,0.0,0.0,0.0,0.0,0.0,0.0,0.0,0.0,0.0,0.0,0.0,0.0,0.0,0.0,0.0,0.0,0.0,0.0,0.0,0.0,0.0,0.0,0.0,0.0,0.0,0.0,0.0,0.0,0.0,0.0,0.0,0.0,0.0,0.0,0.0,0.0,0.0,0.0,0.0,0.0,0.0,0.0,0.0,0.0,0.0,0.0,0.0,0.0,0.0,0.0,0.0,0.0,0.0,0.0,0.0,0.0,0.0,0.0,0.0,0.0,0.0,0.0,0.0,0.0,0.0,0.0,0.0,0.0,0.0,0.0,0.0,0.0,0.0,0.0,0.0,0.0,0.0,0.0,0.0,0.0,0.0,0.0,0.0,0.0,0.0,0.0,0.0,0.0,0.0,0.0,0.0,0.0,0.0,0.0,0.0,0.0,0.0,0.0,0.0,0.0,0.0,0.0,0.0,0.0,0.0,0.0,0.0,0.0,0.0,0.0,0.0,0.0,0.0,0.0,0.0,0.0,0.0,0.0,0.0,0.0,0.0,0.0,0.0,0.0,0.0,0.0,0.0,0.0,0.0,0.0,0.0,0.0,0.0,0.0,0.0,0.0,0.0,0.0,0.0,0.0,0.0,0.0,0.0,0.0,0.0,0.0,0.0,0.0,0.0,0.0,0.0,0.0,0.0,0.0,0.0,0.0,0.0,0.0,0.0,0.0,0.0,0.0,0.0,0.0,0.0,0.0,0.0,0.0,0.0,0.0,0.0,0.0,0.0,0.0,0.0,0.0,0.0,0.0,0.0,0.0,0.0,0.0,0.0,0.0,0.0,0.0,0.0,0.0,0.0,0.0,0.0,0.0,0.0,0.0,0.0,0.0,0.0,0.0,0.0,0.0,0.0,0.0,0.0,0.0,0.0,0.0,0.0,0.0,0.0,0.0,0.0,0.0,0.0,0.0,0.0,0.0,0.0,0.0,0.0,0.0,0.0,0.0,0.0,0.0,0.0,0.0,0.0,0.0,0.0,0.0,0.0,0.0,0.0,0.0,0.0,0.0,0.0,0.0,0.0,0.0,0.0,0.0,0.0,0.0,0.0,0.0,0.0,0.0,0.0,0.0,0.0,0.0,0.0,0.0,0.0,0.0,0.0,0.0,0.0,0.0,0.0,0.0,0.0,0.0,0.0,0.0,0.0,0.0,0.0,0.0,0.0,0.0,0.0,0.0,0.0,0.0,0.0,0.0,0.0,0.0,0.0,0.0,0.0,0.0,0.0,0.0,0.0,0.0,0.0,0.0,0.0,0.0,0.0,0.0,0.0,0.0,0.0,0.0,0.0,0.0,0.0,0.0,0.0,0.0,0.0,0.0,0.0,0.0,0.0,0.0,0.0,0.0,0.0,0.0,0.0,0.0,0.0,0.0,0.0,0.0,0.0,0.0,0.0,0.0,0.0,0.0,0.0,0.0,0.0,0.0,0.0,0.0,0.0,0.0,0.0,0.0,0.0,0.0,0.0,0.0,0.0,0.0,0.0,0.0,0.0,0.0,0.0,0.0,0.0,0.0,0.0,0.0,0.0,0.0,0.0,0.0,0.0,0.0,0.0,0.0,0.0,0.0,0.0,0.0,0.0,0.0,0.0,0.0,0.0,0.0,0.0,0.0,0.0,0.0,0.0,0.0,0.0,0.0,0.0,0.0,0.0,0.0,0.0,0.0,0.0,0.0,0.0,0.0,0.0,0.0,0.0,0.0,0.0,0.0,0.0,0.0,0.0,0.0,0.0,0.0,0.0,0.0,0.0,0.0,0.0,0.0,0.0,0.0,0.0,0.0,0.0,0.0,0.0,0.0,0.0,0.0,0.0,0.0,0.0,0.0,0.0,0.0,0.0,0.0,0.0,0.0,0.0,0.0,0.0,0.0,0.0,0.0,0.0,0.0,0.0,0.0,0.0,0.0,0.0,0.0,0.0,0.0,0.0,0.0,0.0,0.0,0.0,0.0,0.0,0.0,0.0,0.0,0.0,0.0,0.0,0.0,0.0,0.0,0.0,0.0,0.0,0.0,0.0,0.0,0.0,0.0,0.0,0.0,0.0,0.0,0.0,0.0,0.0,0.0,0.0,0.0,0.0,0.0,0.0,0.0,0.0,0.0,0.0,0.0,0.0,0.0,0.0,0.0,0.0,0.0,0.0,0.0,0.0,0.0,0.0,0.0,0.0,0.0,0.0,0.0,0.0,0.0,0.0,0.0,0.0,0.0,0.0,0.0,0.0,0.0,0.0,0.0,0.0,0.0,0.0,0.0,0.0,0.0,0.0,0.0,0.0,0.0,0.0,0.0,0.0,0.0,0.0,0.0,0.0,0.0,0.0,0.0,0.0,0.0,0.0,0.0,0.0,2.7997,0.0,0.0,0.0,0.0,0.0,0.0,0.0,0.0,0.0,0.0,0.0,0.0,0.0,0.0,0.0,0.0,0.0,0.0,0.0,0.0,0.0,0.0,0.0,0.0,0.0,0.0,0.0,0.0,0.0,0.0,0.0,0.0,0.0,0.0,0.0,0.0,0.0,0.0,0.0,0.0,0.0,0.0,0.0,0.0,0.0,0.0,0.0,0.0,0.0,0.0,0.0,0.0,0.0,0.0,0.0,0.0,0.0,0.0,0.0,0.0,0.0,0.0,0.0,0.0,0.0,0.0,0.0,0.0,0.0,0.0,0.0,0.0,0.0,0.0,0.0,0.0,0.0,0.0,0.0,0.0,0.0,0.0,0.0,0.0,0.0,0.0,0.0,0.0,0.0,0.0,0.0,0.0,0.0,0.0,0.0,0.0,0.0,0.0,0.0,0.0,0.0,0.0,0.0,0.0,0.0,0.0,0.0,0.0,0.0,0.0,2.9335,2.9401,2.9408,2.9237,2.8838,0.0,0.0,0.0,0.0,0.0,0.0,0.0,0.0,0.0,0.0,0.0,0.0,0.0,0.0,0.0,0.0,0.0,0.0,0.0,0.0,0.0,0.0,0.0,0.0,0.0,0.0,0.0,0.0,0.0,0.0,0.0,0.0,0.0,0.0,0.0,0.0,0.0,0.0,0.0,0.0,0.0,0.0,0.0,0.0,0.0,0.0,0.0,0.0,0.0,0.0,0.0,0.0,0.0,0.0,0.0,0.0,0.0,0.0,0.0,0.0,0.0,0.0,0.0,0.0,0.0,0.0,0.0,0.0,0.0,0.0,0.0,0.0,0.0,0.0,0.0,0.0,0.0,0.0,0.0,0.0,0.0,0.0,0.0,0.0,0.0,0.0,0.0,0.0,0.0,0.0,0.0,0.0,0.0,0.0,0.0,0.0,0.0,0.0,0.0,0.0,0.0,0.0,0.0,0.0,0.0,0.0,0.0,0.0,0.0,0.0,0.0,0.0,3.0478,2.9968,2.8887,0.0,0.0,0.0,0.0,0.0,0.0,0.0,0.0,0.0,0.0,0.0,0.0,0.0,0.0,0.0,0.0,0.0,0.0,0.0,0.0,0.0,0.0,0.0,0.0,0.0,0.0,0.0,0.0,0.0,0.0,0.0,0.0,0.0,0.0,0.0,0.0,0.0,0.0,0.0,0.0,0.0,0.0,0.0,0.0,0.0,0.0,0.0,0.0,0.0,0.0,0.0,0.0,0.0,0.0,0.0,0.0,0.0,0.0,0.0,0.0,0.0,0.0,0.0,0.0,0.0,0.0,0.0,0.0,0.0,0.0,0.0,0.0,0.0,0.0,0.0,0.0,0.0,0.0,0.0,0.0,0.0,0.0,0.0,0.0,0.0,0.0,0.0,0.0,0.0,0.0,0.0,0.0,0.0,0.0,0.0,0.0,0.0,0.0,0.0,0.0,0.0,0.0,0.0,0.0,0.0,0.0,0.0,0.0,0.0,0.0,3.0496,3.0478,3.0496,0.0,2.7395,0.0,0.0,0.0,0.0,0.0,0.0,0.0,0.0,0.0,0.0,0.0,0.0,0.0,0.0,0.0,0.0,0.0,0.0,0.0,0.0,0.0,0.0,0.0,0.0,0.0,0.0,0.0,0.0,0.0,0.0,0.0,0.0,0.0,0.0,0.0,0.0,0.0,0.0,0.0,0.0,0.0,0.0,0.0,0.0,0.0,0.0,0.0,0.0,0.0,0.0,0.0,0.0,0.0,0.0,0.0,0.0,0.0,0.0,0.0,0.0,0.0,0.0,0.0,0.0,0.0,0.0,0.0,0.0,0.0,0.0,0.0,0.0,0.0,0.0,0.0,0.0,0.0,0.0,0.0,0.0,0.0,0.0,0.0,0.0,0.0,0.0,0.0,0.0,0.0,0.0,0.0,0.0,0.0,0.0,0.0,0.0,0.0,0.0,0.0,0.0,0.0,0.0,0.0,0.0,0.0,0.0,0.0,0.0,0.0,0.0,3.1928,3.1928,3.1011,3.0058,0.0,0.0,0.0,0.0,0.0,0.0,0.0,0.0,0.0,0.0,0.0,0.0,0.0,0.0,0.0,0.0,0.0,0.0,0.0,0.0,0.0,0.0,0.0,0.0,0.0,0.0,0.0,0.0,0.0,0.0,0.0,0.0,0.0,0.0,0.0,0.0,0.0,0.0,0.0,0.0,0.0,0.0,0.0,0.0,0.0,0.0,0.0,0.0,0.0,0.0,0.0,0.0,0.0,0.0,0.0,0.0,0.0,0.0,0.0,0.0,0.0,0.0,0.0,0.0,0.0,0.0,0.0,0.0,0.0,0.0,0.0,0.0,0.0,0.0,0.0,0.0,0.0,0.0,0.0,0.0,0.0,0.0,0.0,0.0,0.0,0.0,0.0,0.0,0.0,0.0,0.0,0.0,0.0,0.0,0.0,0.0,0.0,0.0,0.0,0.0,0.0,0.0,0.0,0.0,0.0,0.0,0.0,0.0,0.0,0.0,3.2553,0.0,3.2811,3.1332,3.03,2.9854,0.0,0.0,0.0,0.0,0.0,0.0,0.0,0.0,0.0,0.0,0.0,0.0,0.0,0.0,0.0,0.0,0.0,0.0,0.0,0.0,0.0,0.0,0.0,0.0,0.0,0.0,0.0,0.0,0.0,0.0,0.0,0.0,0.0,0.0,0.0,0.0,0.0,0.0,0.0,0.0,0.0,0.0,0.0,0.0,0.0,0.0,0.0,0.0,0.0,0.0,0.0,0.0,0.0,0.0,0.0,0.0,0.0,0.0,0.0,0.0,0.0,0.0,0.0,0.0,0.0,0.0,0.0,0.0,0.0,0.0,0.0,0.0,0.0,0.0,0.0,0.0,0.0,0.0,0.0,0.0,0.0,0.0,0.0,0.0,0.0,0.0,0.0,0.0,0.0,0.0,0.0,0.0,0.0,0.0,0.0,0.0,0.0,0.0,0.0,0.0,0.0,0.0,0.0,0.0,0.0,0.0,0.0,0.0,0.0,3.1732,3.2114,3.2829,3.1332,2.9801,0.0,0.0,0.0,0.0,0.0,0.0,0.0,0.0,0.0,0.0,0.0,0.0,0.0,0.0,0.0,0.0,0.0,0.0,0.0,0.0,0.0,0.0,0.0,0.0,0.0,0.0,0.0,0.0,0.0,0.0,0.0,0.0,0.0,0.0,0.0,0.0,0.0,0.0,0.0,0.0,0.0,0.0,0.0,0.0,0.0,0.0,0.0,0.0,0.0,0.0,0.0,0.0,0.0,0.0,0.0,0.0,0.0,0.0,0.0,0.0,0.0,0.0,0.0,0.0,0.0,0.0,0.0,0.0,0.0,0.0,0.0,0.0,0.0,0.0,0.0,0.0,0.0,0.0,0.0,0.0,0.0,0.0,0.0,0.0,0.0,0.0,0.0,0.0,0.0,0.0,0.0,0.0,0.0,0.0,0.0,0.0,0.0,0.0,0.0,0.0,0.0,0.0,0.0,0.0,0.0,0.0,0.0,0.0,0.0,3.0243,3.0689,3.1314,3.2017,3.0111,2.8748,0.0,0.0,0.0,0.0,0.0,0.0,0.0,0.0,0.0,0.0,0.0,0.0,0.0,0.0,0.0,0.0,0.0,0.0,0.0,0.0,0.0,0.0,0.0,0.0,0.0,0.0,0.0,0.0,0.0,0.0,0.0,0.0,0.0,0.0,0.0,0.0,0.0,0.0,0.0,0.0,0.0,0.0,0.0,0.0,0.0,0.0,0.0,0.0,0.0,0.0,0.0,0.0,0.0,0.0,0.0,0.0,0.0,0.0,0.0,0.0,0.0,0.0,0.0,0.0,0.0,0.0,0.0,0.0,0.0,0.0,0.0,0.0,0.0,0.0,0.0,0.0,0.0,0.0,0.0,0.0,0.0,0.0,0.0,0.0,0.0,0.0,0.0,0.0,0.0,0.0,0.0,0.0,0.0,0.0,0.0,0.0,0.0,0.0,0.0,0.0,0.0,0.0,0.0,0.0,0.0,0.0,0.0,0.0,0.0,2.9754,0.0,3.1161,0.0,2.9908,2.8595,0.0,0.0,0.0,0.0,0.0,0.0,0.0,0.0,0.0,0.0,0.0,0.0,0.0,0.0,0.0,0.0,0.0,0.0,0.0,0.0,0.0,0.0,0.0,0.0,0.0,0.0,0.0,0.0,0.0,0.0,0.0,0.0,0.0,0.0,0.0,0.0,0.0,0.0,0.0,0.0,0.0,0.0,0.0,0.0,0.0,0.0,0.0,0.0,0.0,0.0,0.0,0.0,0.0,0.0,0.0,0.0,0.0,0.0,0.0,0.0,0.0,0.0,0.0,0.0,0.0,0.0,0.0,0.0,0.0,0.0,0.0,0.0,0.0,0.0,0.0,0.0,0.0,0.0,0.0,0.0,0.0,0.0,0.0,0.0,0.0,0.0,0.0,0.0,0.0,0.0,0.0,0.0,0.0,0.0,0.0,0.0,0.0,0.0,0.0,0.0,0.0,0.0,0.0,0.0,0.0,0.0,0.0,0.0,2.8174,3.0396,3.1207,3.1571,3.1653,3.0789,2.9333,0.0,0.0,0.0,0.0,0.0,0.0,0.0,0.0,0.0,0.0,0.0,0.0,0.0,0.0,0.0,0.0,0.0,0.0,0.0,0.0,0.0,0.0,0.0,0.0,0.0,0.0,0.0,0.0,0.0,0.0,0.0,0.0,0.0,0.0,0.0,0.0,0.0,0.0,0.0,0.0,0.0,0.0,0.0,0.0,0.0,0.0,0.0,0.0,0.0,0.0,0.0,0.0,0.0,0.0,0.0,0.0,0.0,0.0,0.0,0.0,0.0,0.0,0.0,0.0,0.0,0.0,0.0,0.0,0.0,0.0,0.0,0.0,0.0,0.0,0.0,0.0,0.0,0.0,0.0,0.0,0.0,0.0,0.0,0.0,0.0,0.0,0.0,0.0,0.0,0.0,0.0,0.0,0.0,0.0,0.0,0.0,0.0,0.0,0.0,0.0,0.0,0.0,0.0,0.0,0.0,0.0,0.0,0.0,0.0,3.0414,3.0243,3.0368,3.0814,2.9587,2.8053,0.0,0.0,0.0,0.0,0.0,0.0,0.0,0.0,0.0,0.0,0.0,0.0,0.0,0.0,0.0,0.0,0.0,0.0,0.0,0.0,0.0,0.0,0.0,0.0,0.0,0.0,0.0,0.0,0.0,0.0,0.0,0.0,0.0,0.0,0.0,0.0,0.0,0.0,0.0,0.0,0.0,0.0,0.0,0.0,0.0,0.0,0.0,0.0,0.0,0.0,0.0,0.0,0.0,0.0,0.0,0.0,0.0,0.0,0.0,0.0,0.0,0.0,0.0,0.0,0.0,0.0,0.0,0.0,0.0,0.0,0.0,0.0,0.0,0.0,0.0,0.0,0.0,0.0,0.0,0.0,0.0,0.0,0.0,0.0,0.0,0.0,0.0,0.0,0.0,0.0,0.0,0.0,0.0,0.0,0.0,0.0,0.0,0.0,0.0,0.0,0.0,0.0,0.0,0.0,0.0,0.0,0.0,0.0,0.0,3.085,3.0493,3.0486,3.0932,2.9711,2.8327,2.6751,0.0,0.0,0.0,0.0,0.0,0.0,0.0,0.0,0.0,0.0,0.0,0.0,0.0,0.0,0.0,0.0,0.0,0.0,0.0,0.0,0.0,0.0,0.0,0.0,0.0,0.0,0.0,0.0,0.0,0.0,0.0,0.0,0.0,0.0,0.0,0.0,0.0,0.0,0.0,0.0,0.0,0.0,0.0,0.0,0.0,0.0,0.0,0.0,0.0,0.0,0.0,0.0,0.0,0.0,0.0,0.0,0.0,0.0,0.0,0.0,0.0,0.0,0.0,0.0,0.0,0.0,0.0,0.0,0.0,0.0,0.0,0.0,0.0,0.0,0.0,0.0,0.0,0.0,0.0,0.0,0.0,0.0,0.0,0.0,0.0,0.0,0.0,0.0,0.0,0.0,0.0,0.0,0.0,0.0,0.0,0.0,0.0,0.0,0.0,0.0,0.0,0.0,0.0,0.0,0.0,0.0,0.0,0.0,3.1678,3.1757,3.1732,3.1653,3.0939,2.9818,0.0,0.0,0.0,0.0,0.0,0.0,0.0,0.0,0.0,0.0,0.0,0.0,0.0,0.0,0.0,0.0,0.0,0.0,0.0,0.0,0.0,0.0,0.0,0.0,0.0,0.0,0.0,0.0,0.0,0.0,0.0,0.0,0.0,0.0,0.0,0.0,0.0,0.0,0.0,0.0,0.0,0.0,0.0,0.0,0.0,0.0,0.0,0.0,0.0,0.0,0.0,0.0,0.0,0.0,0.0,0.0,0.0,0.0,0.0,0.0,0.0,0.0,0.0,0.0,0.0,0.0,0.0,0.0,0.0,0.0,0.0,0.0,0.0,0.0,0.0,0.0,0.0,0.0,0.0,0.0,0.0,0.0,0.0,0.0,0.0,0.0,0.0,0.0,0.0,0.0,0.0,0.0,0.0,0.0,0.0,0.0,0.0,0.0,0.0,0.0,0.0,0.0,0.0,0.0,0.0,0.0,0.0,0.0,0.0,3.1734,3.2345,3.2358,3.1732,3.15,3.0379,0.0,0.0,0.0,0.0,0.0,0.0,0.0,0.0,0.0,0.0,0.0,0.0,0.0,0.0,0.0,0.0,0.0,0.0,0.0,0.0,0.0,0.0,0.0,0.0,0.0,0.0,0.0,0.0,0.0,0.0,0.0,0.0,0.0,0.0,0.0,0.0,0.0,0.0,0.0,0.0,0.0,0.0,0.0,0.0,0.0,0.0,0.0,0.0,0.0,0.0,0.0,0.0,0.0,0.0,0.0,0.0,0.0,0.0,0.0,0.0,0.0,0.0,0.0,0.0,0.0,0.0,0.0,0.0,0.0,0.0,0.0,0.0,0.0,0.0,0.0,0.0,0.0,0.0,0.0,0.0,0.0,0.0,0.0,0.0,0.0,0.0,0.0,0.0,0.0,0.0,0.0,0.0,0.0,0.0,0.0,0.0,0.0,0.0,0.0,0.0,0.0,0.0,0.0,0.0,0.0,0.0,0.0,0.0,3.2149,3.2832,3.3277,3.3417,3.3269,3.2255,3.0903,0.0,0.0,0.0,0.0,0.0,0.0,0.0,0.0,0.0,0.0,0.0,0.0,0.0,0.0,0.0,0.0,0.0,0.0,0.0,0.0,0.0,0.0,0.0,0.0,0.0,0.0,0.0,0.0,0.0,0.0,0.0,0.0,0.0,0.0,0.0,0.0,0.0,0.0,0.0,0.0,0.0,0.0,0.0,0.0,0.0,0.0,0.0,0.0,0.0,0.0,0.0,0.0,0.0,0.0,0.0,0.0,0.0,0.0,0.0,0.0,0.0,0.0,0.0,0.0,0.0,0.0,0.0,0.0,0.0,0.0,0.0,0.0,0.0,0.0,0.0,0.0,0.0,0.0,0.0,0.0,0.0,0.0,0.0,0.0,0.0,0.0,0.0,0.0,0.0,0.0,0.0,0.0,0.0,0.0,0.0,0.0,0.0,0.0,0.0,0.0,0.0,0.0,0.0,0.0,0.0,0.0,0.0,0.0,3.3605,3.4419,3.4283,3.4557,3.5178,3.3039,3.1439,0.0,0.0,0.0,0.0,0.0,0.0,0.0,0.0,0.0,0.0,0.0,0.0,0.0,0.0,0.0,0.0,0.0,0.0,0.0,0.0,0.0,0.0,0.0,0.0,0.0,0.0,0.0,0.0,0.0,0.0,0.0,0.0,0.0,0.0,0.0,0.0,0.0,0.0,0.0,0.0,0.0,0.0,0.0,0.0,0.0,0.0,0.0,0.0,0.0,0.0,0.0,0.0,0.0,0.0,0.0,0.0,0.0,0.0,0.0,0.0,0.0,0.0,0.0,0.0,0.0,0.0,0.0,0.0,0.0,0.0,0.0,0.0,0.0,0.0,0.0,0.0,0.0,0.0,0.0,0.0,0.0,0.0,0.0,0.0,0.0,0.0,0.0,0.0,0.0,0.0,0.0,0.0,0.0,0.0,0.0,0.0,0.0,0.0,0.0,0.0,0.0,0.0,0.0,0.0,0.0,0.0,0.0,0.0,3.4006,3.5341,3.4669,3.4337,3.4432,3.3287,3.2257,0.0,0.0,0.0,0.0,0.0,0.0,0.0,0.0,0.0,0.0,0.0,0.0,0.0,0.0,0.0,0.0,0.0,0.0,0.0,0.0,0.0,0.0,0.0,0.0,0.0,0.0,0.0,0.0,0.0,0.0,0.0,0.0,0.0,0.0,0.0,0.0,0.0,0.0,0.0,0.0,0.0,0.0,0.0,0.0,0.0,0.0,0.0,0.0,3.6561,0.0,0.0,0.0,0.0,0.0,0.0,0.0,0.0,0.0,0.0,0.0,0.0,0.0,0.0,0.0,0.0,0.0,0.0,0.0,0.0,0.0,0.0,0.0,0.0,0.0,0.0,0.0,0.0,0.0,0.0,0.0,0.0,0.0,0.0,0.0,0.0,0.0,0.0,0.0,0.0,0.0,0.0,0.0,0.0,0.0,0.0,0.0,0.0,0.0,0.0,0.0,0.0,0.0,0.0,0.0,0.0,0.0,0.0,0.0,3.5098,3.6242,3.5365,3.5024,3.5306,3.3768,3.2347,0.0,0.0,0.0,0.0,0.0,0.0,0.0,0.0,0.0,0.0,0.0,0.0,0.0,0.0,0.0,0.0,0.0,0.0,0.0,0.0,0.0,0.0,0.0,0.0,0.0,0.0,0.0,0.0,0.0,0.0,0.0,0.0,0.0,0.0,0.0,0.0,0.0,0.0,0.0,0.0,0.0,0.0,0.0,0.0,0.0,0.0,0.0,0.0,0.0,0.0,0.0,0.0,0.0,0.0,0.0,0.0,0.0,0.0,0.0,0.0,0.0,0.0,0.0,0.0,0.0,0.0,0.0,0.0,0.0,0.0,0.0,0.0,0.0,0.0,0.0,0.0,0.0,0.0,0.0,0.0,0.0,0.0,0.0,0.0,0.0,0.0,0.0,0.0,0.0,0.0,0.0,0.0,0.0,0.0,0.0,0.0,0.0,0.0,0.0,0.0,0.0,0.0,0.0,0.0,0.0,0.0,0.0,3.4635,3.6182,3.6922,3.6035,3.5792,3.6272,3.4005,3.2033,3.0557,0.0,0.0,0.0,0.0,0.0,0.0,0.0,0.0,0.0,0.0,0.0,0.0,0.0,0.0,0.0,0.0,0.0,0.0,0.0,0.0,0.0,0.0,0.0,0.0,0.0,0.0,0.0,0.0,0.0,0.0,0.0,0.0,0.0,0.0,0.0,0.0,0.0,0.0,3.3777,3.5791,0.0,0.0,0.0,0.0,0.0,0.0,0.0,0.0,3.9452,0.0,0.0,0.0,0.0,0.0,0.0,0.0,0.0,0.0,0.0,0.0,0.0,0.0,0.0,0.0,0.0,0.0,0.0,0.0,0.0,0.0,0.0,0.0,0.0,0.0,0.0,0.0,0.0,0.0,0.0,0.0,0.0,0.0,0.0,0.0,0.0,0.0,0.0,0.0,0.0,0.0,0.0,0.0,0.0,0.0,0.0,0.0,0.0,0.0,0.0,0.0,0.0,0.0,0.0,0.0,0.0,3.3176,3.4925,3.6192,3.6959,3.6128,3.5353,3.4691,3.2916,3.1515,3.0539,0.0,0.0,0.0,0.0,0.0,0.0,0.0,0.0,0.0,0.0,0.0,0.0,0.0,0.0,0.0,0.0,0.0,0.0,0.0,0.0,0.0,0.0,0.0,0.0,0.0,0.0,0.0,0.0,0.0,0.0,0.0,0.0,0.0,0.0,0.0,0.0,0.0,0.0,0.0,3.7527,3.8597,0.0,0.0,0.0,0.0,0.0,0.0,0.0,0.0,3.953,0.0,0.0,0.0,0.0,0.0,0.0,0.0,0.0,0.0,0.0,0.0,0.0,0.0,0.0,0.0,0.0,0.0,0.0,0.0,0.0,0.0,0.0,0.0,0.0,0.0,0.0,0.0,0.0,0.0,0.0,0.0,0.0,0.0,0.0,0.0,0.0,0.0,0.0,0.0,0.0,0.0,0.0,0.0,0.0,0.0,0.0,0.0,0.0,0.0,0.0,0.0,0.0,0.0,0.0,0.0,3.3447,3.5385,3.6606,3.6959,3.6077,3.5187,3.4305,3.2634,3.1359,0.0,0.0,0.0,0.0,0.0,0.0,0.0,0.0,0.0,0.0,0.0,0.0,0.0,0.0,0.0,0.0,0.0,0.0,0.0,0.0,0.0,0.0,0.0,0.0,0.0,0.0,0.0,0.0,0.0,0.0,0.0,0.0,0.0,0.0,0.0,0.0,0.0,0.0,0.0,0.0,3.8676,3.9379,3.9755,0.0,0.0,0.0,0.0,0.0,0.0,3.9753,3.9728,0.0,0.0,0.0,0.0,0.0,0.0,0.0,0.0,0.0,0.0,0.0,0.0,0.0,0.0,0.0,0.0,0.0,0.0,0.0,0.0,0.0,0.0,0.0,0.0,0.0,0.0,0.0,0.0,0.0,0.0,0.0,0.0,0.0,0.0,0.0,0.0,0.0,0.0,0.0,0.0,0.0,0.0,0.0,0.0,0.0,0.0,0.0,0.0,0.0,0.0,0.0,0.0,0.0,0.0,0.0,3.3675,3.5864,3.6995,3.6959,3.6069,3.5153,3.4287,3.2483,3.1183,0.0,0.0,0.0,0.0,0.0,0.0,0.0,0.0,0.0,0.0,0.0,0.0,0.0,0.0,0.0,0.0,0.0,0.0,0.0,0.0,0.0,0.0,0.0,0.0,0.0,0.0,0.0,0.0,0.0,0.0,0.0,0.0,0.0,0.0,0.0,0.0,0.0,0.0,0.0,0.0,0.0,4.0243,4.0426,4.1032,0.0,0.0,0.0,0.0,4.0228,4.0292,0.0,0.0,0.0,0.0,0.0,0.0,0.0,0.0,0.0,0.0,0.0,0.0,0.0,0.0,0.0,0.0,0.0,0.0,0.0,0.0,0.0,0.0,0.0,0.0,0.0,0.0,0.0,0.0,0.0,0.0,0.0,0.0,0.0,0.0,0.0,0.0,0.0,0.0,0.0,0.0,0.0,0.0,0.0,0.0,0.0,0.0,0.0,0.0,0.0,0.0,0.0,0.0,0.0,0.0,0.0,0.0,3.4454,3.6135,3.6995,3.6959,3.6202,3.5293,3.4295,3.2102,3.0772,0.0,0.0,0.0,0.0,0.0,0.0,0.0,0.0,0.0,0.0,0.0,0.0,0.0,0.0,0.0,0.0,0.0,0.0,0.0,0.0,0.0,0.0,0.0,0.0,0.0,0.0,0.0,0.0,0.0,0.0,0.0,0.0,0.0,0.0,0.0,0.0,0.0,0.0,0.0,0.0,0.0,4.1431,4.2189,4.2341,4.2343,0.0,0.0,4.2028,4.1343,4.1765,0.0,0.0,0.0,0.0,0.0,0.0,0.0,0.0,0.0,0.0,0.0,0.0,0.0,0.0,0.0,0.0,0.0,0.0,0.0,0.0,0.0,0.0,0.0,0.0,0.0,0.0,0.0,0.0,0.0,0.0,0.0,0.0,0.0,0.0,0.0,0.0,0.0,0.0,0.0,0.0,0.0,0.0,0.0,0.0,0.0,0.0,0.0,0.0,0.0,0.0,0.0,0.0,0.0,0.0,0.0,3.323,3.3965,3.6389,3.7458,3.6995,3.6186,3.5319,3.4438,3.2038,3.07,0.0,0.0,0.0,0.0,0.0,0.0,0.0,0.0,0.0,0.0,0.0,0.0,0.0,0.0,0.0,0.0,0.0,0.0,0.0,0.0,0.0,0.0,0.0,0.0,0.0,0.0,0.0,0.0,0.0,0.0,0.0,0.0,0.0,0.0,0.0,0.0,0.0,0.0,0.0,0.0,0.0,0.0,4.2634,4.2993,0.0,0.0,0.0,4.2487,4.2139,0.0,0.0,0.0,0.0,0.0,0.0,0.0,0.0,0.0,0.0,0.0,0.0,0.0,0.0,0.0,0.0,0.0,0.0,0.0,0.0,0.0,0.0,0.0,0.0,0.0,0.0,0.0,0.0,0.0,0.0,0.0,0.0,0.0,0.0,0.0,0.0,0.0,0.0,0.0,0.0,0.0,0.0,0.0,0.0,0.0,0.0,0.0,0.0,0.0,0.0,0.0,0.0,0.0,0.0,0.0,0.0,0.0,3.4045,3.6769,3.7919,3.7321,3.6476,3.565,3.4798,3.2571,0.0,0.0,0.0,0.0,0.0,0.0,0.0,0.0,0.0,0.0,0.0,0.0,0.0,0.0,0.0,0.0,0.0,0.0,0.0,0.0,0.0,0.0,0.0,0.0,0.0,0.0,0.0,3.2337,0.0,0.0,0.0,0.0,0.0,0.0,0.0,0.0,0.0,0.0,0.0,0.0,0.0,0.0,4.3746,4.3324,4.3814,4.3994,0.0,0.0,4.3196,4.2995,4.2572,4.2134,0.0,0.0,0.0,0.0,0.0,0.0,0.0,0.0,0.0,0.0,0.0,0.0,0.0,0.0,0.0,0.0,0.0,0.0,0.0,0.0,0.0,0.0,0.0,0.0,0.0,0.0,0.0,0.0,0.0,0.0,0.0,0.0,0.0,0.0,0.0,0.0,0.0,0.0,0.0,0.0,0.0,0.0,0.0,0.0,0.0,0.0,0.0,0.0,0.0,0.0,0.0,0.0,0.0,0.0,0.0,3.5641,3.7323,3.8164,3.8092,3.7331,3.6502,3.5634,3.4019,3.2379,0.0,0.0,0.0,0.0,0.0,0.0,0.0,0.0,0.0,0.0,0.0,0.0,0.0,0.0,0.0,0.0,0.0,0.0,0.0,0.0,0.0,0.0,0.0,0.0,0.0,0.0,0.0,0.0,0.0,0.0,0.0,0.0,0.0,0.0,0.0,0.0,0.0,0.0,0.0,0.0,0.0,4.4186,4.5,4.5115,4.5118,0.0,0.0,4.4833,4.4039,4.4469,4.4424,4.2846,0.0,0.0,0.0,0.0,0.0,0.0,0.0,0.0,0.0,0.0,0.0,0.0,0.0,0.0,0.0,0.0,0.0,0.0,0.0,0.0,0.0,0.0,0.0,0.0,0.0,0.0,0.0,0.0,0.0,0.0,0.0,0.0,0.0,0.0,0.0,0.0,0.0,0.0,0.0,0.0,0.0,0.0,0.0,0.0,0.0,0.0,0.0,0.0,0.0,0.0,0.0,0.0,0.0,3.419,3.5786,3.7385,3.8418,3.8871,3.7657,3.6842,3.652,3.4418,3.2776,0.0,0.0,0.0,0.0,0.0,0.0,0.0,0.0,0.0,0.0,0.0,0.0,0.0,0.0,0.0,0.0,0.0,0.0,0.0,0.0,0.0,0.0,0.0,0.0,0.0,0.0,0.0,0.0,3.7408,3.7826,3.8396,0.0,0.0,0.0,0.0,0.0,0.0,0.0,0.0,0.0,0.0,4.4894,4.5239,4.5286,0.0,0.0,4.5283,4.5187,4.4857,4.4567,4.4186,4.3543,4.3267,0.0,0.0,0.0,0.0,0.0,0.0,0.0,0.0,0.0,0.0,0.0,0.0,0.0,0.0,0.0,0.0,0.0,0.0,0.0,0.0,0.0,0.0,0.0,0.0,0.0,0.0,0.0,0.0,0.0,0.0,0.0,0.0,0.0,0.0,0.0,0.0,0.0,0.0,0.0,0.0,0.0,0.0,0.0,0.0,0.0,0.0,0.0,0.0,0.0,0.0,0.0,0.0,3.4914,3.6508,3.7848,3.8834,3.9396,3.8064,3.723,3.6959,3.5325,3.3804,0.0,0.0,0.0,0.0,0.0,0.0,0.0,0.0,0.0,0.0,0.0,0.0,0.0,0.0,0.0,0.0,0.0,0.0,0.0,0.0,0.0,0.0,0.0,0.0,0.0,0.0,0.0,0.0,3.9754,4.0081,4.0942,0.0,0.0,0.0,0.0,0.0,0.0,0.0,0.0,0.0,0.0,4.5588,4.534,4.5283,4.5283,4.5283,4.5283,4.5283,4.5283,4.494,4.4666,4.4671,0.0,0.0,0.0,0.0,0.0,0.0,0.0,0.0,0.0,0.0,0.0,0.0,0.0,0.0,0.0,0.0,0.0,0.0,0.0,0.0,0.0,0.0,0.0,0.0,0.0,0.0,0.0,0.0,0.0,0.0,3.134,0.0,0.0,0.0,0.0,0.0,0.0,0.0,0.0,0.0,0.0,0.0,0.0,0.0,0.0,0.0,0.0,0.0,0.0,0.0,0.0,0.0,0.0,3.6526,3.8128,3.8943,3.9378,3.9396,3.8599,3.7802,3.7049,3.6922,3.5791,3.344,0.0,0.0,0.0,0.0,0.0,0.0,0.0,0.0,0.0,0.0,0.0,0.0,0.0,0.0,0.0,0.0,0.0,0.0,0.0,0.0,0.0,0.0,0.0,0.0,0.0,0.0,4.2268,4.2312,4.2615,0.0,0.0,0.0,0.0,0.0,0.0,0.0,0.0,0.0,0.0,4.5965,4.6214,4.5436,4.5321,4.5378,4.5335,4.534,4.5321,4.5359,4.5965,4.6462,0.0,0.0,0.0,0.0,0.0,0.0,0.0,0.0,0.0,0.0,0.0,0.0,0.0,0.0,0.0,0.0,0.0,0.0,0.0,0.0,0.0,0.0,0.0,0.0,0.0,0.0,0.0,3.5575,3.5343,0.0,0.0,0.0,0.0,0.0,0.0,0.0,0.0,0.0,0.0,0.0,3.9149,3.9675,0.0,0.0,0.0,0.0,0.0,0.0,0.0,0.0,0.0,0.0,0.0,0.0,3.7434,3.897,3.9749,4.0139,4.0103,3.9387,3.8617,3.7828,3.7285,3.6117,3.4255,0.0,0.0,0.0,0.0,0.0,0.0,0.0,0.0,0.0,0.0,0.0,0.0,0.0,0.0,0.0,0.0,0.0,0.0,0.0,0.0,0.0,0.0,0.0,0.0,0.0,4.3829,0.0,0.0,0.0,0.0,0.0,0.0,0.0,0.0,0.0,0.0,0.0,4.7211,4.6986,4.7201,4.7278,4.6997,4.6953,4.6972,0.0,0.0,0.0,0.0,0.0,0.0,0.0,0.0,0.0,0.0,0.0,0.0,0.0,0.0,4.9239,4.6749,4.6292,4.5855,4.4448,0.0,0.0,0.0,0.0,0.0,0.0,0.0,0.0,0.0,0.0,0.0,0.0,0.0,0.0,3.828,0.0,3.7647,0.0,0.0,0.0,0.0,0.0,0.0,0.0,0.0,4.009,4.101,4.1518,4.1759,4.2069,0.0,4.1919,4.0308,0.0,0.0,0.0,0.0,0.0,0.0,0.0,0.0,3.8955,4.0166,4.0664,4.08,4.0483,3.9786,3.9015,3.8218,3.743,3.6371,3.5069,3.3818,3.3122,0.0,0.0,0.0,0.0,0.0,0.0,0.0,0.0,0.0,0.0,0.0,0.0,0.0,0.0,0.0,0.0,0.0,0.0,0.0,0.0,0.0,0.0,0.0,4.4383,0.0,0.0,0.0,0.0,0.0,0.0,0.0,0.0,0.0,4.7385,4.7846,4.8193,4.8252,4.8258,4.8157,4.7845,0.0,0.0,0.0,0.0,0.0,0.0,0.0,4.9125,4.9131,4.9824,5.0384,5.0384,5.1265,5.2037,5.2361,0.0,0.0,4.9428,4.868,4.8051,4.6686,4.666,4.6919,4.7249,4.7118,4.7051,0.0,0.0,0.0,0.0,0.0,0.0,0.0,0.0,4.1055,4.079,0.0,4.004,0.0,0.0,0.0,0.0,0.0,0.0,0.0,0.0,4.2854,4.3743,4.3477,4.4001,4.4076,4.3648,4.3555,4.3083,4.2159,4.0491,0.0,0.0,0.0,0.0,0.0,0.0,4.1061,4.1642,4.1714,4.1361,4.0555,3.9858,3.9106,3.8327,3.7548,3.6796,3.6006,3.5473,3.4841,3.4193,3.4387,0.0,0.0,0.0,0.0,0.0,0.0,0.0,0.0,0.0,0.0,0.0,0.0,0.0,0.0,0.0,0.0,0.0,0.0,0.0,0.0,4.3758,0.0,0.0,0.0,0.0,0.0,0.0,0.0,0.0,0.0,0.0,4.9297,4.9242,4.9219,4.9238,0.0,0.0,0.0,0.0,4.9238,4.9238,4.9882,5.0372,5.0378,5.106,5.1614,5.1595,0.0,0.0,5.2862,5.2868,5.3168,5.3964,5.4116,5.3588,5.1866,5.0805,4.993,4.9111,4.8347,4.8128,4.875,4.8422,4.817,4.4982,0.0,0.0,0.0,0.0,4.3756,4.3768,4.3688,4.3556,4.3176,4.2624,4.2454,0.0,0.0,0.0,0.0,0.0,0.0,4.2867,4.2736,4.3912,4.447,4.448,4.4657,4.4663,4.453,4.4511,4.4372,4.412,4.3604,4.2567,4.1045,0.0,0.0,0.0,0.0,4.1694,4.1723,4.2257,4.2176,4.1361,4.1153,4.0664,3.9849,3.9623,3.9488,3.9487,3.8622,3.832,3.8638,3.7444,0.0,0.0,0.0,0.0,0.0,0.0,0.0,0.0,0.0,0.0,0.0,0.0,0.0,0.0,0.0,0.0,0.0,0.0,0.0,4.4497,4.5122,4.5811,0.0,0.0,0.0,0.0,0.0,0.0,0.0,0.0,0.0,5.2425,5.208,5.1741,0.0,0.0,5.1664,5.141,5.1588,5.1741,5.1741,0.0,0.0,0.0,5.2295,5.2442,5.2461,5.3168,5.3932,5.4537,5.4658,5.4734,5.4995,5.5014,5.4836,5.4346,5.3022,5.1801,5.0974,5.0146,4.9648,4.9839,4.9717,4.9647,4.799,4.7414,4.6148,4.5611,4.5637,4.5741,4.5767,4.5728,4.5824,4.5583,4.5116,4.517,4.4969,4.4564,4.457,0.0,0.0,0.0,4.5054,4.5073,4.5558,4.5805,4.588,4.5899,4.588,4.5899,4.5899,4.5899,4.5899,4.5899,4.5249,4.3938,0.0,0.0,4.2042,4.2344,4.2476,4.2395,4.2713,4.2529,4.1723,4.1379,4.099,4.0519,4.0555,4.0728,4.1029,4.0583,4.0603,4.1191,3.9921,3.9161,0.0,0.0,0.0,0.0,0.0,0.0,0.0,0.0,0.0,0.0,0.0,4.0923,4.2085,0.0,0.0,0.0,4.4497,4.516,4.6297,4.6891,0.0,0.0,0.0,0.0,0.0,0.0,0.0,5.2596,5.3067,5.3686,5.4758,5.4807,5.4358,5.3448,5.3021,5.2792,5.2792,0.0,5.3307,5.3327,5.3607,5.3836,5.3836,5.3836,5.3817,5.3836,5.4237,5.4753,5.5263,5.5396,5.5396,5.5396,5.5396,5.5396,5.5396,5.4256,5.3187,5.2665,5.1614,5.0856,5.0812,5.0544,5.0296,5.0506,5.0317,4.8517,4.7634,4.7481,4.7706,4.7718,4.7549,4.7798,4.7817,4.7714,4.776,4.7754,4.7691,4.7638,0.0,4.7492,4.7441,4.7365,4.7397,4.7397,4.7397,4.7397,4.7378,4.7397,4.7378,4.7397,4.7397,4.7378,4.7378,4.7325,4.7132,4.526,4.414,4.3802,4.3322,4.3187,4.3354,4.306,4.2547,4.1795,4.1062,4.0709,4.0736,4.0825,4.1041,4.1293,4.1679,4.2025,4.2341,4.1851,4.1215,4.0436,0.0,0.0,0.0,0.0,0.0,0.0,0.0,0.0,0.0,0.0,0.0,0.0,0.0,0.0,0.0,4.5956,0.0,4.8825,4.9052,0.0,0.0,0.0,5.262,5.2696,5.4079,5.5034,5.5091,0.0,0.0,5.6386,0.0,5.6778,5.4562,5.3594,5.3072,5.3015,5.3722,5.4199,5.4199,5.4868,5.5358,5.5224,5.5244,5.5224,5.5224,5.5396,5.5358,5.5396,5.5396,5.5396,5.5396,5.5396,5.5396,5.5396,5.4728,5.4199,5.4161,5.2843,5.1691,5.1652,5.1137,5.0627,5.2199,5.2155,5.1687,5.0747,4.9572,4.9626,4.9276,4.8724,4.8757,4.8399,4.7766,4.7737,4.7691,4.7614,4.7602,4.7559,4.7498,4.7485,4.7448,4.7397,4.7397,4.7397,4.7397,4.7397,4.7397,4.7397,4.7397,4.7397,4.7397,4.7397,4.7259,4.6972,4.6424,4.5691,4.4759,4.3703,4.3187,4.3169,4.2994,4.2801,4.2629,4.2411,4.2376,4.2459,4.2514,4.2711,4.3064,4.3175,4.3498,4.4044,4.3359,4.2956,4.2971,4.0983,0.0,0.0,0.0,0.0,0.0,0.0,0.0,0.0,0.0,4.3549,4.4535,0.0,4.5937,0.0,4.8161,4.9696,5.1376,5.2115,0.0,0.0,5.4067,5.4572,5.5223,5.564,5.6114,5.6739,5.7001,5.7153,5.7214,5.7388,5.7129,5.5992,5.5723,5.5427,5.4893,5.4938,5.5091,5.5097,5.5244,5.5396,5.5396,5.5396,5.5396,5.5396,5.5396,5.5396,5.5396,5.5396,5.5396,5.5396,5.5396,5.5396,5.539,5.5205,5.5091,5.4995,5.3722,5.2524,5.2499,5.2327,5.2027,5.2792,5.2792,5.2792,5.2257,5.1391,5.1028,5.0417,4.9633,4.9639,4.9354,4.8861,4.8772,4.8731,4.8669,4.8656,4.8618,4.8573,4.8573,4.8554,4.8528,4.8521,4.8521,4.8521,4.8521,4.8521,4.8521,4.8502,4.8521,4.8521,4.8521,4.8422,4.8233,4.7702,4.7106,4.6484,4.4753,4.3915,4.3986,4.3333,4.2975,4.291,4.291,4.2965,4.3095,4.3123,4.3375,4.3876,4.3941,4.4246,4.4827,4.4433,4.4112,4.3893,4.2571,4.1627,0.0,0.0,0.0,0.0,0.0,0.0,0.0,0.0,0.0,0.0,0.0,4.7972,4.95,5.1149,5.2646,5.3973,5.4844,5.5527,5.5962,5.6368,5.6777,5.7278,5.7638,5.8009,5.8472,5.851,5.8526,5.8565,5.8554,5.83,5.7566,5.7173,5.6544,5.5548,5.5358,5.5396,5.5396,5.5396,5.5396,5.5396,5.5396,5.5396,5.5396,5.5396,5.5396,5.5396,5.5396,5.539,5.5326,5.53,5.5287,5.528,5.528,5.53,5.5186,5.4562,5.3824,5.3435,5.3078,5.2633,5.3135,5.3129,5.3135,5.3072,5.2907,5.22,5.1411,5.0615,5.0609,5.0573,5.0487,5.0437,5.0354,5.0314,5.0295,5.0262,5.0227,5.0227,5.0227,5.0208,5.0113,5.0057,5.0075,4.9962,4.9893,4.9893,4.9893,4.9893,4.9893,4.9893,4.9893,4.986,4.889,4.843,4.8377,4.6261,4.5182,4.5222,4.3969,4.325,4.3131,4.2984,4.2975,4.3114,4.3215,4.3513,4.4056,4.4228,4.4525,4.5003,4.5136,4.4838,4.4097,4.3969,4.3599,0.0,4.3583,0.0,0.0,0.0,0.0,0.0,0.0,0.0,0.0,4.9715,5.0492,5.2847,5.4371,5.5621,5.6588,5.7297,5.7706,5.7725,5.8396,5.8851,5.8889,5.9476,5.9912,5.9912,5.9912,5.9912,5.9837,5.9912,5.9614,5.8794,5.8122,5.711,5.5689,5.5363,5.5345,5.5364,5.5396,5.5396,5.5396,5.5396,5.539,5.5371,5.539,5.539,5.5364,5.5364,5.5332,5.5229,5.5203,5.5157,5.5114,5.5155,5.5177,5.5196,5.5101,5.4873,5.4333,5.3728,5.3092,5.4906,5.49,5.4925,5.4473,5.3766,5.3614,5.3061,5.2241,5.2247,5.2177,5.2084,5.2064,5.2016,5.194,5.194,5.1933,5.1919,5.1926,5.1938,5.19,5.1256,5.0959,5.0921,5.0227,4.9893,4.9893,4.9893,4.9893,4.9893,4.9893,4.9893,4.9905,4.9617,4.9476,4.9369,0.0,0.0,0.0,4.4978,4.4389,4.4326,4.3506,4.3142,4.3259,4.3375,0.0,4.3937,4.4221,4.4476,4.4699,4.4961,0.0,0.0,0.0,0.0,0.0,0.0,0.0,0.0,0.0,0.0,0.0,5.0892,5.1161,5.1028,5.2646,5.4484,5.6266,5.6739,5.7535,5.9059,5.9325,5.942,5.9439,5.9571,5.9666,5.9666,5.9818,5.9912,5.9912,5.9912,5.9912,5.9912,5.9912,5.9617,5.8894,5.8626,5.7882,5.6354,5.5627,5.52,5.5235,5.5319,5.539,5.5396,5.539,5.5351,5.5287,5.5332,5.5351,5.5261,5.5248,5.5248,5.5203,5.5143,5.5114,5.5113,5.5114,5.5121,5.5121,5.5121,5.5085,5.4999,5.4801,5.4468,5.5975,0.0,5.5484,5.5006,0.0,5.4539,5.429,5.3781,5.2995,5.2587,5.2493,5.247,5.2428,5.2393,5.2393,5.2393,5.2393,5.2393,5.2393,5.2393,5.1976,5.1786,5.1767,5.094,5.0542,5.0523,5.0113,4.9893,4.9893,4.9893,4.9893,4.9893,4.9864,4.983,4.9795,4.9289,4.81,4.6164,4.5611,4.5232,4.5002,4.4459,4.4325,4.4617,0.0,0.0,0.0,0.0,0.0,0.0,0.0,0.0,0.0,0.0,0.0,4.6808,4.7239,4.8017,4.9302,5.0502,5.1361,5.1835,5.3343,5.3935,5.3094,5.5697,5.7543,5.7998,5.8388,5.8984,5.978,5.9912,5.9912,5.9912,5.9912,5.9912,5.9912,5.9912,5.9912,5.9912,5.9912,5.9912,5.9912,5.9912,5.9742,5.9344,5.8959,5.8459,5.7575,5.6468,5.5647,5.5244,5.5202,5.526,5.526,5.526,5.5234,5.5169,5.5202,5.5227,5.5162,5.5155,5.5149,5.5107,5.5066,5.5031,5.5014,5.5028,5.5057,5.5045,5.5045,5.5071,5.5094,5.5094,5.4998,5.6743,5.6631,5.5914,5.558,5.551,5.5384,5.519,5.4909,0.0,0.0,0.0,5.2876,5.2847,5.2828,5.2847,5.2847,5.2847,5.2847,5.2847,5.2828,5.2696,5.262,5.2582,5.1786,5.1407,5.1388,5.0682,5.0341,5.0341,5.0341,5.0341,5.0341,5.0341,5.0341,5.0341,5.0134,4.8938,4.6813,4.6508,4.6192,4.5833,4.5639,4.5736,4.6121,4.5493,4.574,4.6951,4.6379,4.6473,4.7333,4.7599,4.7713,4.7726,4.784,4.8289,4.9078,4.9753,5.058,5.1578,5.226,5.2771,5.3037,5.528,5.6323,5.5621,5.8226,5.9628,5.8965,5.9514,5.9893,5.9912,5.9912,5.9912,5.9912,5.9912,5.9912,5.9912,5.9912,5.9912,5.9912,5.9912,5.9912,5.9912,5.9912,5.9912,5.9818,5.9352,5.8813,5.8545,5.7267,5.6081,5.5529,5.5291,5.5107,5.5101,5.5107,5.5094,5.5106,5.5094,5.5094,5.508,5.508,5.5071,5.5009,5.4992,5.4956,5.4923,5.4941,5.4978,5.4978,5.4985,5.4997,5.5004,5.5035,5.5045,5.7442,5.7434,5.7316,5.7234,5.7104,5.6427,5.5654,5.4916,5.4658,5.4582,5.4575,5.4549,5.4534,5.4534,5.4553,5.4541,5.456,5.456,5.456,0.0,5.3833,5.3518,5.348,5.2639,5.2222,5.2222,5.2089,5.2051,5.2051,5.2014,5.2051,5.2032,5.2051,5.2032,5.198,5.1039,5.0188,4.9504,4.844,4.7855,4.7793,4.6903,4.6483,4.6584,4.6564,4.6682,4.7064,4.7066,4.7092,4.7331,4.8085,4.8534,4.8553,4.9198,4.995,5.0782,5.0952,5.1691,5.3215,5.3454,5.4143,5.5583,5.7335,5.8282,5.8226,5.9211,5.9856,5.9723,5.9818,5.9912,5.9912,5.9912,5.9912,5.9912,5.9912,5.9912,5.9912,5.9912,5.9912,5.9912,5.9912,5.995,5.9969,5.995,5.9969,5.9931,5.9837,5.9514,5.8791,5.7336,5.6382,5.6073,5.5534,5.5151,5.5156,5.5113,5.5078,5.5028,5.5071,5.5078,5.5028,5.5002,5.5014,5.5,5.4968,5.4923,5.4901,5.4901,5.4923,5.4923,5.4923,5.4923,5.4923,5.4919,5.4927,5.8292,5.8179,5.7749,5.7514,5.7408,5.7047,5.6664,5.6228,5.5773,5.5337,5.492,5.4901,5.4901,5.4901,5.4901,5.4901,5.4901,5.4901,5.4901,5.492,5.5015,5.5053,5.5015,5.4655,5.4465,5.4408,5.351,5.3094,5.3075,5.2639,5.2393,5.2393,5.2393,5.2393,5.2366,5.1838,5.1496,5.131,4.9482,4.8437,4.827,4.7958,4.8134,4.877,4.8434,4.8788,4.9934,4.9573,4.9595,5.004,5.0472,5.0713,5.0713,5.1054,5.1642,5.2487,5.298,5.3757,5.4977,5.547,5.6228,5.7448,5.8244,5.8889,5.9325,5.9685,5.9893,5.9912,5.9912,5.9912,5.9912,5.9912,5.9912,5.9912,5.9912,5.9912,5.9912,5.9912,5.9912,5.995,6.0291,6.0538,6.0538,6.0557,6.0557,6.0557,6.0557,6.0386,6.0026,5.9008,5.7901,5.7028,5.6223,5.5771,5.5676,5.5277,5.5028,5.4953,5.4982,5.499,5.4941,5.4934,5.4934,5.4934,5.4916,5.4901,5.4901,5.4901,5.4901,5.4901,5.4901,5.4901,5.4901,5.4901,5.4901,5.9095,5.8965,5.8338,5.7901,5.7695,5.7695,5.7581,5.7346,5.672,5.6095,5.547,5.5091,5.4996,5.5185,5.5185,5.5299,5.5451,5.547,5.547,5.5546,5.6152,5.6474,5.6474,5.6455,5.6474,5.6315,5.5091,5.4477,5.442,5.3625,5.3095,5.2973,5.2961,5.2961,5.2961,5.2687,5.2563,5.2432,5.0533,4.9356,4.9104,4.9425,5.0019,5.0751,5.0367,5.0828,5.2265,5.1805,5.1748,5.2355,5.2582,5.2696,5.2696,5.3056,5.3567,5.4257,5.5034,5.5754,5.6425,5.7232,5.7979,5.8624,5.887,5.9249,5.9799,5.9912,5.9912,5.9912,5.9912,5.9912,5.9912,5.9912,5.9969,6.014,6.0159,6.0329,6.0443,6.0454,6.0481,6.0538,6.1022,6.1401,6.141,6.141,6.1401,6.1401,6.1239,6.1144,6.125,6.0833,5.9912,5.8748,5.7411,5.6546,5.6417,5.5989,5.561,5.547,5.5345,5.5326,5.5223,5.5091,5.4901,5.4901,5.4901,5.4901,5.4901,5.4901,5.4901,5.4901,5.4901,5.4901,5.4901,5.4901,5.4901,5.9804,5.9796,5.9644,5.9257,5.8605,5.8586,5.815,5.7479,5.7316,5.7251,5.7012,5.5583,5.5394,5.6019,5.6084,5.6444,5.7062,5.7156,5.7111,5.7092,5.7251,5.7289,5.7273,5.7281,5.7289,5.7258,5.6884,5.6733,5.6833,5.5969,5.5251,5.4727,5.4666,5.4621,5.4542,5.3585,5.3045,5.3018,5.2089,5.1563,5.1519,5.1865,5.1941,5.1686,5.1975,5.2212,5.2544,5.2336,5.2347,5.2449,5.3226,5.3613,5.3745,5.4996,5.5868,5.5981,5.6702,5.7213,5.7346,5.8093,5.8624,5.8737,5.9382,5.978,5.9893,5.9912,5.9912,5.9912,5.9912,5.9912,5.9912,5.9912,6.0197,6.0803,6.0898,6.1288,6.1886,6.217,6.217,6.217,6.2151,6.2265,6.2284,6.2284,6.2265,6.2132,6.1698,6.1576,6.2079,6.21,6.1967,6.1284,5.9433,5.7603,5.7357,5.7251,5.6948,5.6975,5.6512,5.6171,5.5962,5.5527,5.4939,5.5166,5.5015,5.5034,5.492,5.4901,5.4901,5.4901,5.4901,5.4901,5.4901,5.4901,5.4901,5.9912,5.9912,5.9912,5.9723,5.942,5.9401,5.9211,5.8851,5.8369,5.8169,5.8017,5.691,5.6588,5.6891,5.6918,5.7081,5.7384,5.7281,5.7232,5.7262,5.7635,5.782,5.7839,5.8319,5.8526,5.8461,5.7968,5.7732,5.7625,5.6887,5.6285,5.5994,5.5551,5.5314,5.5241,5.4361,5.3894,5.3981,5.3661,5.3435,5.3219,5.2696,5.2562,5.29,5.3085,5.3681,5.4522,5.4655,5.4863,5.5337,5.5697,5.5887,5.5887,5.655,5.691,5.6948,5.7714,5.8377,5.8851,5.9211,5.942,5.942,5.9704,5.9912,5.9912,5.9912,5.9912,5.9912,5.9912,5.9912,5.9912,5.9912,6.0216,6.0917,6.1106,6.1458,6.2303,6.2416,6.2416,6.2435,6.2833,6.309,6.3098,6.3098,6.2909,6.2589,6.2292,6.2516,6.2866,6.2832,6.2758,6.2551,6.1109,5.9829,5.9016,5.7933,5.7584,5.7403,5.7137,5.691,5.6876,5.6702,5.6266,5.5758,5.5705,5.5466,5.4958,5.492,5.4901,5.4924,5.4913,5.4901,5.4901,5.4901,5.4901,5.9912,5.9912,5.9912,5.9912,5.9912,5.9912,5.9869,5.9744,5.9195,5.8916,5.8799,5.8186,5.7921,5.791,5.7762,5.7743,5.7894,5.7769,5.7709,5.7748,5.8218,5.8417,5.8511,5.9009,5.929,5.9206,5.8653,5.8222,5.7987,5.747,5.7048,5.6748,5.6203,5.5931,5.5874,5.5311,5.5107,5.5187,5.5184,5.5137,5.4883,5.4141,5.3743,5.3883,5.4231,5.4977,5.6133,5.6417,5.6796,5.7354,5.7403,5.7403,5.7422,5.7619,5.7858,5.8093,5.8661,5.9268,5.9874,5.9912,5.9869,5.9828,5.982,5.9795,5.9761,5.9725,5.9725,5.9717,5.9725,5.9801,6.0133,6.0133,6.0552,6.1455,6.1626,6.1966,6.278,6.2884,6.2932,6.2941,6.3434,6.3772,6.3715,6.3555,6.3216,6.3075,6.3078,6.3352,6.3474,6.3425,6.3337,6.3279,6.2632,6.1686,6.0583,5.9664,5.8707,5.8442,5.8474,5.7955,5.7856,5.7799,5.7527,5.6834,5.6728,5.6449,5.5894,5.5567,5.5293,5.5169,5.5147,5.5102,5.4837,5.4875,5.4913,5.9912,5.9912,5.9912,5.9885,5.9912,5.9877,5.9759,5.9605,5.954,5.9433,5.9261,5.9176,5.9196,5.9092,5.8548,5.8652,5.9139,5.9093,5.9037,5.9055,5.914,5.9225,5.9253,5.929,5.9281,5.9244,5.8979,5.8509,5.7902,5.7978,5.7601,5.6861,5.6768,5.673,5.6693,5.6581,5.6645,5.6531,5.6521,5.6606,5.6643,5.6712,5.589,5.4652,5.544,5.6122,5.636,5.6975,5.7403,5.7441,5.7516,5.7479,5.7524,5.8199,5.8949,5.9593,5.9763,5.9801,5.9869,5.988,5.9803,5.9659,5.9624,5.9535,5.941,5.9392,5.9373,5.9336,5.9392,5.97,6.06,6.0654,6.126,6.2569,6.2831,6.3169,6.3958,6.3942,6.4118,6.4044,6.4073,6.4112,6.4119,6.3478,6.3527,6.3678,6.3469,6.3299,6.3852,6.4049,6.4009,6.3867,6.3371,6.2641,6.191,6.1074,6.1168,6.0877,5.9813,5.9252,5.8943,5.8652,5.8304,5.8013,5.8039,5.7728,5.7036,5.6548,5.6245,5.6033,5.586,5.5656,5.5077,5.4935,5.4996,5.9912,5.9885,5.9761,5.971,5.9702,5.9571,5.9463,5.9419,5.941,5.9355,5.9318,5.929,5.9244,5.9082,5.8897,5.8981,5.9272,5.9159,5.912,5.9092,5.8974,5.8914,5.8914,5.8914,5.8914,5.8894,5.8833,5.8662,5.842,5.8464,5.8335,5.798,5.7477,5.7235,5.716,5.6731,5.6518,5.6603,5.6612,5.6668,5.6842,5.6875,5.6556,5.5995,5.6576,5.724,5.7782,5.8093,5.8472,5.8984,5.9003,5.9003,5.9014,5.9173,5.9319,5.9479,5.9526,5.9518,5.9508,5.9499,5.95,5.9428,5.9419,5.9383,5.9327,5.929,5.929,5.929,5.929,5.9853,6.0819,6.0877,6.1272,6.2642,6.3016,6.3316,6.3965,6.4209,6.4209,6.4209,6.4209,6.4209,6.4123,6.3946,6.389,6.4086,6.3835,6.3753,6.3861,6.3926,6.384,6.3781,6.3565,6.3286,6.3081,6.2192,6.1749,6.1655,6.1177,6.0952,6.066,6.0528,6.0238,5.9646,5.9543,5.9215,5.855,5.7641,5.7304,5.6749,5.6556,5.6158,5.5423,5.5551,5.5578,5.97,5.9683,5.9562,5.95,5.9482,5.9345,5.9272,5.9206,5.9215,5.9159,5.9101,5.911,5.9014,5.8924,5.8904,5.8983,5.9091,5.8964,5.8904,5.8875,5.876,5.8687,5.8687,5.8687,5.8687,5.8687,5.8687,5.8687,5.8687,5.8687,5.8687,5.8624,5.813,5.7899,5.7777,5.7342,5.7134,5.7196,5.7206,5.7284,5.7417,5.7492,5.7519,5.7556,5.7849,5.8142,5.8528,5.8755,5.9114,5.9624,5.97,5.97,5.9702,5.9579,5.9446,5.9327,5.9299,5.929,5.929,5.929,5.9281,5.9206,5.9197,5.9196,5.913,5.9092,5.911,5.9129,5.941,6.0042,6.0998,6.1227,6.1691,6.2898,6.3198,6.3404,6.39,6.4013,6.3984,6.3973,6.3981,6.4002,6.4013,6.4002,6.3973,6.3994,6.3875,6.3789,6.3775,6.3695,6.359,6.359,6.3606,6.3561,6.3435,6.2878,6.2591,6.249,6.2035,6.2029,6.2041,6.2031,6.1852,6.1327,6.0933,6.0634,5.995,5.8969,5.8212,5.7548,5.7164,5.6873,5.6506,5.6355,5.6296,5.9309,5.9337,5.929,5.929,5.9281,5.9244,5.9159,5.9023,5.8994,5.8914,5.8791,5.8729,5.875,5.8708,5.8729,5.8719,5.8739,5.8739,5.8729,5.8719,5.8698,5.8687,5.8687,5.8687,5.8687,5.8687,5.8687,5.8687,5.8687,5.8687,5.8687,5.8687,5.8632,5.8539,5.8661,5.8483,5.8549,5.8514,5.8459,5.857,5.87,5.8717,5.876,5.8846,5.9018,5.8793,5.8211,5.8877,5.9289,5.9308,5.9327,5.9299,5.9318,5.929,5.9281,5.9262,5.9262,5.9272,5.9281,5.9244,5.9168,5.9052,5.9013,5.8934,5.8811,5.876,5.8816,5.9012,5.9475,6.0261,6.1182,6.1825,6.2561,6.3416,6.3531,6.3587,6.361,6.3613,6.3613,6.3647,6.3669,6.3613,6.3613,6.3669,6.3684,6.3691,6.3658,6.3647,6.3658,6.3613,6.3602,6.359,6.359,6.359,6.359,6.3565,6.3539,6.3431,6.2843,6.2526,6.2558,6.2569,6.259,6.2207,6.2199,6.1872,6.1156,6.0176,5.9326,5.8694,5.8224,5.7611,5.7145,5.6865,5.693,5.929,5.9272,5.9149,5.9092,5.9081,5.8944,5.8852,5.8801,5.8782,5.875,5.8698,5.8687,5.8687,5.8687,5.8687,5.8687,5.8687,5.8687,5.8687,5.8687,5.8687,5.8687,5.8687,5.8687,5.8687,5.8687,5.8687,5.8687,5.8687,5.8687,5.8687,5.8687,5.8687,5.8687,5.8687,5.8687,5.8687,5.8687,5.8687,5.8687,5.8698,5.876,5.8782,5.8801,5.8872,5.8743,5.8548,5.9018,5.9281,5.9281,5.929,5.9234,5.9139,5.9092,5.9033,5.8922,5.8892,5.8874,5.8902,5.8902,5.8874,5.8821,5.8782,5.8752,5.8708,5.8706,5.8966,5.9393,5.9802,6.0433,6.1726,6.2227,6.2773,6.3516,6.359,6.359,6.359,6.359,6.359,6.359,6.359,6.359,6.359,6.359,6.359,6.359,6.359,6.359,6.359,6.359,6.359,6.359,6.359,6.359,6.359,6.359,6.359,6.359,6.3238,6.2959,6.3015,6.3052,6.3089,6.3108,6.3137,6.2859,6.2142,6.1418,6.0545,5.982,5.9283,5.8495,5.7592,5.7372,5.7507,5.9081,5.9062,5.8944,5.8894,5.8874,5.8739,5.8687,5.8687,5.8687,5.8687,5.8687,5.8687,5.8687,5.8687,5.8687,5.8687,5.8687,5.8687,5.8687,5.8687,5.8687,5.8687,5.8687,5.8687,5.8687,5.8687,5.8687,5.8687,5.8687,5.8687,5.8687,5.8687,5.8687,5.8687,5.8687,5.8687,5.8687,5.8687,5.8687,5.8687,5.8687,5.8687,5.8687,5.8687,5.8687,5.8687,5.8708,5.8954,5.9081,5.9081,5.9081,5.9013,5.8904,5.8884,5.8823,5.8729,5.8687,5.8698,5.8687,5.8708,5.8687,5.8687,5.8687,5.8687,5.8743,5.8892,5.943,5.9783,6.0508,6.125,6.2179,6.2718,6.307,6.3516,6.359,6.359,6.359,6.359,6.359,6.359,6.359,6.359,6.359,6.359,6.359,6.359,6.359,6.359,6.359,6.359,6.359,6.359,6.359,6.359,6.359,6.359,6.359,6.359,6.3535,6.3405,6.3405,6.3405,6.3423,6.3405,6.3405,6.3368,6.2773,6.2346,6.1659,6.1028,6.0173,5.921,5.833,5.8246,5.8307,5.8698,5.8687,5.8687,5.8708,5.8708,5.8687,5.8687,5.8687,5.8687,5.8687,5.8687,5.8687,5.8687,5.8687,5.8687,5.8687,5.8687,5.8687,5.8687,5.8687,5.8687,5.8687,5.8687,5.8687,5.8687,5.8687,5.8687,5.8687,5.8687,5.8687,5.8687,5.8687,5.8687,5.8687,5.8687,5.8687,5.8687,5.8687,5.8687,5.8687,5.8687,5.8687,5.8687,5.8687,5.8687,5.8687,5.8698,5.8739,5.8729,5.8698,5.875,5.875,5.8698,5.8706,5.8708,5.8687,5.8687,5.8687,5.8687,5.8687,5.8687,5.8687,5.8817,5.8762,5.8947,5.956,6.0099,6.0359,6.1418,6.232,6.2606,6.3089,6.3498,6.3572,6.359,6.359,6.359,6.359,6.359,6.359,6.359,6.359,6.359,6.359,6.359,6.359,6.359,6.359,6.359,6.359,6.359,6.359,6.359,6.359,6.359,6.359,6.359,6.359,6.359,6.359,6.359,6.359,6.359,6.359,6.359,6.3572,6.3442,6.2959,6.2383,6.1603,6.0693,5.9765,5.9207,5.8985,5.8687,5.8687,5.8687,5.8687,5.8687,5.8687,5.8687,5.8687,5.8687,5.8687,5.8687,5.8687,5.8687,5.8687,5.8687,5.8687,5.8687,5.8687,5.8687,5.8687,5.8687,5.8687,5.8687,5.8687,5.8687,5.8687,5.8687,5.8687,5.8687,5.8687,5.8687,5.8687,5.8687,5.8687,5.8687,5.8687,5.8687,5.8687,5.8687,5.8687,5.8687,5.8687,5.8687,5.8687,5.8687,5.8687,5.8687,5.8687,5.8687,5.8687,5.8687,5.8687,5.8687,5.8687,5.8687,5.8687,5.8687,5.8687,5.8687,5.8687,5.8725,5.8706,5.8762,5.93,5.9598,5.9616,6.0359,6.1065,6.1603,6.2235,6.2662,6.3163,6.346,6.359,6.359,6.359,6.359,6.359,6.359,6.359,6.359,6.359,6.359,6.359,6.359,6.359,6.359,6.359,6.359,6.359,6.359,6.359,6.359,6.359,6.359,6.359,6.359,6.359,6.359,6.359,6.359,6.359,6.359,6.359,6.359,6.359,6.359,6.359,6.3368,6.2718,6.206,6.1418,6.0582,5.9728,5.9282,5.8892,5.8687,5.8687,5.8687,5.8687,5.8687,5.8687,5.8687,5.8687,5.8687,5.8687,5.8687,5.8687,5.8687,5.8687,5.8687,5.8687,5.8687,5.8687,5.8687,5.8687,5.8687,5.8687,5.8687,5.8687,5.8687,5.8687,5.8687,5.8687,5.8687,5.8687,5.8687,5.8687,5.8687,5.8687,5.8687,5.8687,5.8687,5.8687,5.8687,5.8687,5.8687,5.8687,5.8687,5.8687,5.8687,5.8687,5.8687,5.8687,5.8687,5.8687,5.8687,5.8687,5.8687,5.8687,5.8687,5.8687,5.8687,5.8687,5.8762,5.8985,5.9207,5.9356,5.9969,6.0359,6.0611,6.1213,6.1975,6.2253,6.268,6.3108,6.346,6.359,6.359,6.359,6.359,6.359,6.359,6.359,6.359,6.359,6.359,6.359,6.359,6.359,6.359,6.359,6.359,6.359,6.359,6.359,6.359,6.359,6.359,6.359,6.359,6.359,6.359,6.359,6.359,6.359,6.359,6.359,6.359,6.359,6.359,6.359,6.359,6.3498,6.3052,6.2458,6.1975,6.1269,6.034,5.9765,5.9337,5.8687,5.8687,5.8687,5.8687,5.8687,5.8687,5.8687,5.8687,5.8687,5.8687,5.8687,5.8687,5.8687,5.8687,5.8687,5.8687,5.8687,5.8687,5.8687,5.8687,5.8687,5.8687,5.8687,5.8687,5.8687,5.8687,5.8687,5.8687,5.8687,5.8687,5.8687,5.8687,5.8687,5.8687,5.8687,5.8687,5.8687,5.8687,5.8687,5.8687,5.8687,5.8687,5.8687,5.8687,5.8687,5.8687,5.8687,5.8687,5.8687,5.8687,5.8687,5.8687,5.8687,5.8687,5.8687,5.8762,5.8836,5.8929,5.8985,5.9616,6.0025,6.0173,6.0842,6.1317,6.1484,6.2049,6.2569,6.2662,6.32,6.346,6.3572,6.359,6.359,6.359,6.359,6.359,6.359,6.359,6.359,6.359,6.359,6.359,6.359,6.359,6.359,6.359,6.359,6.359,6.359,6.359,6.359,6.359,6.359,6.359,6.359,6.359,6.359,6.359,6.359,6.359,6.359,6.359,6.359,6.359,6.359,6.359,6.359,6.3405,6.3163,6.2885,6.242,6.1566,6.0712,6.0415,6.0043,5.8687,5.8687,5.8687,5.8687,5.8687,5.8687,5.8687,5.8687,5.8687,5.8687,5.8687,5.8687,5.8687,5.8687,5.8687,5.8687,5.8687,5.8687,5.8687,5.8687,5.8687,5.8687,5.8687,5.8687,5.8687,5.8687,5.8687,5.8687,5.8687,5.8687,5.8687,5.8687,5.8687,5.8687,5.8687,5.8687,5.8687,5.8687,5.8687,5.8687,5.8687,5.8687,5.8687,5.8687,5.8687,5.8687,5.8687,5.8687,5.8687,5.8687,5.8725,5.878,5.8706,5.8725,5.878,5.8929,5.9356,5.9653,5.9783,6.0378,6.0916,6.099,6.1622,6.2153,6.2198,6.2848,6.3256,6.3349,6.3516,6.3609,6.3702,6.3628,6.3646,6.3665,6.3646,6.359,6.359,6.359,6.359,6.359,6.359,6.359,6.359,6.359,6.359,6.359,6.359,6.359,6.359,6.359,6.359,6.359,6.359,6.359,6.359,6.359,6.359,6.359,6.359,6.359,6.359,6.359,6.359,6.359,6.359,6.359,6.359,6.359,6.3405,6.3126,6.2848,6.2198,6.1585,6.1213,6.073,5.904,5.8687,5.8687,5.8687,5.8687,5.8687,5.8687,5.8687,5.8687,5.8687,5.8687,5.8687,5.8687,5.8687,5.8687,5.8687,5.8687,5.8687,5.8687,5.8687,5.8687,5.8687,5.8687,5.8687,5.8687,5.8687,5.8687,5.8687,5.8687,5.8687,5.8687,5.8687,5.8687,5.8687,5.8687,5.8687,5.8687,5.8687,5.8687,5.8687,5.8687,5.8687,5.8687,5.8687,5.8687,5.8687,5.8687,5.8687,5.8687,5.878,5.9022,5.9059,5.8873,5.9059,5.9245,5.9393,6.0043,6.047,6.0704,6.1243,6.1752,6.177,6.2495,6.2829,6.2996,6.3386,6.3553,6.359,6.3628,6.3702,6.4073,6.372,6.3739,6.4018,6.3813,6.3628,6.3609,6.359,6.359,6.359,6.359,6.359,6.359,6.359,6.359,6.359,6.359,6.359,6.359,6.359,6.359,6.359,6.359,6.359,6.359,6.359,6.359,6.359,6.359,6.359,6.359,6.359,6.359,6.359,6.359,6.359,6.359,6.359,6.359,6.3423,6.3145,6.284,6.2469,6.1938,6.1436,5.943,5.8687,5.8687,5.8687,5.8687,5.8687,5.8687,5.8687,5.8687,5.8687,5.8687,5.8687,5.8687,5.8687,5.8687,5.8687,5.8687,5.8687,5.8687,5.8687,5.8687,5.8687,5.8687,5.8687,5.8687,5.8687,5.8687,5.8687,5.8687,5.8687,5.8687,5.8687,5.8687,5.8687,5.8687,5.8687,5.8687,5.8687,5.8687,5.8687,5.8687,5.8687,5.8687,5.8687,5.8687,5.8687,5.8687,5.8706,5.878,5.891,5.9523,5.9542,5.9467,5.9635,6.0099,6.0136,6.0898,6.1306,6.151,6.2068,6.2588,6.2625,6.3145,6.3516,6.3553,6.3572,6.372,6.3906,6.4073,6.4426,6.4853,6.4593,6.4519,6.4686,6.4278,6.385,6.3758,6.3702,6.359,6.359,6.359,6.359,6.359,6.359,6.359,6.3609,6.3609,6.359,6.359,6.359,6.359,6.359,6.359,6.359,6.359,6.359,6.359,6.359,6.359,6.359,6.359,6.359,6.359,6.359,6.359,6.359,6.359,6.359,6.359,6.359,6.3479,6.32,6.2903,6.2606,6.2216,5.943,5.8687,5.8687,5.8687,5.8687,5.8687,5.8687,5.8687,5.8687,5.8687,5.8687,5.8687,5.8687,5.8687,5.8687,5.8687,5.8687,5.8687,5.8687,5.8687,5.8687,5.8687,5.8687,5.8687,5.8687,5.8687,5.8687,5.8687,5.8687,5.8687,5.8687,5.8687,5.8687,5.8687,5.8687,5.8687,5.8687,5.8687,5.8687,5.8687,5.8687,5.8687,5.8687,5.8687,5.8687,5.8687,5.8687,5.8725,5.9003,5.9616,5.982,6.021,6.0619,6.0927,6.1028,6.112,6.1733,6.2198,6.2309,6.2885,6.3293,6.3423,6.3516,6.359,6.359,6.3683,6.4036,6.4631,6.5169,6.5671,6.5856,6.5559,6.5671,6.5652,6.5188,6.4631,6.4501,6.4203,6.3869,6.3962,6.3832,6.3609,6.3628,6.3683,6.3739,6.3795,6.3832,6.3702,6.359,6.359,6.359,6.359,6.359,6.359,6.359,6.359,6.359,6.359,6.359,6.359,6.359,6.359,6.359,6.359,6.359,6.359,6.359,6.359,6.359,6.359,6.3572,6.3553,6.3312,6.307,6.3182,6.047,5.9337,5.9319,5.9077,5.8725,5.8687,5.8687,5.8687,5.8687,5.8687,5.8687,5.8687,5.8687,5.8687,5.8687,5.8687,5.8687,5.8687,5.8687,5.8687,5.8687,5.8687,5.8687,5.8687,5.8687,5.8687,5.8687,5.8687,5.8687,5.8687,5.8687,5.8687,5.8687,5.8687,5.8687,5.8687,5.8687,5.8687,5.8687,5.8687,5.8687,5.8687,5.8687,5.8687,5.8687,5.8687,5.8687,5.8687,5.9077,5.9802,6.034,6.099,6.164,6.2142,6.2235,6.2049,6.255,6.2996,6.3015,6.3423,6.3553,6.3572,6.3609,6.359,6.372,6.4018,6.4612,6.5318,6.5708,6.6283,6.6667,6.6376,6.6321,6.6506,6.5956,6.5529,6.5392,6.5076,6.4842,6.4552,6.4106,6.3846,6.3702,6.3776,6.3888,6.3962,6.4018,6.385,6.3628,6.3579,6.3568,6.3579,6.3568,6.3579,6.359,6.359,6.359,6.359,6.359,6.359,6.359,6.359,6.359,6.359,6.359,6.359,6.359,6.359,6.359,6.359,6.359,6.3572,6.359,6.359,6.359,6.151,6.0155,5.9969,5.9523,5.8966,5.8762,5.8687,5.8687,5.8687,5.8687,5.8687,5.8687,5.8687,5.8687,5.8687,5.8687,5.8687,5.8687,5.8687,5.8687,5.8687,5.8687,5.8687,5.8687,5.8687,5.8687,5.8687,5.8687,5.8687,5.8687,5.8687,5.8687,5.8687,5.8687,5.8687,5.8687,5.8687,5.8687,5.8687,5.8687,5.8687,5.8687,5.8687,5.8687,5.8687,5.8687,5.8687,5.8687,5.9282,6.0099,6.0842,6.1622,6.2532,6.3238,6.3275,6.2885,6.3293,6.3516,6.3572,6.3572,6.359,6.359,6.3776,6.3832,6.4166,6.4835,6.5633,6.6202,6.6648,6.6915,6.7379,6.6984,6.6972,6.7096,6.6788,6.6219,6.6133,6.5917,6.5615,6.5182,6.4524,6.4213,6.4151,6.3702,6.3795,6.3795,6.3832,6.3832,6.3646,6.3534,6.3504,6.3534,6.3545,6.3568,6.3579,6.359,6.359,6.359,6.359,6.359,6.359,6.359,6.359,6.359,6.359,6.359,6.359,6.359,6.359,6.359,6.359,6.359,6.359,6.359,6.359,6.1863,6.0983,6.0229,5.9839,5.9635,5.9022,5.8706,5.8687,5.8687,5.8687,5.8687,5.8687,5.8687,5.8687,5.8687,5.8687,5.8687,5.8687,5.8687,5.8687,5.8687,5.8687,5.8706,5.8687,5.8743,5.8836,5.8817,5.8687,5.8687,5.8687,5.8687,5.8687,5.8687,5.8687,5.8687,5.8687,5.8687,5.8687,5.8687,5.8687,5.8687,5.8687,5.8687,5.8687,5.8687,5.8687,5.8725,5.8817,5.9467,6.0797,6.112,6.1975,6.3145,6.3516,6.3572,6.3498,6.3553,6.359,6.359,6.359,6.3702,6.3832,6.4203,6.4556,6.5095,6.5949,6.6822,6.7119,6.7676,6.7986,6.808,6.8074,6.8093,6.7796,6.7333,6.6945,6.679,6.6698,6.6414,6.5995,6.539,6.4992,6.4772,6.4169,6.3665,6.3665,6.3683,6.3746,6.3783,6.3775,6.3477,6.3488,6.35,6.3511,6.3522,6.3545,6.3579,6.3579,6.359,6.359,6.359,6.359,6.359,6.359,6.359,6.359,6.359,6.359,6.359,6.359,6.359,6.359,6.359,6.359,6.359,6.2588,6.1845,6.1473,6.0749,5.9913,5.9505,5.9115,5.8743,5.8687,5.8687,5.8687,5.8687,5.8687,5.8687,5.8687,5.8687,5.8687,5.8687,5.8687,5.8687,5.8687,5.8687,5.8817,5.9096,5.9245,5.9022,5.9459,5.9467,5.9096,5.8706,5.8687,5.8725,5.8706,5.8687,5.878,5.8706,5.8687,5.8687,5.8687,5.8687,5.8687,5.8687,5.8687,5.8687,5.8687,5.8687,5.878,5.9226,5.9913,6.1113,6.1548,6.2383,6.3275,6.359,6.359,6.359,6.359,6.359,6.359,6.3609,6.3832,6.4222,6.4705,6.5169,6.6023,6.6792,6.7535,6.7864,6.8161,6.8321,6.829,6.8234,6.8208,6.8004,6.7695,6.7627,6.7429,6.7362,6.7147,6.6716,6.626,6.5798,6.5403,6.5063,6.4285,6.3579,6.3973,6.4471,6.442,6.4362,6.3933,6.3442,6.3442,6.3435,6.3447,6.3458,6.3534,6.3557,6.359,6.359,6.359,6.359,6.359,6.359,6.359,6.359,6.359,6.359,6.359,6.359,6.359,6.359,6.359,6.359,6.3628,6.3256,6.268,6.2487,6.1659,6.0489,6.0099,5.9579,5.904,5.878,5.8687,5.8687,5.8687,5.8687,5.8687,5.8687,5.8687,5.8687,5.8687,5.8687,5.8687,5.8687,5.8687,5.8817,5.9226,5.9319,5.8985,5.9627,5.9746,5.9271,5.8834,5.8738,5.8966,5.9133,5.9059,5.9011,5.9017,5.8977,5.8601,5.8582,5.8604,5.8625,5.8627,5.8667,5.8677,5.8687,5.8687,5.8817,5.9449,6.0285,6.1131,6.1919,6.2669,6.3397,6.3568,6.3534,6.3511,6.3481,6.3492,6.3604,6.3764,6.4192,6.4675,6.5382,6.6089,6.7129,6.7505,6.7623,6.8129,6.8203,6.8208,6.8145,6.8088,6.805,6.8043,6.7943,6.8011,6.7961,6.7709,6.7541,6.7294,6.6839,6.6386,6.6055,6.5939,6.5127,6.3841,6.4079,6.4927,6.4827,6.4515,6.4012,6.3349,6.3331,6.3331,6.3342,6.3377,6.3435,6.3504,6.3568,6.359,6.3609,6.359,6.359,6.359,6.359,6.359,6.359,6.359,6.359,6.359,6.359,6.359,6.359,6.3609,6.3832,6.3572,6.3442,6.2718,6.2328,6.2041,6.0545,5.9895,5.9653,5.8985,5.8687,5.8687,5.8687,5.8687,5.8687,5.8687,5.8687,5.8687,5.8687,5.8687,5.8687,5.8687,5.8687,5.8855,5.904,5.93,5.9568,6.0078,6.004,5.951,5.9136,5.929,5.9669,5.9396,5.9651,5.9592,5.9295,5.8978,5.8602,5.8462,5.8505,5.854,5.8553,5.8585,5.8667,5.8687,5.8706,5.8743,5.9566,6.0409,6.1262,6.2086,6.2713,6.3305,6.3481,6.3454,6.3354,6.3532,6.3551,6.3638,6.4091,6.467,6.5178,6.601,6.7031,6.7777,6.7986,6.809,6.8108,6.8114,6.8088,6.805,6.7998,6.792,6.7894,6.7873,6.7847,6.7815,6.777,6.7652,6.7667,6.7295,6.6667,6.6441,6.6246,6.5291,6.4003,6.3885,6.4678,6.4277,6.3955,6.363,6.325,6.3213,6.3213,6.3225,6.3272,6.3342,6.3424,6.3492,6.3557,6.3609,6.3609,6.359,6.359,6.359,6.359,6.359,6.359,6.359,6.359,6.3609,6.3683,6.3702,6.372,6.4166,6.359,6.3572,6.3256,6.2848,6.2309,6.1176,6.0407,5.9802,5.904,5.8687,5.8687,5.8687,5.8687,5.8687,5.8687,5.8687,5.8687,5.8687,5.8687,5.8687,5.8687,5.8687,5.8929,5.9483,6.0141,6.0106,6.0622,6.0559,5.9678,5.9608,5.9645,5.9715,5.9338,5.9005,5.8964,5.9083,5.8751,5.8574,5.8429,5.8486,5.8519,5.8593,5.8614,5.8582,5.8582,5.8855,5.9293,6.0052,6.0837,6.1633,6.2429,6.2942,6.3222,6.3342,6.3333,6.3349,6.3673,6.3902,6.3989,6.4442,6.4952,6.6192,6.708,6.7807,6.8057,6.8088,6.805,6.8024,6.7972,6.7959,6.7842,6.782,6.7781,6.7749,6.7722,6.7696,6.7682,6.7682,6.7682,6.7696,6.7237,6.6644,6.6539,6.6484,6.5311,6.4198,6.426,6.4205,6.3836,6.3602,6.3375,6.319,6.3153,6.3111,6.3129,6.3177,6.3218,6.3342,6.3447,6.3511,6.3586,6.3609,6.359,6.359,6.359,6.359,6.359,6.359,6.359,6.359,6.3702,6.385,6.385,6.3943,6.4538,6.359,6.359,6.359,6.3126,6.2346,6.154,6.0712,5.9858,5.904,5.8687,5.8687,5.8687,5.8687,5.8687,5.8687,5.8687,5.8687,5.8687,5.8687,5.8677,5.8656,5.8646,5.9043,5.9446,5.9789,6.006,6.0678,6.0663,6.0144,6.0291,5.9947,5.9456,5.8987,5.8832,5.881,5.8471,5.8338,5.8308,5.8323,5.8381,5.8403,5.8476,5.8558,5.8465,5.8494,5.885,5.9527,6.0303,6.1105,6.1895,6.2622,6.3078,6.3177,6.3202,6.3301,6.3609,6.3966,6.442,6.4654,6.5152,6.5755,6.6992,6.7533,6.79,6.7998,6.7985,6.7913,6.7873,6.7847,6.7789,6.7682,6.7714,6.7727,6.7709,6.7709,6.7682,6.7682,6.7682,6.7682,6.7664,6.7242,6.7003,6.6824,6.6733,6.5828,6.4728,6.4283,6.4088,6.3591,6.3419,6.337,6.3204,6.3087,6.3051,6.3026,6.3159,6.3277,6.3296,6.3389,6.3488,6.3534,6.3557,6.359,6.359,6.359,6.359,6.359,6.359,6.359,6.359,6.3702,6.3813,6.4668,6.4872,6.5243,6.359,6.359,6.359,6.3126,6.2272,6.1529,6.073,5.9988,5.917,5.8817,5.8836,5.8817,5.8743,5.8725,5.8687,5.8677,5.8667,5.8685,5.8675,5.8643,5.8551,5.8529,5.8608,5.8879,5.9409,5.9376,5.9826,6.0258,6.0605,6.0114,5.9674,5.9566,5.9398,5.9256,5.9449,5.8633,5.817,5.8079,5.8127,5.8126,5.8223,5.8286,5.8353,5.8567,5.8596,5.901,5.998,6.0577,6.1359,6.2122,6.2742,6.3056,6.3026,6.3087,6.3389,6.3958,6.4168,6.4639,6.5303,6.6269,6.7008,6.752,6.7821,6.7868,6.7749,6.7727,6.7754,6.7767,6.7741,6.7709,6.7682,6.7682,6.7682,6.7682,6.7682,6.7682,6.7682,6.7682,6.7682,6.7682,6.7682,6.759,6.7352,6.699,6.6274,6.5406,6.4598,6.3982,6.3438,6.3205,6.318,6.3125,6.2972,6.3014,6.3026,6.3218,6.3312,6.3319,6.3361,6.3431,6.3488,6.3522,6.3557,6.3579,6.359,6.359,6.359,6.359,6.359,6.359,6.359,6.3888,6.4909,6.5652,6.5838,6.359,6.359,6.359,6.2829,6.167,6.1325,6.102,6.0638,5.9932,5.9505,5.9505,5.9505,5.9152,5.8855,5.8677,5.8664,5.8593,5.8572,5.8561,5.8513,5.8451,5.844,5.8518,5.8818,5.9198,5.9503,5.9561,5.9737,6.0483,6.0,6.0043,6.0051,5.9776,5.9739,5.9246,5.858,5.8215,5.8625,5.8433,5.8145,5.8197,5.829,5.8544,5.8983,5.902,5.9631,6.0659,6.1137,6.1653,6.2328,6.291,6.291,6.2892,6.2972,6.3327,6.4047,6.4521,6.5579,6.6489,6.7329,6.7471,6.7702,6.7762,6.7767,6.7682,6.7682,6.7682,6.7682,6.7682,6.7682,6.7682,6.7682,6.7682,6.7682,6.7682,6.7682,6.7682,6.7682,6.7682,6.7682,6.7682,6.7682,6.7535,6.7187,6.6512,6.5815,6.4989,6.398,6.3302,6.3045,6.2928,6.2928,6.288,6.2941,6.3039,6.3206,6.3336,6.3366,6.3342,6.3342,6.3412,6.35,6.3534,6.3579,6.359,6.359,6.359,6.359,6.359,6.359,6.359,6.4185,6.5336,6.5838,6.5931,6.359,6.3572,6.3293,6.2606,6.1678,6.1603,6.1484,6.1158,6.06,6.034,6.0303,6.0043,5.9632,5.9128,5.8773,5.859,5.8476,5.8465,5.8473,5.8411,5.8331,5.832,5.8511,5.8773,5.8749,5.9108,5.9391,5.9676,5.9929,5.9979,5.9905,5.985,6.0003,5.9832,5.9477,5.9275,5.8969,5.9128,5.8734,5.8401,5.838,5.8469,5.8878,5.9267,5.9674,6.0312,6.1208,6.1722,6.1961,6.2554,6.2811,6.2811,6.2811,6.2903,6.3264,6.4035,6.5209,6.6292,6.7278,6.7609,6.7654,6.7696,6.7682,6.7682,6.7682,6.7682,6.7682,6.7682,6.7682,6.7682,6.7682,6.7682,6.7682,6.7682,6.7682,6.7682,6.7682,6.7682,6.7682,6.7682,6.7682,6.7682,6.759,6.7242,6.6769,6.6072,6.5375,6.4328,6.3288,6.2994,6.2811,6.2805,6.2855,6.2966,6.3063,6.3194,6.3301,6.337,6.3389,6.3377,6.3412,6.3492,6.3534,6.3568,6.3579,6.359,6.359,6.359,6.359,6.359,6.359,6.4463,6.5745,6.6023,6.6042,6.359,6.3479,6.2747,6.2383,6.2309,6.2075,6.1704,6.1139,6.1139,6.112,6.1102,6.0337,6.0042,5.9696,5.8963,5.8602,5.8478,5.8467,5.836,5.8338,5.8231,5.819,5.8145,5.818,5.8286,5.8178,5.8442,5.9151,5.9221,5.9636,5.96,5.9545,5.9728,5.9857,6.004,6.0052,5.9765,5.9501,5.8926,5.8619,5.8483,5.8791,5.9273,5.9727,6.026,6.092,6.1575,6.1869,6.2199,6.2554,6.2811,6.2811,6.2811,6.2811,6.3356,6.4218,6.554,6.6531,6.7315,6.7462,6.7645,6.7645,6.7682,6.7682,6.7682,6.7682,6.7682,6.7682,6.7682,6.7682,6.7682,6.7682,6.7682,6.7682,6.7682,6.7682,6.7682,6.7682,6.7682,6.7682,6.7682,6.7627,6.7388,6.7081,6.6843,6.6311,6.5613,6.4787,6.3802,6.3031,6.2866,6.2805,6.288,6.3014,6.3123,6.3206,6.3342,6.3435,6.3458,6.3458,6.3481,6.3492,6.3534,6.3557,6.3579,6.359,6.359,6.359,6.359,6.359,6.359,6.4501,6.5708,6.6042,6.6265,6.359,6.3516,6.2736,6.2068,6.1462,6.084,6.0424,6.033,6.089,6.1143,6.1056,6.1408,6.1026,6.047,5.9675,5.9276,5.8906,5.8573,5.8259,5.8122,5.8099,5.8047,5.8024,5.8001,5.799,5.8217,5.8529,5.8921,5.9325,5.9636,6.0352,6.0823,6.0114,6.0242,6.0352,6.0389,6.0169,5.9838,5.9123,5.8811,5.8847,5.9196,5.9838,6.0584,6.1006,6.1667,6.2132,6.2346,6.2609,6.2719,6.2811,6.2811,6.2811,6.2829,6.3178,6.4066,6.5081,6.5967,6.6659,6.6861,6.7076,6.7517,6.7664,6.7682,6.7682,6.7682,6.7682,6.7682,6.7682,6.7682,6.7682,6.7682,6.7682,6.7682,6.7682,6.7682,6.7682,6.7682,6.7664,6.7444,6.7462,6.7205,6.699,6.7063,6.6806,6.6384,6.5815,6.5007,6.42,6.3343,6.2884,6.2823,6.2842,6.2966,6.3099,6.3213,6.3354,6.347,6.3492,6.3515,6.3527,6.3545,6.3534,6.3557,6.3579,6.359,6.359,6.359,6.359,6.359,6.3683,6.4649,6.5466,6.5745,6.6488,6.359,6.3431,6.232,6.1181,6.0099,5.9497,5.9285,5.9562,6.0852,6.1474,6.1455,6.1858,6.1615,6.0663,5.9858,5.9211,5.8692,5.835,5.8095,5.8042,5.7978,5.799,5.799,5.8015,5.8253,5.8547,5.8921,5.9325,5.9673,6.0003,6.0609,6.0401,6.0291,6.0658,6.0639,6.0327,6.0114,5.996,5.9648,5.9196,5.9306,5.9783,6.0805,6.141,6.1796,6.2334,6.2701,6.2793,6.2811,6.2811,6.2811,6.2811,6.2811,6.2829,6.3196,6.398,6.4494,6.5246,6.5888,6.6421,6.6751,6.715,6.748,6.7682,6.7682,6.7682,6.7682,6.7682,6.7682,6.7682,6.7682,6.7682,6.7682,6.7682,6.7682,6.7682,6.7682,6.7682,6.748,6.7187,6.6948,6.6678,6.6641,6.6769,6.6788,6.6402,6.5815,6.5007,6.4182,6.3343,6.2958,6.2811,6.283,6.2892,6.3057,6.3225,6.3354,6.3488,6.3545,6.3568,6.3568,6.3579,6.3568,6.3579,6.359,6.359,6.359,6.359,6.359,6.359,6.3683,6.4333,6.4946,6.5262,6.6283,6.3519,6.3285,6.16,6.0,5.8552,5.8448,5.8437,5.8622,6.0653,6.1736,6.1643,6.1816,6.134,6.0528,5.975,5.9023,5.8568,5.8203,5.8031,5.7978,5.7978,5.7978,5.7978,5.8015,5.8235,5.8811,5.9325,5.9618,6.0224,6.0315,5.9893,5.9398,6.004,6.0621,6.0878,6.015,5.9985,6.0236,6.0291,6.0162,5.993,6.0603,6.1679,6.1851,6.231,6.2793,6.2793,6.2811,6.2811,6.2811,6.2811,6.2811,6.2811,6.2829,6.3319,6.3576,6.3906,6.4439,6.5063,6.5632,6.6054,6.6512,6.7045,6.7242,6.726,6.759,6.7682,6.7682,6.7682,6.7682,6.7682,6.7682,6.7682,6.7682,6.7682,6.7682,6.7682,6.7462,6.6966,6.6623,6.6182,6.5925,6.5742,6.5833,6.5907,6.5944,6.5576,6.4751,6.4035,6.3209,6.2994,6.2811,6.2818,6.288,6.3093,6.3237,6.3354,6.3465,6.3545,6.3579,6.3579,6.359,6.359,6.359,6.359,6.359,6.359,6.359,6.359,6.359,6.3739,6.4036,6.4408,6.4779,6.5671,6.2926,6.2216,6.0622,5.9313,5.8437,5.8286,5.8242,5.8323,5.9343,5.9948,6.0121,6.0619,6.0763,6.0307,5.9615,5.9011,5.8767,5.818,5.8015,5.7978,5.7978,5.7978,5.7978,5.7997,5.818,5.84,5.8958,5.9857,6.0511,6.0254,6.0114,6.0768,6.086,6.0768,6.1006,6.0242,6.0315,6.0584,6.0878,6.0805,6.0426,6.0988,6.1814,6.2273,6.2793,6.2811,6.2811,6.2811,6.2811,6.2811,6.2811,6.2811,6.2811,6.2811,6.2903,6.3068,6.3246,6.3686,6.42,6.4763,6.5099,6.5485,6.5925,6.6274,6.6696,6.7302,6.7664,6.7664,6.7682,6.7682,6.7682,6.7682,6.7682,6.7682,6.7682,6.7682,6.7682,6.7113,6.6512,6.598,6.5472,6.5215,6.5026,6.4971,6.4971,6.4861,6.4622,6.409,6.3558,6.2921,6.2939,6.2811,6.2805,6.2892,6.3105,6.326,6.3366,6.3488,6.3568,6.359,6.359,6.359,6.359,6.359,6.359,6.359,6.359,6.359,6.359,6.359,6.3665,6.3906,6.4055,6.4371,6.5169,6.24,6.1858,6.06,5.9326,5.833,5.8133,5.8099,5.818,5.8515,5.871,5.8982,5.9864,6.027,5.9942,5.938,5.8902,5.8701,5.8217,5.8015,5.7978,5.7978,5.7978,5.7978,5.7997,5.8382,5.8621,5.9306,6.0132,6.0474,6.0419,6.0401,6.1043,6.0823,6.1043,6.1233,6.1178,6.0933,6.097,6.1447,6.1318,6.1006,6.1704,6.2254,6.2756,6.2811,6.2811,6.2811,6.2811,6.2811,6.2811,6.2811,6.2811,6.2811,6.2811,6.2811,6.2829,6.2903,6.3025,6.3484,6.3888,6.4218,6.464,6.5196,6.5723,6.5962,6.6568,6.7338,6.7425,6.7664,6.7682,6.7682,6.7682,6.7682,6.7682,6.7682,6.7682,6.748,6.704,6.6347,6.5618,6.5233,6.5007,6.4897,6.5044,6.4934,6.4488,6.4139,6.3741,6.316,6.2811,6.2811,6.2836,6.2842,6.2941,6.3141,6.3284,6.3389,6.35,6.359,6.359,6.359,6.359,6.359,6.359,6.359,6.359,6.359,6.359,6.359,6.359,6.3646,6.372,6.3869,6.398,6.4463,6.1708,6.1523,6.0607,5.9398,5.8118,5.799,5.799,5.8008,5.7997,5.8015,5.8192,5.944,5.9545,5.9251,5.9031,5.8517,5.818,5.807,5.7978,5.7978,5.7978,5.7978,5.7978,5.8015,5.8327,5.8786,5.9361,5.9435,5.9471,5.9673,6.0095,6.0566,6.1245,6.1961,6.2334,6.2205,6.1741,6.1741,6.1906,6.1845,6.2053,6.2407,6.2664,6.2774,6.2811,6.2811,6.2811,6.2811,6.2811,6.2811,6.2811,6.2811,6.2811,6.2811,6.2811,6.2811,6.2811,6.2848,6.3044,6.3466,6.3723,6.409,6.4714,6.5063,6.5246,6.587,6.6641,6.7155,6.7388,6.7664,6.7664,6.7664,6.7664,6.759,6.7609,6.7499,6.7168,6.6769,6.6017,6.5251,6.5007,6.4751,6.4732,6.4866,6.4567,6.4139,6.3778,6.3411,6.3068,6.2903,6.2811,6.2886,6.296,6.3069,6.3189,6.3307,6.3424,6.3522,6.359,6.359,6.359,6.359,6.359,6.359,6.359,6.359,6.359,6.359,6.359,6.359,6.3628,6.3646,6.3665,6.3758,6.3683,6.0325,5.9652,5.8832,5.8295,5.7997,5.7978,5.7978,5.7978,5.7978,5.7978,5.807,5.8162,5.8327,5.8253,5.8235,5.807,5.807,5.7978,5.7978,5.7978,5.7978,5.7978,5.7978,5.7978,5.8088,5.8364,5.8676,5.8719,5.8958,5.9343,6.0077,6.108,6.1282,6.1924,6.2536,6.2371,6.215,6.2114,6.2254,6.2291,6.242,6.2646,6.2738,6.2811,6.2811,6.2811,6.2811,6.2811,6.2811,6.2811,6.2811,6.2811,6.2811,6.2811,6.2811,6.2811,6.2811,6.2811,6.2976,6.3086,6.3301,6.3264,6.3728,6.3875,6.4297,6.5063,6.5797,6.6494,6.6861,6.7462,6.7554,6.7554,6.7535,6.7352,6.7278,6.693,6.6568,6.6035,6.5362,6.4934,6.4659,6.4383,6.4127,6.4016,6.3618,6.3319,6.3264,6.2921,6.2939,6.2866,6.2823,6.2923,6.3021,6.3117,6.3213,6.3342,6.3458,6.3545,6.359,6.359,6.359,6.359,6.359,6.359,6.359,6.359,6.359,6.359,6.359,6.359,6.359,6.3609,6.359,6.359,6.359]}]]